Time,TemperatureF,DewpointF,PressureIn,WindDirection,WindDirectionDegrees,WindSpeedMPH,WindSpeedGustMPH,Humidity,HourlyPrecipIn,Conditions,Clouds,dailyrainin,SoftwareType,DateUTC
2013-06-04 00:00:00,59.9,46.4,29.58,East,91,0.0,0.0,61,0.00,,CLR,0.71,VWS V15.00,2013-06-04 04:00:00,
2013-06-04 00:01:00,60.0,46.1,29.58,ESE,113,0.0,3.0,60,0.00,,CLR,0.71,VWS V14.01,2013-06-04 04:01:00,
2013-06-04 00:02:00,59.8,46.3,29.58,ESE,108,0.0,3.0,61,0.00,,CLR,0.00,VWS V15.00,2013-06-04 04:02:00,
2013-06-04 00:03:00,59.8,46.3,29.58,ESE,103,0.0,4.0,61,0.00,,CLR,0.00,VWS V15.00,2013-06-04 04:03:00,
2013-06-04 00:04:00,59.7,46.2,29.58,ESE,108,9.0,9.0,61,0.00,,CLR,0.00,VWS V15.00,2013-06-04 04:04:00,
2013-06-04 00:05:00,59.7,46.2,29.58,East,83,3.0,9.0,61,0.00,,CLR,0.00,VWS V15.00,2013-06-04 04:05:00,
2013-06-04 00:06:00,59.8,46.3,29.58,ESE,103,2.0,4.0,61,0.00,,CLR,0.00,VWS V14.01,2013-06-04 04:06:00,
2013-06-04 00:07:00,59.6,46.6,29.58,SSE,151,1.0,1.0,62,0.00,,CLR,0.00,VWS V15.00,2013-06-04 04:07:00,
2013-06-04 00:08:00,59.6,46.2,29.58,SSE,151,0.0,1.0,61,0.00,,CLR,0.00,VWS V15.00,2013-06-04 04:08:00,
2013-06-04 00:09:00,59.6,46.6,29.58,SE,126,2.0,4.0,62,0.00,,CLR,0.00,VWS V15.00,2013-06-04 04:09:00,
2013-06-04 00:10:00,59.6,46.2,29.58,East,94,4.0,7.0,61,0.00,,CLR,0.00,VWS V15.00,2013-06-04 04:10:00,
2013-06-04 00:11:00,59.7,46.7,29.58,SSE,151,0.0,1.0,62,0.00,,CLR,0.00,VWS V14.01,2013-06-04 04:11:00,
2013-06-04 00:12:00,59.6,46.2,29.58,SE,130,4.0,7.0,61,0.00,,CLR,0.00,VWS V15.00,2013-06-04 04:12:00,
2013-06-04 00:13:00,59.5,46.1,29.58,SE,140,0.0,4.0,61,0.00,,CLR,0.00,VWS V15.00,2013-06-04 04:13:00,
2013-06-04 00:14:00,59.5,46.5,29.58,ESE,110,0.0,2.0,62,0.00,,CLR,0.00,VWS V15.00,2013-06-04 04:14:00,
2013-06-04 00:15:00,59.5,46.5,29.58,East,90,0.0,3.0,62,0.00,,CLR,0.00,VWS V15.00,2013-06-04 04:15:00,
2013-06-04 00:16:00,59.6,46.6,29.58,SE,140,0.0,4.0,62,0.00,,CLR,0.00,VWS V14.01,2013-06-04 04:16:00,
2013-06-04 00:17:00,59.4,46.0,29.58,SSW,204,0.0,5.0,61,0.00,,CLR,0.00,VWS V15.00,2013-06-04 04:17:00,
2013-06-04 00:18:00,59.4,46.4,29.58,East,98,0.0,5.0,62,0.00,,CLR,0.00,VWS V15.00,2013-06-04 04:18:00,
2013-06-04 00:19:00,59.4,46.8,29.58,ESE,105,0.0,2.0,63,0.00,,CLR,0.00,VWS V15.00,2013-06-04 04:19:00,
2013-06-04 00:20:00,59.3,47.5,29.58,ESE,107,0.0,1.0,65,0.00,,CLR,0.00,VWS V15.00,2013-06-04 04:20:00,
2013-06-04 00:21:00,59.4,46.4,29.58,East,98,0.0,5.0,62,0.00,,CLR,0.00,VWS V14.01,2013-06-04 04:21:00,
2013-06-04 00:22:00,59.3,47.5,29.58,East,93,7.0,7.0,65,0.00,,CLR,0.00,VWS V15.00,2013-06-04 04:22:00,
2013-06-04 00:23:00,59.1,47.0,29.58,SE,131,0.0,7.0,64,0.00,,CLR,0.00,VWS V15.00,2013-06-04 04:23:00,
2013-06-04 00:24:00,59.1,46.5,29.58,SE,136,0.0,2.0,63,0.00,,CLR,0.00,VWS V15.00,2013-06-04 04:24:00,
2013-06-04 00:25:00,59.0,46.0,29.58,South,186,0.0,9.0,62,0.00,,CLR,0.00,VWS V15.00,2013-06-04 04:25:00,
2013-06-04 00:26:00,59.2,47.0,29.58,SE,131,1.0,7.0,64,0.00,,CLR,0.00,VWS V14.01,2013-06-04 04:26:00,
2013-06-04 00:27:00,59.0,46.0,29.58,ESE,110,0.0,3.0,62,0.00,,CLR,0.00,VWS V15.00,2013-06-04 04:27:00,
2013-06-04 00:28:00,59.0,46.0,29.58,ESE,117,0.0,5.0,62,0.00,,CLR,0.00,VWS V15.00,2013-06-04 04:28:00,
2013-06-04 00:29:00,59.0,46.0,29.58,East,86,0.0,4.0,62,0.00,,CLR,0.00,VWS V15.00,2013-06-04 04:29:00,
2013-06-04 00:30:00,59.0,46.0,29.58,East,88,0.0,1.0,62,0.00,,CLR,0.00,VWS V15.00,2013-06-04 04:30:00,
2013-06-04 00:31:00,59.0,46.0,29.58,ESE,117,1.0,5.0,62,0.00,,CLR,0.00,VWS V14.01,2013-06-04 04:31:00,
2013-06-04 00:32:00,59.0,46.8,29.58,East,100,0.0,2.0,64,0.00,,CLR,0.00,VWS V15.00,2013-06-04 04:32:00,
2013-06-04 00:33:00,59.0,46.4,29.58,SE,128,0.0,1.0,63,0.00,,CLR,0.00,VWS V15.00,2013-06-04 04:33:00,
2013-06-04 00:34:00,59.0,46.4,29.58,ESE,105,4.0,4.0,63,0.00,,CLR,0.00,VWS V15.00,2013-06-04 04:34:00,
2013-06-04 00:35:00,59.0,46.8,29.58,SE,130,0.0,11.0,64,0.00,,CLR,0.00,VWS V15.00,2013-06-04 04:35:00,
2013-06-04 00:36:00,59.0,46.4,29.58,SE,128,0.0,1.0,63,0.00,,CLR,0.00,VWS V14.01,2013-06-04 04:36:00,
2013-06-04 00:37:00,59.0,46.8,29.58,ESE,123,0.0,1.0,64,0.00,,CLR,0.00,VWS V15.00,2013-06-04 04:37:00,
2013-06-04 00:38:00,59.0,46.0,29.58,ESE,109,5.0,11.0,62,0.00,,CLR,0.00,VWS V15.00,2013-06-04 04:38:00,
2013-06-04 00:39:00,59.0,46.0,29.58,East,98,0.0,5.0,62,0.00,,CLR,0.00,VWS V15.00,2013-06-04 04:39:00,
2013-06-04 00:40:00,59.0,46.4,29.58,ENE,63,0.0,10.0,63,0.00,,CLR,0.00,VWS V15.00,2013-06-04 04:40:00,
2013-06-04 00:41:00,59.0,46.0,29.58,ESE,109,5.0,11.0,62,0.00,,CLR,0.00,VWS V14.01,2013-06-04 04:41:00,
2013-06-04 00:42:00,59.0,45.6,29.58,SE,132,0.0,5.0,61,0.00,,CLR,0.00,VWS V15.00,2013-06-04 04:42:00,
2013-06-04 00:43:00,59.0,46.0,29.58,SE,132,0.0,0.0,62,0.00,,CLR,0.00,VWS V15.00,2013-06-04 04:43:00,
2013-06-04 00:44:00,59.0,45.6,29.58,East,92,1.0,4.0,61,0.00,,CLR,0.00,VWS V15.00,2013-06-04 04:44:00,
2013-06-04 00:45:00,58.9,45.5,29.58,ESE,108,0.0,4.0,61,0.00,,CLR,0.00,VWS V15.00,2013-06-04 04:45:00,
2013-06-04 00:46:00,59.0,46.0,29.58,SE,132,0.0,0.0,62,0.00,,CLR,0.00,VWS V14.01,2013-06-04 04:46:00,
2013-06-04 00:47:00,58.9,45.5,29.58,East,90,0.0,7.0,61,0.00,,CLR,0.00,VWS V15.00,2013-06-04 04:47:00,
2013-06-04 00:48:00,58.8,45.8,29.58,ESE,122,0.0,2.0,62,0.00,,CLR,0.00,VWS V15.00,2013-06-04 04:48:00,
2013-06-04 00:49:00,58.8,46.2,29.58,East,96,2.0,2.0,63,0.00,,CLR,0.00,VWS V15.00,2013-06-04 04:49:00,
2013-06-04 00:50:00,58.7,45.7,29.58,East,97,0.0,6.0,62,0.00,,CLR,0.00,VWS V15.00,2013-06-04 04:50:00,
2013-06-04 00:51:00,58.8,45.8,29.58,ESE,122,0.0,2.0,62,0.00,,CLR,0.00,VWS V14.01,2013-06-04 04:51:00,
2013-06-04 00:52:00,58.6,45.6,29.58,SE,128,3.0,8.0,62,0.00,,CLR,0.00,VWS V15.00,2013-06-04 04:52:00,
2013-06-04 00:53:00,58.6,45.2,29.59,East,96,2.0,3.0,61,0.00,,CLR,0.00,VWS V15.00,2013-06-04 04:53:00,
2013-06-04 00:54:00,58.6,45.6,29.58,ESE,123,0.0,5.0,62,0.00,,CLR,0.00,VWS V15.00,2013-06-04 04:54:00,
2013-06-04 00:55:00,58.6,46.1,29.59,East,91,0.0,1.0,63,0.00,,CLR,0.00,VWS V15.00,2013-06-04 04:55:00,
2013-06-04 00:56:00,58.6,45.2,29.59,ESE,104,1.0,3.0,61,0.00,,CLR,0.00,VWS V14.01,2013-06-04 04:56:00,
2013-06-04 00:57:00,58.5,45.5,29.59,ESE,121,0.0,10.0,62,0.00,,CLR,0.00,VWS V15.00,2013-06-04 04:57:00,
2013-06-04 00:58:00,58.4,45.0,29.59,SE,126,2.0,2.0,61,0.00,,CLR,0.00,VWS V15.00,2013-06-04 04:58:00,
2013-06-04 00:59:00,58.4,45.0,29.59,SE,129,0.0,3.0,61,0.00,,CLR,0.00,VWS V15.00,2013-06-04 04:59:00,
2013-06-04 01:00:00,58.3,44.5,29.59,ESE,103,1.0,9.0,60,0.00,,CLR,0.00,VWS V15.00,2013-06-04 05:00:00,
2013-06-04 01:01:00,58.4,45.0,29.59,SE,126,2.0,2.0,61,0.00,,BKN095,0.00,VWS V14.01,2013-06-04 05:01:00,
2013-06-04 01:02:00,58.3,44.9,29.59,East,94,0.0,6.0,61,0.00,,CLR,0.00,VWS V15.00,2013-06-04 05:02:00,
2013-06-04 01:03:00,58.2,44.8,29.59,ESE,107,5.0,10.0,61,0.00,,CLR,0.00,VWS V15.00,2013-06-04 05:03:00,
2013-06-04 01:04:00,58.2,44.8,29.59,East,94,0.0,5.0,61,0.00,,CLR,0.00,VWS V15.00,2013-06-04 05:04:00,
2013-06-04 01:05:00,58.2,44.8,29.60,East,101,1.0,6.0,61,0.00,,CLR,0.00,VWS V15.00,2013-06-04 05:05:00,
2013-06-04 01:06:00,58.2,44.8,29.59,ESE,105,0.0,10.0,61,0.00,,BKN095,0.00,VWS V14.01,2013-06-04 05:06:00,
2013-06-04 01:07:00,58.1,44.3,29.60,ESE,111,0.0,2.0,60,0.00,,CLR,0.00,VWS V15.00,2013-06-04 05:07:00,
2013-06-04 01:08:00,58.1,45.6,29.59,East,89,7.0,7.0,63,0.00,,CLR,0.00,VWS V15.00,2013-06-04 05:08:00,
2013-06-04 01:09:00,58.1,44.7,29.60,ESE,109,2.0,7.0,61,0.00,,CLR,0.00,VWS V15.00,2013-06-04 05:09:00,
2013-06-04 01:10:00,58.0,44.6,29.60,East,101,0.0,10.0,61,0.00,,CLR,0.00,VWS V15.00,2013-06-04 05:10:00,
2013-06-04 01:11:00,58.1,45.6,29.59,East,89,7.0,7.0,63,0.00,,BKN095,0.00,VWS V14.01,2013-06-04 05:11:00,
2013-06-04 01:12:00,58.0,44.2,29.60,ESE,120,0.0,2.0,60,0.00,,CLR,0.00,VWS V15.00,2013-06-04 05:12:00,
2013-06-04 01:13:00,58.0,44.2,29.60,SSE,157,0.0,7.0,60,0.00,,CLR,0.00,VWS V15.00,2013-06-04 05:13:00,
2013-06-04 01:14:00,57.9,44.1,29.60,ESE,122,4.0,6.0,60,0.00,,CLR,0.00,VWS V15.00,2013-06-04 05:14:00,
2013-06-04 01:15:00,57.9,44.1,29.59,East,101,2.0,4.0,60,0.00,,CLR,0.00,VWS V15.00,2013-06-04 05:15:00,
2013-06-04 01:16:00,58.0,44.2,29.60,SSE,157,0.0,7.0,60,0.00,,BKN095,0.00,VWS V14.01,2013-06-04 05:16:00,
2013-06-04 01:17:00,57.9,43.7,29.60,ESE,113,2.0,6.0,59,0.00,,CLR,0.00,VWS V15.00,2013-06-04 05:17:00,
2013-06-04 01:18:00,57.9,45.0,29.60,South,178,0.0,2.0,62,0.00,,CLR,0.00,VWS V15.00,2013-06-04 05:18:00,
2013-06-04 01:19:00,57.8,43.6,29.60,East,95,0.0,7.0,59,0.00,,CLR,0.00,VWS V15.00,2013-06-04 05:19:00,
2013-06-04 01:20:00,57.8,43.6,29.60,ESE,115,2.0,10.0,59,0.00,,CLR,0.00,VWS V15.00,2013-06-04 05:20:00,
2013-06-04 01:21:00,57.9,45.0,29.60,South,178,0.0,2.0,62,0.00,,BKN095,0.00,VWS V14.01,2013-06-04 05:21:00,
2013-06-04 01:22:00,57.8,44.0,29.60,SE,126,1.0,1.0,60,0.00,,CLR,0.00,VWS V15.00,2013-06-04 05:22:00,
2013-06-04 01:23:00,57.7,45.2,29.60,SE,146,0.0,4.0,63,0.00,,CLR,0.00,VWS V15.00,2013-06-04 05:23:00,
2013-06-04 01:24:00,57.7,43.5,29.60,SE,144,0.0,4.0,59,0.00,,CLR,0.00,VWS V15.00,2013-06-04 05:24:00,
2013-06-04 01:25:00,57.7,43.0,29.60,SE,143,0.0,1.0,58,0.00,,CLR,0.00,VWS V15.00,2013-06-04 05:25:00,
2013-06-04 01:26:00,57.7,45.2,29.60,SE,146,0.0,4.0,63,0.00,,BKN095,0.00,VWS V14.01,2013-06-04 05:26:00,
2013-06-04 01:27:00,57.6,43.0,29.60,SE,134,0.0,7.0,58,0.00,,CLR,0.00,VWS V15.00,2013-06-04 05:27:00,
2013-06-04 01:28:00,57.6,43.4,29.60,East,98,0.0,7.0,59,0.00,,CLR,0.00,VWS V15.00,2013-06-04 05:28:00,
2013-06-04 01:29:00,57.6,43.0,29.60,East,98,0.0,1.0,58,0.00,,CLR,0.00,VWS V15.00,2013-06-04 05:29:00,
2013-06-04 01:30:00,57.5,45.8,29.61,East,98,1.0,1.0,65,0.00,,CLR,0.00,VWS V15.00,2013-06-04 05:30:00,
2013-06-04 01:31:00,57.6,43.4,29.60,East,98,0.0,7.0,59,0.00,,BKN095,0.00,VWS V14.01,2013-06-04 05:31:00,
2013-06-04 01:32:00,57.4,44.1,29.60,East,101,2.0,2.0,61,0.00,,CLR,0.00,VWS V15.00,2013-06-04 05:32:00,
2013-06-04 01:33:00,57.4,43.2,29.60,ESE,106,0.0,3.0,59,0.00,,CLR,0.00,VWS V15.00,2013-06-04 05:33:00,
2013-06-04 01:34:00,57.3,43.1,29.60,ESE,102,4.0,10.0,59,0.00,,CLR,0.00,VWS V15.00,2013-06-04 05:34:00,
2013-06-04 01:35:00,57.3,42.7,29.60,ESE,109,0.0,4.0,58,0.00,,CLR,0.00,VWS V15.00,2013-06-04 05:35:00,
2013-06-04 01:36:00,57.4,43.2,29.60,East,83,0.0,3.0,59,0.00,,BKN095,0.00,VWS V14.01,2013-06-04 05:36:00,
2013-06-04 01:37:00,57.3,43.1,29.60,ESE,120,0.0,3.0,59,0.00,,CLR,0.00,VWS V15.00,2013-06-04 05:37:00,
2013-06-04 01:38:00,57.2,42.6,29.60,ESE,121,0.0,4.0,58,0.00,,CLR,0.00,VWS V15.00,2013-06-04 05:38:00,
2013-06-04 01:39:00,57.2,42.6,29.60,East,88,4.0,7.0,58,0.00,,CLR,0.00,VWS V15.00,2013-06-04 05:39:00,
2013-06-04 01:40:00,57.2,42.6,29.60,East,90,1.0,5.0,58,0.00,,CLR,0.00,VWS V15.00,2013-06-04 05:40:00,
2013-06-04 01:41:00,57.2,42.6,29.60,ESE,121,0.0,4.0,58,0.00,,BKN095,0.00,VWS V14.01,2013-06-04 05:41:00,
2013-06-04 01:42:00,57.1,42.9,29.60,ESE,105,0.0,5.0,59,0.00,,CLR,0.00,VWS V15.00,2013-06-04 05:42:00,
2013-06-04 01:43:00,57.1,42.9,29.60,East,97,0.0,3.0,59,0.00,,CLR,0.00,VWS V15.00,2013-06-04 05:43:00,
2013-06-04 01:44:00,57.1,42.9,29.60,East,97,0.0,0.0,59,0.00,,CLR,0.00,VWS V15.00,2013-06-04 05:44:00,
2013-06-04 01:45:00,57.1,43.4,29.60,ESE,118,2.0,5.0,60,0.00,,CLR,0.00,VWS V15.00,2013-06-04 05:45:00,
2013-06-04 01:46:00,57.1,42.9,29.60,East,97,0.0,3.0,59,0.00,,BKN095,0.00,VWS V14.01,2013-06-04 05:46:00,
2013-06-04 01:47:00,57.0,43.7,29.60,SE,131,0.0,0.0,61,0.00,,CLR,0.00,VWS V15.00,2013-06-04 05:47:00,
2013-06-04 01:48:00,57.0,45.8,29.60,SE,131,0.0,0.0,66,0.00,,CLR,0.00,VWS V15.00,2013-06-04 05:48:00,
2013-06-04 01:49:00,56.9,44.9,29.60,SE,131,0.0,1.0,64,0.00,,CLR,0.00,VWS V15.00,2013-06-04 05:49:00,
2013-06-04 01:50:00,56.9,45.3,29.60,ESE,119,5.0,5.0,65,0.00,,CLR,0.00,VWS V15.00,2013-06-04 05:50:00,
2013-06-04 01:51:00,57.0,45.8,29.60,SE,131,0.0,0.0,66,0.00,,BKN095,0.00,VWS V14.01,2013-06-04 05:51:00,
2013-06-04 01:52:00,56.8,44.3,29.60,ESE,111,0.0,3.0,63,0.00,,CLR,0.00,VWS V15.00,2013-06-04 05:52:00,
2013-06-04 01:53:00,56.7,43.0,29.60,SE,146,0.0,3.0,60,0.00,,CLR,0.00,VWS V15.00,2013-06-04 05:53:00,
2013-06-04 01:54:00,56.7,43.0,29.60,SE,141,0.0,2.0,60,0.00,,CLR,0.00,VWS V15.00,2013-06-04 05:54:00,
2013-06-04 01:55:00,56.6,42.9,29.60,ESE,115,3.0,7.0,60,0.00,,CLR,0.00,VWS V15.00,2013-06-04 05:55:00,
2013-06-04 01:56:00,56.7,43.0,29.60,SE,146,0.0,3.0,60,0.00,,BKN095,0.00,VWS V14.01,2013-06-04 05:56:00,
2013-06-04 01:57:00,56.5,42.8,29.60,SE,133,0.0,1.0,60,0.00,,CLR,0.00,VWS V15.00,2013-06-04 05:57:00,
2013-06-04 01:58:00,56.5,43.2,29.60,ESE,103,0.0,2.0,61,0.00,,CLR,0.00,VWS V15.00,2013-06-04 05:58:00,
2013-06-04 01:59:00,56.5,44.5,29.60,ESE,103,0.0,2.0,64,0.00,,CLR,0.00,VWS V15.00,2013-06-04 05:59:00,
2013-06-04 02:00:00,56.4,43.1,29.60,SSE,151,0.0,4.0,61,0.00,,CLR,0.00,VWS V15.00,2013-06-04 06:00:00,
2013-06-04 02:01:00,56.5,43.2,29.60,ESE,103,0.0,2.0,61,0.00,,CLR,0.00,VWS V14.01,2013-06-04 06:01:00,
2013-06-04 02:02:00,56.3,43.5,29.60,SSE,151,0.0,1.0,62,0.00,,CLR,0.00,VWS V15.00,2013-06-04 06:02:00,
2013-06-04 02:03:00,56.3,44.3,29.60,SSE,151,0.0,0.0,64,0.00,,CLR,0.00,VWS V15.00,2013-06-04 06:03:00,
2013-06-04 02:04:00,56.2,43.4,29.60,ESE,114,3.0,4.0,62,0.00,,CLR,0.00,VWS V15.00,2013-06-04 06:04:00,
2013-06-04 02:05:00,56.2,43.4,29.60,ESE,114,0.0,3.0,62,0.00,,CLR,0.00,VWS V15.00,2013-06-04 06:05:00,
2013-06-04 02:06:00,56.3,44.3,29.60,SSE,151,0.0,0.0,64,0.00,,CLR,0.00,VWS V14.01,2013-06-04 06:06:00,
2013-06-04 02:07:00,56.0,44.4,29.61,ESE,114,0.0,1.0,65,0.00,,CLR,0.00,VWS V15.00,2013-06-04 06:07:00,
2013-06-04 02:08:00,56.0,45.2,29.60,SW,214,0.0,4.0,67,0.00,,CLR,0.00,VWS V15.00,2013-06-04 06:08:00,
2013-06-04 02:09:00,55.9,43.1,29.60,South,174,0.0,2.0,62,0.00,,CLR,0.00,VWS V15.00,2013-06-04 06:09:00,
2013-06-04 02:10:00,55.9,43.9,29.60,South,174,0.0,1.0,64,0.00,,CLR,0.00,VWS V15.00,2013-06-04 06:10:00,
2013-06-04 02:11:00,56.0,45.2,29.60,SW,214,0.0,4.0,67,0.00,,CLR,0.00,VWS V14.01,2013-06-04 06:11:00,
2013-06-04 02:12:00,55.8,43.4,29.60,ESE,107,0.0,3.0,63,0.00,,CLR,0.00,VWS V15.00,2013-06-04 06:12:00,
2013-06-04 02:13:00,55.8,44.2,29.60,ESE,107,0.0,0.0,65,0.00,,CLR,0.00,VWS V15.00,2013-06-04 06:13:00,
2013-06-04 02:14:00,55.7,44.9,29.60,ESE,107,0.0,0.0,67,0.00,,CLR,0.00,VWS V15.00,2013-06-04 06:14:00,
2013-06-04 02:15:00,55.7,44.5,29.60,SSE,149,0.0,4.0,66,0.00,,CLR,0.00,VWS V15.00,2013-06-04 06:15:00,
2013-06-04 02:16:00,55.8,44.2,29.60,ESE,107,0.0,0.0,65,0.00,,CLR,0.00,VWS V14.01,2013-06-04 06:16:00,
2013-06-04 02:17:00,55.6,44.4,29.60,SSE,149,0.0,0.0,66,0.00,,CLR,0.00,VWS V15.00,2013-06-04 06:17:00,
2013-06-04 02:18:00,55.6,44.4,29.61,SSE,149,0.0,0.0,66,0.00,,CLR,0.00,VWS V15.00,2013-06-04 06:18:00,
2013-06-04 02:19:00,55.5,43.5,29.61,SSE,149,0.0,2.0,64,0.00,,CLR,0.00,VWS V15.00,2013-06-04 06:19:00,
2013-06-04 02:20:00,55.5,43.5,29.61,SSE,149,0.0,0.0,64,0.00,,CLR,0.00,VWS V15.00,2013-06-04 06:20:00,
2013-06-04 02:21:00,55.6,44.4,29.61,SSE,149,0.0,0.0,66,0.00,,CLR,0.00,VWS V14.01,2013-06-04 06:21:00,
2013-06-04 02:22:00,55.4,43.4,29.61,SSE,149,0.0,0.0,64,0.00,,CLR,0.00,VWS V15.00,2013-06-04 06:22:00,
2013-06-04 02:23:00,55.3,43.3,29.61,SSE,149,0.0,0.0,64,0.00,,CLR,0.00,VWS V15.00,2013-06-04 06:23:00,
2013-06-04 02:24:00,55.3,43.3,29.61,SSE,149,0.0,0.0,64,0.00,,CLR,0.00,VWS V15.00,2013-06-04 06:24:00,
2013-06-04 02:25:00,55.2,43.7,29.61,SSE,149,0.0,0.0,65,0.00,,CLR,0.00,VWS V15.00,2013-06-04 06:25:00,
2013-06-04 02:26:00,55.3,43.3,29.61,SSE,149,0.0,0.0,64,0.00,,CLR,0.00,VWS V14.01,2013-06-04 06:26:00,
2013-06-04 02:27:00,55.1,44.0,29.61,SSE,149,0.0,0.0,66,0.00,,CLR,0.00,VWS V15.00,2013-06-04 06:27:00,
2013-06-04 02:28:00,55.1,43.6,29.61,SSE,161,0.0,0.0,65,0.00,,CLR,0.00,VWS V15.00,2013-06-04 06:28:00,
2013-06-04 02:29:00,55.1,42.8,29.61,South,184,0.0,3.0,63,0.00,,CLR,0.00,VWS V15.00,2013-06-04 06:29:00,
2013-06-04 02:30:00,55.0,43.1,29.61,South,184,0.0,0.0,64,0.00,,CLR,0.00,VWS V15.00,2013-06-04 06:30:00,
2013-06-04 02:31:00,55.1,43.6,29.61,SSE,161,0.0,0.0,65,0.00,,CLR,0.00,VWS V14.01,2013-06-04 06:31:00,
2013-06-04 02:32:00,54.9,44.5,29.61,South,184,0.0,0.0,68,0.00,,CLR,0.00,VWS V15.00,2013-06-04 06:32:00,
2013-06-04 02:33:00,54.9,43.4,29.61,South,180,0.0,1.0,65,0.00,,CLR,0.00,VWS V15.00,2013-06-04 06:33:00,
2013-06-04 02:34:00,54.8,43.7,29.61,ESE,119,0.0,2.0,66,0.00,,CLR,0.00,VWS V15.00,2013-06-04 06:34:00,
2013-06-04 02:35:00,54.8,44.1,29.61,ESE,119,0.0,0.0,67,0.00,,CLR,0.00,VWS V15.00,2013-06-04 06:35:00,
2013-06-04 02:36:00,54.9,43.4,29.61,South,180,0.0,1.0,65,0.00,,CLR,0.00,VWS V14.01,2013-06-04 06:36:00,
2013-06-04 02:37:00,54.7,44.4,29.61,ESE,119,0.0,0.0,68,0.00,,CLR,0.00,VWS V15.00,2013-06-04 06:37:00,
2013-06-04 02:38:00,54.6,44.7,29.61,ESE,119,0.0,0.0,69,0.00,,CLR,0.00,VWS V15.00,2013-06-04 06:38:00,
2013-06-04 02:39:00,54.6,44.3,29.61,ESE,119,0.0,0.0,68,0.00,,CLR,0.00,VWS V15.00,2013-06-04 06:39:00,
2013-06-04 02:40:00,54.5,43.4,29.61,ESE,119,0.0,1.0,66,0.00,,CLR,0.00,VWS V15.00,2013-06-04 06:40:00,
2013-06-04 02:41:00,54.6,44.7,29.62,ESE,119,0.0,0.0,69,0.00,,CLR,0.00,VWS V14.01,2013-06-04 06:41:00,
2013-06-04 02:42:00,54.4,43.7,29.61,ESE,120,0.0,0.0,67,0.00,,CLR,0.00,VWS V15.00,2013-06-04 06:42:00,
2013-06-04 02:43:00,54.3,42.8,29.61,ESE,120,0.0,0.0,65,0.00,,CLR,0.00,VWS V15.00,2013-06-04 06:43:00,
2013-06-04 02:44:00,54.3,43.6,29.61,ESE,120,0.0,0.0,67,0.00,,CLR,0.00,VWS V15.00,2013-06-04 06:44:00,
2013-06-04 02:45:00,54.2,43.5,29.61,ESE,120,0.0,0.0,67,0.00,,CLR,0.00,VWS V15.00,2013-06-04 06:45:00,
2013-06-04 02:46:00,54.3,42.8,29.61,ESE,120,0.0,0.0,65,0.00,,CLR,0.00,VWS V14.01,2013-06-04 06:46:00,
2013-06-04 02:47:00,54.1,42.6,29.61,SE,125,0.0,3.0,65,0.00,,CLR,0.00,VWS V15.00,2013-06-04 06:47:00,
2013-06-04 02:48:00,54.1,42.6,29.62,SE,125,0.0,0.0,65,0.00,,CLR,0.00,VWS V15.00,2013-06-04 06:48:00,
2013-06-04 02:49:00,54.0,42.5,29.62,SE,125,0.0,0.0,65,0.00,,CLR,0.00,VWS V15.00,2013-06-04 06:49:00,
2013-06-04 02:50:00,54.0,43.3,29.62,SE,125,0.0,0.0,67,0.00,,CLR,0.00,VWS V15.00,2013-06-04 06:50:00,
2013-06-04 02:51:00,54.1,42.6,29.62,SE,125,0.0,0.0,65,0.00,,CLR,0.00,VWS V14.01,2013-06-04 06:51:00,
2013-06-04 02:52:00,53.9,42.0,29.61,SE,128,0.0,2.0,64,0.00,,CLR,0.00,VWS V15.00,2013-06-04 06:52:00,
2013-06-04 02:53:00,53.9,42.8,29.62,SE,128,0.0,0.0,66,0.00,,CLR,0.00,VWS V15.00,2013-06-04 06:53:00,
2013-06-04 02:54:00,53.9,42.8,29.62,SE,128,0.0,0.0,66,0.00,,CLR,0.00,VWS V15.00,2013-06-04 06:54:00,
2013-06-04 02:55:00,53.8,43.1,29.62,SE,128,0.0,0.0,67,0.00,,CLR,0.00,VWS V15.00,2013-06-04 06:55:00,
2013-06-04 02:56:00,53.9,42.8,29.62,SE,128,0.0,0.0,66,0.00,,CLR,0.00,VWS V14.01,2013-06-04 06:56:00,
2013-06-04 02:57:00,53.8,43.1,29.62,SE,128,0.0,0.0,67,0.00,,CLR,0.00,VWS V15.00,2013-06-04 06:57:00,
2013-06-04 02:58:00,53.7,43.0,29.61,SE,128,0.0,0.0,67,0.00,,CLR,0.00,VWS V15.00,2013-06-04 06:58:00,
2013-06-04 02:59:00,53.7,43.4,29.61,SE,128,0.0,0.0,68,0.00,,CLR,0.00,VWS V15.00,2013-06-04 06:59:00,
2013-06-04 03:00:00,53.7,43.4,29.61,SE,128,0.0,0.0,68,0.00,,CLR,0.00,VWS V15.00,2013-06-04 07:00:00,
2013-06-04 03:01:00,53.7,43.0,29.61,SE,128,0.0,0.0,67,0.00,,CLR,0.00,VWS V14.01,2013-06-04 07:01:00,
2013-06-04 03:02:00,53.5,43.6,29.61,SE,128,0.0,0.0,69,0.00,,CLR,0.00,VWS V15.00,2013-06-04 07:02:00,
2013-06-04 03:03:00,53.5,42.8,29.61,SE,128,0.0,0.0,67,0.00,,CLR,0.00,VWS V15.00,2013-06-04 07:03:00,
2013-06-04 03:04:00,53.4,43.1,29.61,SE,128,0.0,0.0,68,0.00,,CLR,0.00,VWS V15.00,2013-06-04 07:04:00,
2013-06-04 03:05:00,53.3,43.0,29.62,SE,128,0.0,0.0,68,0.00,,CLR,0.00,VWS V15.00,2013-06-04 07:05:00,
2013-06-04 03:06:00,53.5,42.8,29.61,SE,128,0.0,0.0,67,0.00,,CLR,0.00,VWS V14.01,2013-06-04 07:06:00,
2013-06-04 03:07:00,53.2,42.9,29.62,SE,128,0.0,3.0,68,0.00,,CLR,0.00,VWS V15.00,2013-06-04 07:07:00,
2013-06-04 03:08:00,53.2,42.9,29.62,SE,128,0.0,0.0,68,0.00,,CLR,0.00,VWS V15.00,2013-06-04 07:08:00,
2013-06-04 03:09:00,53.1,43.2,29.62,SSE,152,1.0,2.0,69,0.00,,CLR,0.00,VWS V15.00,2013-06-04 07:09:00,
2013-06-04 03:10:00,53.0,42.3,29.62,SSE,155,0.0,1.0,67,0.00,,CLR,0.00,VWS V15.00,2013-06-04 07:10:00,
2013-06-04 03:11:00,53.2,42.9,29.62,SE,128,0.0,0.0,68,0.00,,CLR,0.00,VWS V14.01,2013-06-04 07:11:00,
2013-06-04 03:12:00,52.9,42.6,29.62,SSE,155,0.0,0.0,68,0.00,,CLR,0.00,VWS V15.00,2013-06-04 07:12:00,
2013-06-04 03:13:00,52.9,43.0,29.62,SSE,155,0.0,0.0,69,0.00,,CLR,0.00,VWS V15.00,2013-06-04 07:13:00,
2013-06-04 03:14:00,52.9,43.0,29.62,SSE,154,0.0,0.0,69,0.00,,CLR,0.00,VWS V15.00,2013-06-04 07:14:00,
2013-06-04 03:15:00,52.8,42.5,29.62,SSE,154,0.0,1.0,68,0.00,,CLR,0.00,VWS V15.00,2013-06-04 07:15:00,
2013-06-04 03:16:00,52.9,43.0,29.62,SSE,155,0.0,0.0,69,0.00,,CLR,0.00,VWS V14.01,2013-06-04 07:16:00,
2013-06-04 03:17:00,52.8,42.5,29.62,SSE,154,0.0,0.0,68,0.00,,CLR,0.00,VWS V15.00,2013-06-04 07:17:00,
2013-06-04 03:18:00,52.8,42.5,29.62,SSE,154,0.0,0.0,68,0.00,,CLR,0.00,VWS V15.00,2013-06-04 07:18:00,
2013-06-04 03:19:00,52.7,42.5,29.62,SSE,154,0.0,0.0,68,0.00,,CLR,0.00,VWS V15.00,2013-06-04 07:19:00,
2013-06-04 03:20:00,52.7,42.8,29.62,SSE,154,0.0,0.0,69,0.00,,CLR,0.00,VWS V15.00,2013-06-04 07:20:00,
2013-06-04 03:21:00,52.8,42.5,29.62,SSE,154,0.0,0.0,68,0.00,,CLR,0.00,VWS V14.01,2013-06-04 07:21:00,
2013-06-04 03:22:00,52.7,43.9,29.61,SSE,154,0.0,0.0,72,0.00,,CLR,0.00,VWS V15.00,2013-06-04 07:22:00,
2013-06-04 03:23:00,52.6,43.5,29.61,SSE,154,0.0,0.0,71,0.00,,CLR,0.00,VWS V15.00,2013-06-04 07:23:00,
2013-06-04 03:24:00,52.6,43.5,29.61,SSE,154,0.0,0.0,71,0.00,,CLR,0.00,VWS V15.00,2013-06-04 07:24:00,
2013-06-04 03:25:00,52.5,43.4,29.61,SSE,154,0.0,0.0,71,0.00,,CLR,0.00,VWS V15.00,2013-06-04 07:25:00,
2013-06-04 03:26:00,52.6,43.5,29.61,SSE,154,0.0,0.0,71,0.00,,CLR,0.00,VWS V14.01,2013-06-04 07:26:00,
2013-06-04 03:27:00,52.5,43.4,29.61,SSE,154,0.0,0.0,71,0.00,,CLR,0.00,VWS V15.00,2013-06-04 07:27:00,
2013-06-04 03:28:00,52.4,42.5,29.61,SSE,154,0.0,0.0,69,0.00,,CLR,0.00,VWS V15.00,2013-06-04 07:28:00,
2013-06-04 03:29:00,52.4,43.7,29.61,SSE,154,0.0,0.0,72,0.00,,CLR,0.00,VWS V15.00,2013-06-04 07:29:00,
2013-06-04 03:30:00,52.4,43.7,29.61,SSE,154,0.0,0.0,72,0.00,,CLR,0.00,VWS V15.00,2013-06-04 07:30:00,
2013-06-04 03:31:00,52.4,42.5,29.61,SSE,154,0.0,0.0,69,0.00,,CLR,0.00,VWS V14.01,2013-06-04 07:31:00,
2013-06-04 03:32:00,52.3,43.5,29.61,SE,144,0.0,1.0,72,0.00,,CLR,0.00,VWS V15.00,2013-06-04 07:32:00,
2013-06-04 03:33:00,52.3,43.9,29.61,SE,144,0.0,0.0,73,0.00,,CLR,0.00,VWS V15.00,2013-06-04 07:33:00,
2013-06-04 03:34:00,52.2,43.5,29.61,SE,144,0.0,0.0,72,0.00,,CLR,0.00,VWS V15.00,2013-06-04 07:34:00,
2013-06-04 03:35:00,52.2,43.5,29.61,SE,144,0.0,0.0,72,0.00,,CLR,0.00,VWS V15.00,2013-06-04 07:35:00,
2013-06-04 03:36:00,52.3,43.9,29.61,SE,144,0.0,0.0,73,0.00,,CLR,0.00,VWS V14.01,2013-06-04 07:36:00,
2013-06-04 03:37:00,52.1,43.0,29.61,SE,144,0.0,0.0,71,0.00,,CLR,0.00,VWS V15.00,2013-06-04 07:37:00,
2013-06-04 03:38:00,52.1,43.4,29.61,SE,144,0.0,0.0,72,0.00,,CLR,0.00,VWS V15.00,2013-06-04 07:38:00,
2013-06-04 03:39:00,52.1,44.1,29.61,SE,144,0.0,0.0,74,0.00,,CLR,0.00,VWS V15.00,2013-06-04 07:39:00,
2013-06-04 03:40:00,52.1,44.1,29.61,SE,144,0.0,0.0,74,0.00,,CLR,0.00,VWS V15.00,2013-06-04 07:40:00,
2013-06-04 03:41:00,52.1,43.4,29.61,SE,144,0.0,0.0,72,0.00,,CLR,0.00,VWS V14.01,2013-06-04 07:41:00,
2013-06-04 03:42:00,52.0,44.0,29.61,SE,144,0.0,0.0,74,0.00,,CLR,0.00,VWS V15.00,2013-06-04 07:42:00,
2013-06-04 03:43:00,51.9,43.5,29.61,SE,144,0.0,0.0,73,0.00,,CLR,0.00,VWS V15.00,2013-06-04 07:43:00,
2013-06-04 03:44:00,51.9,43.5,29.61,SE,144,0.0,0.0,73,0.00,,CLR,0.00,VWS V15.00,2013-06-04 07:44:00,
2013-06-04 03:45:00,51.9,43.9,29.61,SE,144,0.0,0.0,74,0.00,,CLR,0.00,VWS V15.00,2013-06-04 07:45:00,
2013-06-04 03:46:00,51.9,43.5,29.61,SE,144,0.0,0.0,73,0.00,,CLR,0.00,VWS V14.01,2013-06-04 07:46:00,
2013-06-04 03:47:00,51.9,43.9,29.61,ESE,120,0.0,2.0,74,0.00,,CLR,0.00,VWS V15.00,2013-06-04 07:47:00,
2013-06-04 03:48:00,51.8,43.4,29.61,ESE,120,0.0,0.0,73,0.00,,CLR,0.00,VWS V15.00,2013-06-04 07:48:00,
2013-06-04 03:49:00,51.8,43.4,29.61,ESE,120,0.0,0.0,73,0.00,,CLR,0.00,VWS V15.00,2013-06-04 07:49:00,
2013-06-04 03:50:00,51.8,44.5,29.61,ESE,120,0.0,0.0,76,0.00,,CLR,0.00,VWS V15.00,2013-06-04 07:50:00,
2013-06-04 03:51:00,51.8,43.4,29.61,ESE,120,0.0,0.0,73,0.00,,CLR,0.00,VWS V14.01,2013-06-04 07:51:00,
2013-06-04 03:52:00,51.7,44.4,29.61,ESE,120,0.0,0.0,76,0.00,,CLR,0.00,VWS V15.00,2013-06-04 07:52:00,
2013-06-04 03:53:00,51.7,44.0,29.61,ESE,120,0.0,0.0,75,0.00,,CLR,0.00,VWS V15.00,2013-06-04 07:53:00,
2013-06-04 03:54:00,51.7,44.0,29.61,ESE,120,0.0,0.0,75,0.00,,CLR,0.00,VWS V15.00,2013-06-04 07:54:00,
2013-06-04 03:55:00,51.6,43.6,29.61,ESE,120,0.0,0.0,74,0.00,,CLR,0.00,VWS V15.00,2013-06-04 07:55:00,
2013-06-04 03:56:00,51.7,44.0,29.61,ESE,120,0.0,0.0,75,0.00,,CLR,0.00,VWS V14.01,2013-06-04 07:56:00,
2013-06-04 03:57:00,51.5,43.1,29.61,ESE,120,0.0,0.0,73,0.00,,CLR,0.00,VWS V15.00,2013-06-04 07:57:00,
2013-06-04 03:58:00,51.5,42.0,29.61,ESE,120,0.0,1.0,70,0.00,,CLR,0.00,VWS V15.00,2013-06-04 07:58:00,
2013-06-04 03:59:00,51.4,42.3,29.61,ESE,120,0.0,0.0,71,0.00,,CLR,0.00,VWS V15.00,2013-06-04 07:59:00,
2013-06-04 04:00:00,51.4,42.7,29.61,ESE,120,0.0,0.0,72,0.00,,CLR,0.00,VWS V15.00,2013-06-04 08:00:00,
2013-06-04 04:01:00,51.4,42.0,29.61,ESE,120,0.0,0.0,70,0.00,,CLR,0.00,VWS V14.01,2013-06-04 08:01:00,
2013-06-04 04:02:00,51.3,43.0,29.61,ESE,120,0.0,0.0,73,0.00,,CLR,0.00,VWS V15.00,2013-06-04 08:02:00,
2013-06-04 04:03:00,51.3,43.0,29.61,ESE,120,0.0,0.0,73,0.00,,CLR,0.00,VWS V15.00,2013-06-04 08:03:00,
2013-06-04 04:04:00,51.3,43.3,29.61,ESE,120,0.0,0.0,74,0.00,,CLR,0.00,VWS V15.00,2013-06-04 08:04:00,
2013-06-04 04:05:00,51.2,43.6,29.61,ESE,120,0.0,0.0,75,0.00,,CLR,0.00,VWS V15.00,2013-06-04 08:05:00,
2013-06-04 04:06:00,51.3,43.0,29.62,ESE,120,0.0,0.0,73,0.00,,CLR,0.00,VWS V14.01,2013-06-04 08:06:00,
2013-06-04 04:07:00,51.2,43.6,29.61,ESE,120,0.0,0.0,75,0.00,,CLR,0.00,VWS V15.00,2013-06-04 08:07:00,
2013-06-04 04:08:00,51.2,43.2,29.61,ESE,120,0.0,0.0,74,0.00,,CLR,0.00,VWS V15.00,2013-06-04 08:08:00,
2013-06-04 04:09:00,51.1,43.1,29.61,ESE,120,0.0,0.0,74,0.00,,CLR,0.00,VWS V15.00,2013-06-04 08:09:00,
2013-06-04 04:10:00,51.1,43.1,29.62,ESE,122,0.0,0.0,74,0.00,,CLR,0.00,VWS V15.00,2013-06-04 08:10:00,
2013-06-04 04:11:00,51.2,43.2,29.62,ESE,120,0.0,0.0,74,0.00,,CLR,0.00,VWS V14.01,2013-06-04 08:11:00,
2013-06-04 04:12:00,51.0,43.0,29.62,ESE,122,0.0,0.0,74,0.00,,CLR,0.00,VWS V15.00,2013-06-04 08:12:00,
2013-06-04 04:13:00,50.9,42.9,29.62,ESE,122,0.0,0.0,74,0.00,,CLR,0.00,VWS V15.00,2013-06-04 08:13:00,
2013-06-04 04:14:00,50.9,42.2,29.62,SE,128,1.0,3.0,72,0.00,,CLR,0.00,VWS V15.00,2013-06-04 08:14:00,
2013-06-04 04:15:00,50.9,41.8,29.61,SE,128,0.0,1.0,71,0.00,,CLR,0.00,VWS V15.00,2013-06-04 08:15:00,
2013-06-04 04:16:00,50.9,42.9,29.62,ESE,122,0.0,0.0,74,0.00,,CLR,0.00,VWS V14.01,2013-06-04 08:16:00,
2013-06-04 04:17:00,50.9,42.6,29.62,SE,135,0.0,0.0,73,0.00,,CLR,0.00,VWS V15.00,2013-06-04 08:17:00,
2013-06-04 04:18:00,50.9,42.9,29.62,SE,135,0.0,0.0,74,0.00,,CLR,0.00,VWS V15.00,2013-06-04 08:18:00,
2013-06-04 04:19:00,50.9,43.6,29.62,SE,143,0.0,1.0,76,0.00,,CLR,0.00,VWS V15.00,2013-06-04 08:19:00,
2013-06-04 04:20:00,50.9,42.9,29.62,SE,143,0.0,0.0,74,0.00,,CLR,0.00,VWS V15.00,2013-06-04 08:20:00,
2013-06-04 04:21:00,50.9,43.3,29.62,SE,135,0.0,0.0,75,0.00,,CLR,0.00,VWS V14.01,2013-06-04 08:21:00,
2013-06-04 04:22:00,50.9,42.6,29.62,SSE,158,4.0,4.0,73,0.00,,CLR,0.00,VWS V15.00,2013-06-04 08:22:00,
2013-06-04 04:23:00,50.9,41.8,29.62,SSE,154,0.0,4.0,71,0.00,,CLR,0.00,VWS V15.00,2013-06-04 08:23:00,
2013-06-04 04:24:00,50.9,41.8,29.62,SSE,154,0.0,0.0,71,0.00,,CLR,0.00,VWS V15.00,2013-06-04 08:24:00,
2013-06-04 04:25:00,51.0,43.4,29.62,SSE,154,0.0,0.0,75,0.00,,CLR,0.00,VWS V15.00,2013-06-04 08:25:00,
2013-06-04 04:26:00,50.9,41.8,29.62,SSE,154,0.0,0.0,71,0.00,,CLR,0.00,VWS V14.01,2013-06-04 08:26:00,
2013-06-04 04:27:00,51.0,43.7,29.62,SSE,154,0.0,0.0,76,0.00,,CLR,0.00,VWS V15.00,2013-06-04 08:27:00,
2013-06-04 04:28:00,50.9,43.6,29.62,NE,56,0.0,2.0,76,0.00,,CLR,0.00,VWS V15.00,2013-06-04 08:28:00,
2013-06-04 04:29:00,50.9,41.8,29.62,ENE,58,0.0,0.0,71,0.00,,CLR,0.00,VWS V15.00,2013-06-04 08:29:00,
2013-06-04 04:30:00,51.0,41.9,29.62,ESE,110,2.0,3.0,71,0.00,,CLR,0.00,VWS V15.00,2013-06-04 08:30:00,
2013-06-04 04:31:00,50.9,43.6,29.62,ENE,58,0.0,0.0,76,0.00,,CLR,0.00,VWS V14.01,2013-06-04 08:31:00,
2013-06-04 04:32:00,51.0,41.2,29.62,ESE,113,0.0,0.0,69,0.00,,CLR,0.00,VWS V15.00,2013-06-04 08:32:00,
2013-06-04 04:33:00,51.0,42.3,29.62,ESE,113,0.0,0.0,72,0.00,,CLR,0.00,VWS V15.00,2013-06-04 08:33:00,
2013-06-04 04:34:00,51.0,43.0,29.62,ESE,113,0.0,0.0,74,0.00,,CLR,0.00,VWS V15.00,2013-06-04 08:34:00,
2013-06-04 04:35:00,51.0,43.0,29.62,ESE,113,0.0,0.0,74,0.00,,CLR,0.00,VWS V15.00,2013-06-04 08:35:00,
2013-06-04 04:36:00,51.0,42.3,29.62,ESE,113,0.0,0.0,72,0.00,,CLR,0.00,VWS V14.01,2013-06-04 08:36:00,
2013-06-04 04:37:00,51.1,43.5,29.62,ESE,113,0.0,0.0,75,0.00,,CLR,0.00,VWS V15.00,2013-06-04 08:37:00,
2013-06-04 04:38:00,51.0,43.0,29.62,ESE,113,0.0,0.0,74,0.00,,CLR,0.00,VWS V15.00,2013-06-04 08:38:00,
2013-06-04 04:39:00,51.0,43.0,29.62,ESE,113,0.0,0.0,74,0.00,,CLR,0.00,VWS V15.00,2013-06-04 08:39:00,
2013-06-04 04:40:00,51.0,43.0,29.62,ESE,113,0.0,0.0,74,0.00,,CLR,0.00,VWS V15.00,2013-06-04 08:40:00,
2013-06-04 04:41:00,51.0,43.0,29.62,ESE,113,0.0,0.0,74,0.00,,CLR,0.00,VWS V14.01,2013-06-04 08:41:00,
2013-06-04 04:42:00,51.0,42.7,29.62,ESE,113,0.0,0.0,73,0.00,,CLR,0.00,VWS V15.00,2013-06-04 08:42:00,
2013-06-04 04:43:00,51.0,43.0,29.62,ESE,113,0.0,0.0,74,0.00,,CLR,0.00,VWS V15.00,2013-06-04 08:43:00,
2013-06-04 04:44:00,51.0,42.3,29.62,ESE,113,0.0,0.0,72,0.00,,CLR,0.00,VWS V15.00,2013-06-04 08:44:00,
2013-06-04 04:45:00,50.9,42.6,29.62,ESE,113,0.0,0.0,73,0.00,,CLR,0.00,VWS V15.00,2013-06-04 08:45:00,
2013-06-04 04:46:00,51.0,43.0,29.62,ESE,113,0.0,0.0,74,0.00,,CLR,0.00,VWS V14.01,2013-06-04 08:46:00,
2013-06-04 04:47:00,50.9,42.6,29.63,ESE,113,0.0,0.0,73,0.00,,CLR,0.00,VWS V15.00,2013-06-04 08:47:00,
2013-06-04 04:48:00,50.8,42.1,29.63,ESE,115,1.0,1.0,72,0.00,,CLR,0.00,VWS V15.00,2013-06-04 08:48:00,
2013-06-04 04:49:00,50.8,41.4,29.63,ESE,115,0.0,1.0,70,0.00,,CLR,0.00,VWS V15.00,2013-06-04 08:49:00,
2013-06-04 04:50:00,50.9,42.6,29.63,ESE,115,0.0,0.0,73,0.00,,CLR,0.00,VWS V15.00,2013-06-04 08:50:00,
2013-06-04 04:51:00,50.8,42.1,29.62,ESE,115,1.0,1.0,72,0.00,,CLR,0.00,VWS V14.01,2013-06-04 08:51:00,
2013-06-04 04:52:00,50.8,42.5,29.63,ESE,115,0.0,0.0,73,0.00,,CLR,0.00,VWS V15.00,2013-06-04 08:52:00,
2013-06-04 04:53:00,50.8,42.8,29.63,ESE,115,0.0,0.0,74,0.00,,CLR,0.00,VWS V15.00,2013-06-04 08:53:00,
2013-06-04 04:54:00,50.8,42.5,29.63,ESE,115,0.0,0.0,73,0.00,,CLR,0.00,VWS V15.00,2013-06-04 08:54:00,
2013-06-04 04:55:00,50.8,42.8,29.63,ESE,115,0.0,0.0,74,0.00,,CLR,0.00,VWS V15.00,2013-06-04 08:55:00,
2013-06-04 04:56:00,50.8,42.8,29.62,ESE,115,0.0,0.0,74,0.00,,CLR,0.00,VWS V14.01,2013-06-04 08:56:00,
2013-06-04 04:57:00,50.7,43.1,29.63,ESE,115,0.0,0.0,75,0.00,,CLR,0.00,VWS V15.00,2013-06-04 08:57:00,
2013-06-04 04:58:00,50.7,43.1,29.63,ESE,115,0.0,1.0,75,0.00,,CLR,0.00,VWS V15.00,2013-06-04 08:58:00,
2013-06-04 04:59:00,50.6,43.0,29.63,ESE,115,0.0,0.0,75,0.00,,CLR,0.00,VWS V15.00,2013-06-04 08:59:00,
2013-06-04 05:00:00,50.6,42.6,29.63,ESE,115,0.0,0.0,74,0.00,,CLR,0.00,VWS V15.00,2013-06-04 09:00:00,
2013-06-04 05:01:00,50.7,43.1,29.63,ESE,115,0.0,0.0,75,0.00,,CLR,0.00,VWS V14.01,2013-06-04 09:01:00,
2013-06-04 05:02:00,50.6,43.0,29.63,ESE,115,0.0,0.0,75,0.00,,CLR,0.00,VWS V15.00,2013-06-04 09:02:00,
2013-06-04 05:03:00,50.5,42.9,29.63,ESE,115,0.0,0.0,75,0.00,,CLR,0.00,VWS V15.00,2013-06-04 09:03:00,
2013-06-04 05:04:00,50.5,42.9,29.63,ESE,115,0.0,0.0,75,0.00,,CLR,0.00,VWS V15.00,2013-06-04 09:04:00,
2013-06-04 05:05:00,50.5,42.9,29.63,ESE,115,0.0,0.0,75,0.00,,CLR,0.00,VWS V15.00,2013-06-04 09:05:00,
2013-06-04 05:06:00,50.5,42.9,29.63,ESE,115,0.0,0.0,75,0.00,,CLR,0.00,VWS V14.01,2013-06-04 09:06:00,
2013-06-04 05:07:00,50.4,42.4,29.63,ESE,115,0.0,0.0,74,0.00,,CLR,0.00,VWS V15.00,2013-06-04 09:07:00,
2013-06-04 05:08:00,50.4,42.1,29.63,ESE,123,1.0,4.0,73,0.00,,CLR,0.00,VWS V15.00,2013-06-04 09:08:00,
2013-06-04 05:09:00,50.4,41.7,29.63,ESE,123,0.0,1.0,72,0.00,,CLR,0.00,VWS V15.00,2013-06-04 09:09:00,
2013-06-04 05:10:00,50.4,42.1,29.63,ESE,123,0.0,0.0,73,0.00,,CLR,0.00,VWS V15.00,2013-06-04 09:10:00,
2013-06-04 05:11:00,50.4,42.1,29.63,ESE,123,0.0,1.0,73,0.00,,CLR,0.00,VWS V14.01,2013-06-04 09:11:00,
2013-06-04 05:12:00,50.4,42.4,29.63,ESE,123,0.0,0.0,74,0.00,,CLR,0.00,VWS V15.00,2013-06-04 09:12:00,
2013-06-04 05:13:00,50.3,42.3,29.63,ESE,123,0.0,0.0,74,0.00,,CLR,0.00,VWS V15.00,2013-06-04 09:13:00,
2013-06-04 05:14:00,50.3,42.7,29.63,ESE,123,0.0,0.0,75,0.00,,CLR,0.00,VWS V15.00,2013-06-04 09:14:00,
2013-06-04 05:15:00,50.3,42.3,29.63,ESE,123,0.0,0.0,74,0.00,,CLR,0.00,VWS V15.00,2013-06-04 09:15:00,
2013-06-04 05:16:00,50.3,42.3,29.63,ESE,123,0.0,0.0,74,0.00,,CLR,0.00,VWS V14.01,2013-06-04 09:16:00,
2013-06-04 05:18:00,50.2,41.9,29.63,SE,139,0.0,3.0,73,0.00,,CLR,0.00,VWS V15.00,2013-06-04 09:18:00,
2013-06-04 05:19:00,50.2,42.2,29.63,SE,138,0.0,3.0,74,0.00,,CLR,0.00,VWS V15.00,2013-06-04 09:19:00,
2013-06-04 05:20:00,50.2,41.5,29.63,SE,138,0.0,0.0,72,0.00,,CLR,0.00,VWS V15.00,2013-06-04 09:20:00,
2013-06-04 05:21:00,50.2,41.9,29.64,SE,139,0.0,0.0,73,0.00,,CLR,0.00,VWS V14.01,2013-06-04 09:21:00,
2013-06-04 05:22:00,50.2,42.6,29.63,SE,138,0.0,0.0,75,0.00,,CLR,0.00,VWS V15.00,2013-06-04 09:22:00,
2013-06-04 05:23:00,50.2,42.9,29.63,SE,138,0.0,0.0,76,0.00,,CLR,0.00,VWS V15.00,2013-06-04 09:23:00,
2013-06-04 05:24:00,50.2,42.6,29.63,SE,138,0.0,0.0,75,0.00,,CLR,0.00,VWS V15.00,2013-06-04 09:24:00,
2013-06-04 05:25:00,50.2,42.9,29.63,SE,138,0.0,0.0,76,0.00,,CLR,0.00,VWS V15.00,2013-06-04 09:25:00,
2013-06-04 05:26:00,50.2,42.9,29.63,SE,138,0.0,0.0,76,0.00,,CLR,0.00,VWS V14.01,2013-06-04 09:26:00,
2013-06-04 05:27:00,50.3,42.7,29.64,SE,138,0.0,0.0,75,0.00,,CLR,0.00,VWS V15.00,2013-06-04 09:27:00,
2013-06-04 05:28:00,50.2,42.2,29.64,SE,140,0.0,1.0,74,0.00,,CLR,0.00,VWS V15.00,2013-06-04 09:28:00,
2013-06-04 05:29:00,50.3,42.0,29.64,SE,140,1.0,1.0,73,0.00,,CLR,0.00,VWS V15.00,2013-06-04 09:29:00,
2013-06-04 05:30:00,50.3,41.6,29.63,East,100,0.0,3.0,72,0.00,,CLR,0.00,VWS V15.00,2013-06-04 09:30:00,
2013-06-04 05:31:00,50.4,42.1,29.63,East,100,0.0,0.0,73,0.00,,CLR,0.00,VWS V15.00,2013-06-04 09:31:00,
2013-06-04 05:32:00,50.3,42.0,29.64,SE,140,0.0,0.0,73,0.00,,CLR,0.00,VWS V14.01,2013-06-04 09:32:00,
2013-06-04 05:33:00,50.4,42.8,29.63,East,100,0.0,0.0,75,0.00,,CLR,0.00,VWS V15.00,2013-06-04 09:33:00,
2013-06-04 05:34:00,50.4,42.8,29.63,ESE,110,2.0,7.0,75,0.00,,CLR,0.00,VWS V15.00,2013-06-04 09:34:00,
2013-06-04 05:35:00,50.4,42.1,29.63,ESE,110,0.0,2.0,73,0.00,,CLR,0.00,VWS V15.00,2013-06-04 09:35:00,
2013-06-04 05:37:00,50.4,42.8,29.63,East,100,0.0,0.0,75,0.00,,CLR,0.00,VWS V14.01,2013-06-04 09:37:00,
2013-06-04 05:38:00,50.5,42.5,29.63,ESE,110,0.0,0.0,74,0.00,,CLR,0.00,VWS V15.00,2013-06-04 09:38:00,
2013-06-04 05:40:00,50.5,42.2,29.63,ESE,113,0.0,2.0,73,0.00,,CLR,0.00,VWS V15.00,2013-06-04 09:40:00,
2013-06-04 05:41:00,50.5,42.2,29.63,ESE,113,0.0,1.0,73,0.00,,CLR,0.00,VWS V15.00,2013-06-04 09:41:00,
2013-06-04 05:42:00,50.5,42.5,29.64,ESE,110,0.0,0.0,74,0.00,,CLR,0.00,VWS V14.01,2013-06-04 09:42:00,
2013-06-04 05:43:00,50.6,43.0,29.63,ESE,113,0.0,0.0,75,0.00,,CLR,0.00,VWS V15.00,2013-06-04 09:43:00,
2013-06-04 05:44:00,50.7,43.4,29.63,ESE,113,0.0,1.0,76,0.00,,CLR,0.00,VWS V15.00,2013-06-04 09:44:00,
2013-06-04 05:45:00,50.7,42.4,29.63,ESE,113,0.0,0.0,73,0.00,,CLR,0.00,VWS V15.00,2013-06-04 09:45:00,
2013-06-04 05:46:00,50.8,42.5,29.63,ESE,113,0.0,0.0,73,0.00,,CLR,0.00,VWS V15.00,2013-06-04 09:46:00,
2013-06-04 05:47:00,50.7,43.1,29.63,ESE,113,0.0,0.0,75,0.00,,CLR,0.00,VWS V14.01,2013-06-04 09:47:00,
2013-06-04 05:48:00,50.8,42.5,29.63,SE,140,0.0,1.0,73,0.00,,CLR,0.00,VWS V15.00,2013-06-04 09:48:00,
2013-06-04 05:49:00,50.9,42.2,29.63,SE,140,0.0,0.0,72,0.00,,CLR,0.00,VWS V15.00,2013-06-04 09:49:00,
2013-06-04 05:50:00,50.9,43.3,29.63,SE,140,0.0,0.0,75,0.00,,CLR,0.00,VWS V15.00,2013-06-04 09:50:00,
2013-06-04 05:51:00,51.0,43.7,29.63,SE,140,0.0,0.0,76,0.00,,CLR,0.00,VWS V15.00,2013-06-04 09:51:00,
2013-06-04 05:52:00,50.8,42.5,29.63,SE,140,0.0,0.0,73,0.00,,CLR,0.00,VWS V14.01,2013-06-04 09:52:00,
2013-06-04 05:54:00,51.0,42.3,29.64,SE,139,0.0,2.0,72,0.00,,CLR,0.00,VWS V15.00,2013-06-04 09:54:00,
2013-06-04 05:55:00,51.0,43.4,29.64,SE,139,0.0,0.0,75,0.00,,CLR,0.00,VWS V15.00,2013-06-04 09:55:00,
2013-06-04 05:56:00,51.1,43.1,29.64,SE,129,2.0,3.0,74,0.00,,CLR,0.00,VWS V15.00,2013-06-04 09:56:00,
2013-06-04 05:57:00,51.0,43.0,29.64,SE,139,0.0,2.0,74,0.00,,CLR,0.00,VWS V14.01,2013-06-04 09:57:00,
2013-06-04 05:58:00,51.1,42.4,29.64,SE,132,0.0,0.0,72,0.00,,CLR,0.00,VWS V15.00,2013-06-04 09:58:00,
2013-06-04 05:59:00,51.2,42.5,29.64,SE,132,0.0,0.0,72,0.00,,CLR,0.00,VWS V15.00,2013-06-04 09:59:00,
2013-06-04 06:00:00,51.2,42.1,29.64,East,98,11.0,11.0,71,0.00,,CLR,0.00,VWS V15.00,2013-06-04 10:00:00,
2013-06-04 06:01:00,51.4,42.0,29.64,ESE,108,1.0,11.0,70,0.00,,CLR,0.00,VWS V15.00,2013-06-04 10:01:00,
2013-06-04 06:02:00,51.2,42.5,29.64,SE,132,0.0,0.0,72,0.00,,CLR,0.00,VWS V14.01,2013-06-04 10:02:00,
2013-06-04 06:05:00,51.7,43.3,29.64,SE,130,0.0,0.0,73,0.00,,CLR,0.00,VWS V15.00,2013-06-04 10:05:00,
2013-06-04 06:06:00,51.8,42.7,29.64,ESE,105,0.0,5.0,71,0.00,,CLR,0.00,VWS V15.00,2013-06-04 10:06:00,
2013-06-04 06:07:00,51.5,43.1,29.64,SE,128,2.0,2.0,73,0.00,,CLR,0.00,VWS V14.01,2013-06-04 10:07:00,
2013-06-04 06:08:00,51.9,43.2,29.64,ESE,107,0.0,0.0,72,0.00,,CLR,0.00,VWS V15.00,2013-06-04 10:08:00,
2013-06-04 06:09:00,52.0,44.0,29.64,ESE,107,0.0,1.0,74,0.00,,CLR,0.00,VWS V15.00,2013-06-04 10:09:00,
2013-06-04 06:10:00,52.0,42.5,29.64,SE,135,5.0,5.0,70,0.00,,CLR,0.00,VWS V15.00,2013-06-04 10:10:00,
2013-06-04 06:11:00,52.1,42.6,29.64,SE,125,0.0,5.0,70,0.00,,CLR,0.00,VWS V15.00,2013-06-04 10:11:00,
2013-06-04 06:12:00,52.0,43.3,29.64,ESE,107,0.0,0.0,72,0.00,,CLR,0.00,VWS V14.01,2013-06-04 10:12:00,
2013-06-04 06:13:00,52.2,42.3,29.64,SE,126,0.0,2.0,69,0.00,,CLR,0.00,VWS V15.00,2013-06-04 10:13:00,
2013-06-04 06:14:00,52.3,42.5,29.64,SE,126,0.0,0.0,69,0.00,,CLR,0.00,VWS V15.00,2013-06-04 10:14:00,
2013-06-04 06:15:00,52.3,42.8,29.64,SE,128,0.0,2.0,70,0.00,,CLR,0.00,VWS V15.00,2013-06-04 10:15:00,
2013-06-04 06:16:00,52.4,42.2,29.64,SE,130,0.0,1.0,68,0.00,,CLR,0.00,VWS V15.00,2013-06-04 10:16:00,
2013-06-04 06:17:00,52.3,42.5,29.64,SE,126,0.0,0.0,69,0.00,,CLR,0.00,VWS V14.01,2013-06-04 10:17:00,
2013-06-04 06:18:00,52.5,42.3,29.64,SE,131,0.0,1.0,68,0.00,,CLR,0.00,VWS V15.00,2013-06-04 10:18:00,
2013-06-04 06:19:00,52.5,42.3,29.64,SE,127,0.0,0.0,68,0.00,,CLR,0.00,VWS V15.00,2013-06-04 10:19:00,
2013-06-04 06:20:00,52.5,42.3,29.64,SE,127,0.0,0.0,68,0.00,,CLR,0.00,VWS V15.00,2013-06-04 10:20:00,
2013-06-04 06:21:00,52.6,42.7,29.64,SE,127,0.0,0.0,69,0.00,,CLR,0.00,VWS V15.00,2013-06-04 10:21:00,
2013-06-04 06:22:00,52.5,42.3,29.64,SE,131,0.0,0.0,68,0.00,,CLR,0.00,VWS V14.01,2013-06-04 10:22:00,
2013-06-04 06:23:00,52.6,43.1,29.65,SE,127,0.0,0.0,70,0.00,,CLR,0.00,VWS V15.00,2013-06-04 10:23:00,
2013-06-04 06:24:00,52.7,42.5,29.65,SE,127,0.0,0.0,68,0.00,,CLR,0.00,VWS V15.00,2013-06-04 10:24:00,
2013-06-04 06:25:00,52.7,43.6,29.65,SE,127,0.0,0.0,71,0.00,,CLR,0.00,VWS V15.00,2013-06-04 10:25:00,
2013-06-04 06:26:00,52.7,43.9,29.65,SE,127,0.0,1.0,72,0.00,,CLR,0.00,VWS V15.00,2013-06-04 10:26:00,
2013-06-04 06:27:00,52.6,43.1,29.65,SE,127,0.0,0.0,70,0.00,,CLR,0.00,VWS V14.01,2013-06-04 10:27:00,
2013-06-04 06:28:00,52.8,43.3,29.65,SSE,152,2.0,3.0,70,0.00,,CLR,0.00,VWS V15.00,2013-06-04 10:28:00,
2013-06-04 06:29:00,52.8,42.5,29.65,SSE,153,0.0,2.0,68,0.00,,CLR,0.00,VWS V15.00,2013-06-04 10:29:00,
2013-06-04 06:30:00,52.8,42.5,29.65,ESE,122,5.0,6.0,68,0.00,,CLR,0.00,VWS V15.00,2013-06-04 10:30:00,
2013-06-04 06:31:00,52.9,42.3,29.65,SSE,157,0.0,5.0,67,0.00,,CLR,0.00,VWS V15.00,2013-06-04 10:31:00,
2013-06-04 06:32:00,52.8,43.3,29.65,SSE,153,0.0,2.0,70,0.00,,CLR,0.00,VWS V14.01,2013-06-04 10:32:00,
2013-06-04 06:33:00,52.9,43.0,29.65,SSE,157,0.0,0.0,69,0.00,,CLR,0.00,VWS V15.00,2013-06-04 10:33:00,
2013-06-04 06:34:00,52.9,42.6,29.65,SSE,148,0.0,6.0,68,0.00,,CLR,0.00,VWS V15.00,2013-06-04 10:34:00,
2013-06-04 06:35:00,53.0,42.7,29.65,SE,145,0.0,3.0,68,0.00,,CLR,0.00,VWS V15.00,2013-06-04 10:35:00,
2013-06-04 06:36:00,53.0,43.5,29.65,SSE,167,0.0,0.0,70,0.00,,CLR,0.00,VWS V15.00,2013-06-04 10:36:00,
2013-06-04 06:37:00,52.9,43.0,29.65,SSE,150,3.0,6.0,69,0.00,,CLR,0.00,VWS V14.01,2013-06-04 10:37:00,
2013-06-04 06:38:00,53.0,42.7,29.65,SSE,148,3.0,3.0,68,0.00,,CLR,0.00,VWS V15.00,2013-06-04 10:38:00,
2013-06-04 06:39:00,53.0,42.7,29.65,SSE,148,0.0,3.0,68,0.00,,CLR,0.00,VWS V15.00,2013-06-04 10:39:00,
2013-06-04 06:40:00,53.0,43.1,29.66,SSE,148,0.0,0.0,69,0.00,,CLR,0.00,VWS V15.00,2013-06-04 10:40:00,
2013-06-04 06:41:00,53.1,42.8,29.66,SSE,148,0.0,2.0,68,0.00,,CLR,0.00,VWS V15.00,2013-06-04 10:41:00,
2013-06-04 06:42:00,53.0,42.7,29.65,SSE,148,0.0,3.0,68,0.00,,CLR,0.00,VWS V14.01,2013-06-04 10:42:00,
2013-06-04 06:43:00,53.1,43.2,29.66,SE,124,0.0,0.0,69,0.00,,CLR,0.00,VWS V15.00,2013-06-04 10:43:00,
2013-06-04 06:44:00,53.1,44.0,29.66,ESE,121,2.0,5.0,71,0.00,,CLR,0.00,VWS V15.00,2013-06-04 10:44:00,
2013-06-04 06:45:00,53.1,43.2,29.66,SSE,167,1.0,2.0,69,0.00,,CLR,0.00,VWS V15.00,2013-06-04 10:45:00,
2013-06-04 06:46:00,53.2,42.9,29.66,SE,135,0.0,2.0,68,0.00,,CLR,0.00,VWS V15.00,2013-06-04 10:46:00,
2013-06-04 06:47:00,53.1,44.0,29.66,SE,124,1.0,1.0,71,0.00,,CLR,0.00,VWS V14.01,2013-06-04 10:47:00,
2013-06-04 06:48:00,53.2,42.9,29.66,SE,144,0.0,4.0,68,0.00,,CLR,0.00,VWS V15.00,2013-06-04 10:48:00,
2013-06-04 06:49:00,53.2,42.9,29.66,SSE,148,0.0,2.0,68,0.00,,CLR,0.00,VWS V15.00,2013-06-04 10:49:00,
2013-06-04 06:50:00,53.3,43.0,29.66,ESE,117,5.0,5.0,68,0.00,,CLR,0.00,VWS V15.00,2013-06-04 10:50:00,
2013-06-04 06:51:00,53.3,42.6,29.66,East,93,0.0,5.0,67,0.00,,CLR,0.00,VWS V15.00,2013-06-04 10:51:00,
2013-06-04 06:52:00,53.2,42.9,29.66,SE,144,0.0,0.0,68,0.00,,CLR,0.00,VWS V14.01,2013-06-04 10:52:00,
2013-06-04 06:53:00,53.4,42.7,29.66,ESE,103,1.0,3.0,67,0.00,,CLR,0.00,VWS V15.00,2013-06-04 10:53:00,
2013-06-04 06:54:00,53.5,43.2,29.66,ESE,105,0.0,1.0,68,0.00,,CLR,0.00,VWS V15.00,2013-06-04 10:54:00,
2013-06-04 06:55:00,53.5,42.8,29.66,ESE,105,0.0,0.0,67,0.00,,CLR,0.00,VWS V15.00,2013-06-04 10:55:00,
2013-06-04 06:56:00,53.6,43.3,29.66,ESE,105,0.0,0.0,68,0.00,,CLR,0.00,VWS V15.00,2013-06-04 10:56:00,
2013-06-04 06:57:00,53.4,42.7,29.66,ESE,103,0.0,1.0,67,0.00,,CLR,0.00,VWS V14.01,2013-06-04 10:57:00,
2013-06-04 06:58:00,53.6,42.9,29.65,SE,146,0.0,2.0,67,0.00,,CLR,0.00,VWS V15.00,2013-06-04 10:58:00,
2013-06-04 06:59:00,53.7,43.4,29.65,SW,225,2.0,2.0,68,0.00,,CLR,0.00,VWS V15.00,2013-06-04 10:59:00,
2013-06-04 07:00:00,53.7,43.0,29.65,SE,136,0.0,2.0,67,0.00,,CLR,0.00,VWS V15.00,2013-06-04 11:00:00,
2013-06-04 07:01:00,53.7,42.6,29.65,SE,136,0.0,1.0,66,0.00,,CLR,0.00,VWS V15.00,2013-06-04 11:01:00,
2013-06-04 07:02:00,53.6,42.9,29.65,SE,146,0.0,0.0,67,0.00,,CLR,0.00,VWS V14.01,2013-06-04 11:02:00,
2013-06-04 07:03:00,53.8,43.1,29.65,SW,221,0.0,2.0,67,0.00,,CLR,0.00,VWS V15.00,2013-06-04 11:03:00,
2013-06-04 07:04:00,53.8,43.1,29.66,SW,221,0.0,0.0,67,0.00,,CLR,0.00,VWS V15.00,2013-06-04 11:04:00,
2013-06-04 07:05:00,53.9,43.2,29.66,ESE,122,1.0,3.0,67,0.00,,CLR,0.00,VWS V15.00,2013-06-04 11:05:00,
2013-06-04 07:06:00,53.9,43.2,29.66,SSE,152,0.0,3.0,67,0.00,,CLR,0.00,VWS V15.00,2013-06-04 11:06:00,
2013-06-04 07:07:00,53.8,43.1,29.66,SW,221,0.0,0.0,67,0.00,,CLR,0.00,VWS V14.01,2013-06-04 11:07:00,
2013-06-04 07:08:00,53.9,43.2,29.66,SSE,152,0.0,0.0,67,0.00,,CLR,0.00,VWS V15.00,2013-06-04 11:08:00,
2013-06-04 07:09:00,53.9,43.6,29.66,SE,134,0.0,2.0,68,0.00,,CLR,0.00,VWS V15.00,2013-06-04 11:09:00,
2013-06-04 07:10:00,53.9,44.0,29.66,SW,225,1.0,2.0,69,0.00,,CLR,0.00,VWS V15.00,2013-06-04 11:10:00,
2013-06-04 07:11:00,54.0,43.3,29.66,SE,126,0.0,5.0,67,0.00,,CLR,0.00,VWS V15.00,2013-06-04 11:11:00,
2013-06-04 07:12:00,53.9,43.2,29.66,SSE,152,0.0,0.0,67,0.00,,CLR,0.00,VWS V14.01,2013-06-04 11:12:00,
2013-06-04 07:13:00,54.0,42.9,29.66,SE,128,0.0,1.0,66,0.00,,CLR,0.00,VWS V15.00,2013-06-04 11:13:00,
2013-06-04 07:14:00,54.0,43.3,29.66,ESE,117,1.0,10.0,67,0.00,,CLR,0.00,VWS V15.00,2013-06-04 11:14:00,
2013-06-04 07:15:00,54.0,42.9,29.66,ESE,117,0.0,1.0,66,0.00,,CLR,0.00,VWS V15.00,2013-06-04 11:15:00,
2013-06-04 07:16:00,54.0,43.3,29.66,ESE,116,0.0,1.0,67,0.00,,CLR,0.00,VWS V15.00,2013-06-04 11:16:00,
2013-06-04 07:17:00,54.0,43.3,29.66,SE,128,0.0,0.0,67,0.00,,CLR,0.00,VWS V14.01,2013-06-04 11:17:00,
2013-06-04 07:18:00,54.1,43.4,29.66,ESE,117,0.0,0.0,67,0.00,,CLR,0.00,VWS V15.00,2013-06-04 11:18:00,
2013-06-04 07:19:00,54.1,43.4,29.66,SW,221,0.0,1.0,67,0.00,,CLR,0.00,VWS V15.00,2013-06-04 11:19:00,
2013-06-04 07:20:00,54.1,43.8,29.66,SSE,161,1.0,1.0,68,0.00,,CLR,0.00,VWS V15.00,2013-06-04 11:20:00,
2013-06-04 07:21:00,54.1,43.4,29.66,SSE,153,0.0,1.0,67,0.00,,CLR,0.00,VWS V15.00,2013-06-04 11:21:00,
2013-06-04 07:22:00,54.1,43.4,29.66,ESE,117,0.0,0.0,67,0.00,,CLR,0.00,VWS V14.01,2013-06-04 11:22:00,
2013-06-04 07:23:00,54.2,43.1,29.66,SSE,153,0.0,0.0,66,0.00,,CLR,0.00,VWS V15.00,2013-06-04 11:23:00,
2013-06-04 07:24:00,54.2,43.1,29.66,SSE,152,0.0,0.0,66,0.00,,CLR,0.00,VWS V15.00,2013-06-04 11:24:00,
2013-06-04 07:25:00,54.3,43.2,29.66,SSE,152,0.0,3.0,66,0.00,,CLR,0.00,VWS V15.00,2013-06-04 11:25:00,
2013-06-04 07:26:00,54.3,43.6,29.66,SSE,152,0.0,0.0,67,0.00,,CLR,0.00,VWS V15.00,2013-06-04 11:26:00,
2013-06-04 07:27:00,54.2,43.1,29.66,SSE,153,0.0,0.0,66,0.00,,CLR,0.00,VWS V14.01,2013-06-04 11:27:00,
2013-06-04 07:28:00,54.4,43.3,29.65,SSE,160,0.0,0.0,66,0.00,,CLR,0.00,VWS V15.00,2013-06-04 11:28:00,
2013-06-04 07:29:00,54.4,43.7,29.65,SSE,160,0.0,0.0,67,0.00,,CLR,0.00,VWS V15.00,2013-06-04 11:29:00,
2013-06-04 07:30:00,54.4,44.1,29.65,SSE,160,0.0,0.0,68,0.00,,CLR,0.00,VWS V15.00,2013-06-04 11:30:00,
2013-06-04 07:31:00,54.5,43.8,29.65,SSE,160,0.0,0.0,67,0.00,,CLR,0.00,VWS V15.00,2013-06-04 11:31:00,
2013-06-04 07:32:00,54.4,43.3,29.65,SSE,160,0.0,0.0,66,0.00,,CLR,0.00,VWS V14.01,2013-06-04 11:32:00,
2013-06-04 07:33:00,54.5,44.2,29.65,SSW,198,0.0,2.0,68,0.00,,CLR,0.00,VWS V15.00,2013-06-04 11:33:00,
2013-06-04 07:34:00,54.5,43.4,29.65,ESE,111,0.0,4.0,66,0.00,,CLR,0.00,VWS V15.00,2013-06-04 11:34:00,
2013-06-04 07:35:00,54.6,43.1,29.65,SW,215,2.0,6.0,65,0.00,,CLR,0.00,VWS V15.00,2013-06-04 11:35:00,
2013-06-04 07:36:00,54.7,43.2,29.65,East,93,0.0,3.0,65,0.00,,CLR,0.00,VWS V15.00,2013-06-04 11:36:00,
2013-06-04 07:37:00,54.5,44.2,29.65,ESE,116,4.0,4.0,68,0.00,,CLR,0.00,VWS V14.01,2013-06-04 11:37:00,
2013-06-04 07:38:00,54.8,44.1,29.65,East,98,0.0,0.0,67,0.00,,CLR,0.00,VWS V15.00,2013-06-04 11:38:00,
2013-06-04 07:39:00,54.8,44.1,29.65,East,98,0.0,0.0,67,0.00,,CLR,0.00,VWS V15.00,2013-06-04 11:39:00,
2013-06-04 07:40:00,54.9,44.5,29.66,East,100,0.0,1.0,68,0.00,,CLR,0.00,VWS V15.00,2013-06-04 11:40:00,
2013-06-04 07:41:00,54.9,43.8,29.66,ESE,103,0.0,0.0,66,0.00,,CLR,0.00,VWS V15.00,2013-06-04 11:41:00,
2013-06-04 07:42:00,54.8,44.1,29.65,East,98,0.0,0.0,67,0.00,,CLR,0.00,VWS V14.01,2013-06-04 11:42:00,
2013-06-04 07:43:00,55.0,44.3,29.66,SSE,153,0.0,0.0,67,0.00,,CLR,0.00,VWS V15.00,2013-06-04 11:43:00,
2013-06-04 07:44:00,55.1,44.3,29.66,SSE,153,0.0,0.0,67,0.00,,CLR,0.00,VWS V15.00,2013-06-04 11:44:00,
2013-06-04 07:45:00,55.1,44.3,29.66,SE,138,0.0,2.0,67,0.00,,CLR,0.00,VWS V15.00,2013-06-04 11:45:00,
2013-06-04 07:46:00,55.1,44.3,29.66,SE,138,0.0,1.0,67,0.00,,CLR,0.00,VWS V15.00,2013-06-04 11:46:00,
2013-06-04 07:47:00,55.1,44.3,29.66,SSE,153,0.0,0.0,67,0.00,,CLR,0.00,VWS V14.01,2013-06-04 11:47:00,
2013-06-04 07:48:00,55.2,43.7,29.66,SE,136,0.0,0.0,65,0.00,,CLR,0.00,VWS V15.00,2013-06-04 11:48:00,
2013-06-04 07:49:00,55.3,43.3,29.66,SE,136,1.0,1.0,64,0.00,,CLR,0.00,VWS V15.00,2013-06-04 11:49:00,
2013-06-04 07:50:00,55.3,44.2,29.66,SE,143,0.0,5.0,66,0.00,,CLR,0.00,VWS V15.00,2013-06-04 11:50:00,
2013-06-04 07:51:00,55.4,44.6,29.66,SE,143,0.0,0.0,67,0.00,,CLR,0.00,VWS V15.00,2013-06-04 11:51:00,
2013-06-04 07:52:00,55.3,43.3,29.66,SE,136,0.0,0.0,64,0.00,,CLR,0.00,VWS V14.01,2013-06-04 11:52:00,
2013-06-04 07:53:00,55.4,44.6,29.66,SE,143,0.0,0.0,67,0.00,,CLR,0.00,VWS V15.00,2013-06-04 11:53:00,
2013-06-04 07:54:00,55.4,45.0,29.66,SE,143,0.0,0.0,68,0.00,,CLR,0.00,VWS V15.00,2013-06-04 11:54:00,
2013-06-04 07:56:00,55.5,45.5,29.67,East,101,5.0,5.0,69,0.00,,CLR,0.00,VWS V15.00,2013-06-04 11:56:00,
2013-06-04 07:57:00,55.4,45.0,29.66,SE,143,0.0,0.0,68,0.00,,CLR,0.00,VWS V14.01,2013-06-04 11:57:00,
2013-06-04 07:58:00,55.6,44.4,29.67,SSE,165,0.0,0.0,66,0.00,,CLR,0.00,VWS V15.00,2013-06-04 11:58:00,
2013-06-04 07:59:00,55.6,44.4,29.67,South,190,0.0,1.0,66,0.00,,CLR,0.00,VWS V15.00,2013-06-04 11:59:00,
2013-06-04 08:00:00,55.6,44.4,29.67,South,190,0.0,0.0,66,0.00,,CLR,0.00,VWS V15.00,2013-06-04 12:00:00,
2013-06-04 08:01:00,55.7,44.5,29.66,South,190,0.0,0.0,66,0.00,,CLR,0.00,VWS V15.00,2013-06-04 12:01:00,
2013-06-04 08:02:00,55.6,44.4,29.67,South,190,0.0,1.0,66,0.00,,CLR,0.00,VWS V14.01,2013-06-04 12:02:00,
2013-06-04 08:03:00,55.7,44.9,29.66,South,190,0.0,0.0,67,0.00,,CLR,0.00,VWS V15.00,2013-06-04 12:03:00,
2013-06-04 08:04:00,55.8,45.8,29.66,ESE,118,0.0,2.0,69,0.00,,CLR,0.00,VWS V15.00,2013-06-04 12:04:00,
2013-06-04 08:05:00,55.8,45.4,29.66,SE,127,0.0,2.0,68,0.00,,CLR,0.00,VWS V15.00,2013-06-04 12:05:00,
2013-06-04 08:06:00,55.9,45.1,29.66,SSE,150,1.0,5.0,67,0.00,,CLR,0.00,VWS V15.00,2013-06-04 12:06:00,
2013-06-04 08:07:00,55.8,45.8,29.67,ESE,117,1.0,2.0,69,0.00,,CLR,0.00,VWS V14.01,2013-06-04 12:07:00,
2013-06-04 08:08:00,55.9,45.9,29.66,East,94,0.0,4.0,69,0.00,,CLR,0.00,VWS V15.00,2013-06-04 12:08:00,
2013-06-04 08:09:00,55.9,46.3,29.67,East,94,0.0,0.0,70,0.00,,CLR,0.00,VWS V15.00,2013-06-04 12:09:00,
2013-06-04 08:10:00,56.0,46.4,29.67,East,94,0.0,0.0,70,0.00,,CLR,0.00,VWS V15.00,2013-06-04 12:10:00,
2013-06-04 08:11:00,56.0,46.4,29.66,East,101,0.0,1.0,70,0.00,,CLR,0.00,VWS V15.00,2013-06-04 12:11:00,
2013-06-04 08:12:00,56.0,46.4,29.67,East,94,0.0,0.0,70,0.00,,CLR,0.00,VWS V14.01,2013-06-04 12:12:00,
2013-06-04 08:13:00,56.0,44.8,29.67,ESE,121,0.0,1.0,66,0.00,,CLR,0.00,VWS V15.00,2013-06-04 12:13:00,
2013-06-04 08:14:00,56.1,45.3,29.66,SE,141,0.0,1.0,67,0.00,,CLR,0.00,VWS V15.00,2013-06-04 12:14:00,
2013-06-04 08:15:00,56.1,44.9,29.66,SE,141,0.0,1.0,66,0.00,,CLR,0.00,VWS V15.00,2013-06-04 12:15:00,
2013-06-04 08:16:00,56.1,44.5,29.67,SE,141,0.0,0.0,65,0.00,,CLR,0.00,VWS V15.00,2013-06-04 12:16:00,
2013-06-04 08:17:00,56.0,44.8,29.67,SE,133,1.0,1.0,66,0.00,,CLR,0.00,VWS V14.01,2013-06-04 12:17:00,
2013-06-04 08:18:00,56.1,45.3,29.67,SE,135,0.0,3.0,67,0.00,,CLR,0.00,VWS V15.00,2013-06-04 12:18:00,
2013-06-04 08:19:00,56.1,45.7,29.67,SE,135,0.0,1.0,68,0.00,,CLR,0.00,VWS V15.00,2013-06-04 12:19:00,
2013-06-04 08:20:00,56.1,44.9,29.67,SE,134,0.0,1.0,66,0.00,,CLR,0.00,VWS V15.00,2013-06-04 12:20:00,
2013-06-04 08:21:00,56.1,46.1,29.67,SE,132,0.0,1.0,69,0.00,,CLR,0.00,VWS V15.00,2013-06-04 12:21:00,
2013-06-04 08:22:00,56.1,44.9,29.67,SE,135,0.0,1.0,66,0.00,,CLR,0.00,VWS V14.01,2013-06-04 12:22:00,
2013-06-04 08:23:00,56.2,44.6,29.67,SSE,148,0.0,2.0,65,0.00,,CLR,0.00,VWS V15.00,2013-06-04 12:23:00,
2013-06-04 08:24:00,56.2,44.6,29.67,SSE,148,0.0,0.0,65,0.00,,CLR,0.00,VWS V15.00,2013-06-04 12:24:00,
2013-06-04 08:25:00,56.3,45.9,29.67,ESE,104,0.0,0.0,68,0.00,,CLR,0.00,VWS V15.00,2013-06-04 12:25:00,
2013-06-04 08:26:00,56.3,44.7,29.67,ESE,117,0.0,2.0,65,0.00,,CLR,0.00,VWS V15.00,2013-06-04 12:26:00,
2013-06-04 08:27:00,56.2,44.6,29.67,SSE,148,0.0,0.0,65,0.00,,CLR,0.00,VWS V14.01,2013-06-04 12:27:00,
2013-06-04 08:28:00,56.5,46.1,29.67,ESE,117,0.0,0.0,68,0.00,,CLR,0.00,VWS V15.00,2013-06-04 12:28:00,
2013-06-04 08:29:00,56.5,46.5,29.67,SE,133,5.0,5.0,69,0.00,,CLR,0.00,VWS V15.00,2013-06-04 12:29:00,
2013-06-04 08:30:00,56.6,45.8,29.67,SSE,166,0.0,5.0,67,0.00,,CLR,0.00,VWS V15.00,2013-06-04 12:30:00,
2013-06-04 08:31:00,56.7,45.5,29.67,ESE,121,0.0,3.0,66,0.00,,CLR,0.00,VWS V15.00,2013-06-04 12:31:00,
2013-06-04 08:32:00,56.5,46.5,29.67,ESE,117,0.0,0.0,69,0.00,,CLR,0.00,VWS V14.01,2013-06-04 12:32:00,
2013-06-04 08:33:00,56.8,45.2,29.67,SE,132,3.0,5.0,65,0.00,,CLR,0.00,VWS V15.00,2013-06-04 12:33:00,
2013-06-04 08:34:00,56.9,44.9,29.67,SW,221,0.0,3.0,64,0.00,,CLR,0.00,VWS V15.00,2013-06-04 12:34:00,
2013-06-04 08:35:00,56.9,45.3,29.67,SSW,192,1.0,1.0,65,0.00,,CLR,0.00,VWS V15.00,2013-06-04 12:35:00,
2013-06-04 08:36:00,57.0,45.4,29.67,SSW,192,0.0,1.0,65,0.00,,CLR,0.00,VWS V15.00,2013-06-04 12:36:00,
2013-06-04 08:37:00,56.9,44.9,29.67,SE,138,0.0,3.0,64,0.00,,CLR,0.00,VWS V14.01,2013-06-04 12:37:00,
2013-06-04 08:38:00,57.1,45.5,29.67,SSE,159,1.0,1.0,65,0.00,,CLR,0.00,VWS V15.00,2013-06-04 12:38:00,
2013-06-04 08:39:00,57.1,45.5,29.67,SSE,157,0.0,1.0,65,0.00,,CLR,0.00,VWS V15.00,2013-06-04 12:39:00,
2013-06-04 08:40:00,57.2,46.0,29.67,SSE,153,0.0,1.0,66,0.00,,CLR,0.00,VWS V15.00,2013-06-04 12:40:00,
2013-06-04 08:41:00,57.2,46.0,29.67,East,86,1.0,5.0,66,0.00,,CLR,0.00,VWS V15.00,2013-06-04 12:41:00,
2013-06-04 08:42:00,57.1,45.5,29.67,SSE,159,0.0,1.0,65,0.00,,CLR,0.00,VWS V14.01,2013-06-04 12:42:00,
2013-06-04 08:43:00,57.3,45.7,29.68,SE,134,0.0,0.0,65,0.00,,CLR,0.00,VWS V15.00,2013-06-04 12:43:00,
2013-06-04 08:44:00,57.3,45.7,29.68,SE,134,0.0,0.0,65,0.00,,CLR,0.00,VWS V15.00,2013-06-04 12:44:00,
2013-06-04 08:45:00,57.4,45.3,29.68,ESE,114,4.0,4.0,64,0.00,,CLR,0.00,VWS V15.00,2013-06-04 12:45:00,
2013-06-04 08:46:00,57.4,45.3,29.68,SE,129,0.0,4.0,64,0.00,,CLR,0.00,VWS V15.00,2013-06-04 12:46:00,
2013-06-04 08:47:00,57.3,45.7,29.68,SE,134,0.0,0.0,65,0.00,,CLR,0.00,VWS V14.01,2013-06-04 12:47:00,
2013-06-04 08:48:00,57.5,45.8,29.68,SE,129,0.0,0.0,65,0.00,,CLR,0.00,VWS V15.00,2013-06-04 12:48:00,
2013-06-04 08:49:00,57.5,46.6,29.68,SE,129,0.0,0.0,67,0.00,,CLR,0.00,VWS V15.00,2013-06-04 12:49:00,
2013-06-04 08:50:00,57.5,45.8,29.68,SE,129,0.0,0.0,65,0.00,,CLR,0.00,VWS V15.00,2013-06-04 12:50:00,
2013-06-04 08:51:00,57.5,46.2,29.68,SE,129,1.0,1.0,66,0.00,,CLR,0.00,VWS V15.00,2013-06-04 12:51:00,
2013-06-04 08:52:00,57.5,45.8,29.67,SE,129,0.0,0.0,65,0.00,,CLR,0.00,VWS V14.01,2013-06-04 12:52:00,
2013-06-04 08:53:00,57.6,45.9,29.68,SE,129,0.0,0.0,65,0.00,,CLR,0.00,VWS V15.00,2013-06-04 12:53:00,
2013-06-04 08:54:00,57.7,46.4,29.68,SE,129,0.0,0.0,66,0.00,,CLR,0.00,VWS V15.00,2013-06-04 12:54:00,
2013-06-04 08:55:00,57.7,46.0,29.68,SE,129,0.0,0.0,65,0.00,,CLR,0.00,VWS V15.00,2013-06-04 12:55:00,
2013-06-04 08:56:00,57.7,46.0,29.68,SE,129,0.0,0.0,65,0.00,,CLR,0.00,VWS V15.00,2013-06-04 12:56:00,
2013-06-04 08:57:00,57.7,46.4,29.68,SE,129,0.0,0.0,66,0.00,,CLR,0.00,VWS V14.01,2013-06-04 12:57:00,
2013-06-04 08:58:00,57.8,45.7,29.68,SE,134,0.0,2.0,64,0.00,,CLR,0.00,VWS V15.00,2013-06-04 12:58:00,
2013-06-04 08:59:00,57.8,45.7,29.68,SE,134,0.0,2.0,64,0.00,,CLR,0.00,VWS V15.00,2013-06-04 12:59:00,
2013-06-04 09:00:00,57.9,45.0,29.68,SE,127,2.0,2.0,62,0.00,,CLR,0.00,VWS V15.00,2013-06-04 13:00:00,
2013-06-04 09:01:00,57.9,45.4,29.68,SE,127,0.0,3.0,63,0.00,,CLR,0.00,VWS V15.00,2013-06-04 13:01:00,
2013-06-04 09:02:00,57.8,45.7,29.68,SE,134,0.0,2.0,64,0.00,,CLR,0.00,VWS V14.01,2013-06-04 13:02:00,
2013-06-04 09:03:00,58.0,45.1,29.68,East,100,2.0,4.0,62,0.00,,CLR,0.00,VWS V15.00,2013-06-04 13:03:00,
2013-06-04 09:04:00,58.1,45.2,29.68,East,101,0.0,2.0,62,0.00,,CLR,0.00,VWS V15.00,2013-06-04 13:04:00,
2013-06-04 09:05:00,58.1,45.6,29.68,East,101,0.0,0.0,63,0.00,,CLR,0.00,VWS V15.00,2013-06-04 13:05:00,
2013-06-04 09:06:00,58.2,45.3,29.68,East,101,0.0,0.0,62,0.00,,CLR,0.00,VWS V15.00,2013-06-04 13:06:00,
2013-06-04 09:07:00,58.0,45.1,29.68,East,100,0.0,2.0,62,0.00,,CLR,0.00,VWS V14.01,2013-06-04 13:07:00,
2013-06-04 09:08:00,58.3,46.2,29.68,East,101,0.0,0.0,64,0.00,,CLR,0.00,VWS V15.00,2013-06-04 13:08:00,
2013-06-04 09:09:00,58.4,46.7,29.68,East,101,0.0,0.0,65,0.00,,CLR,0.00,VWS V15.00,2013-06-04 13:09:00,
2013-06-04 09:10:00,58.4,46.7,29.68,East,101,0.0,0.0,65,0.00,,CLR,0.00,VWS V15.00,2013-06-04 13:10:00,
2013-06-04 09:11:00,58.5,46.8,29.68,ESE,103,0.0,3.0,65,0.00,,CLR,0.00,VWS V15.00,2013-06-04 13:11:00,
2013-06-04 09:12:00,58.3,46.6,29.67,East,101,0.0,0.0,65,0.00,,CLR,0.00,VWS V14.01,2013-06-04 13:12:00,
2013-06-04 09:13:00,58.6,45.6,29.67,ESE,103,0.0,0.0,62,0.00,,CLR,0.00,VWS V15.00,2013-06-04 13:13:00,
2013-06-04 09:14:00,58.7,45.7,29.67,ESE,103,0.0,0.0,62,0.00,,CLR,0.00,VWS V15.00,2013-06-04 13:14:00,
2013-06-04 09:15:00,58.8,46.2,29.67,ESE,103,0.0,0.0,63,0.00,,CLR,0.00,VWS V15.00,2013-06-04 13:15:00,
2013-06-04 09:16:00,59.0,46.8,29.67,ESE,103,0.0,0.0,64,0.00,,CLR,0.00,VWS V15.00,2013-06-04 13:16:00,
2013-06-04 09:17:00,58.6,45.6,29.67,ESE,103,0.0,0.0,62,0.00,,CLR,0.00,VWS V14.01,2013-06-04 13:17:00,
2013-06-04 09:18:00,59.0,46.0,29.67,ESE,103,0.0,0.0,62,0.00,,CLR,0.00,VWS V15.00,2013-06-04 13:18:00,
2013-06-04 09:19:00,59.0,46.4,29.67,ESE,103,0.0,0.0,63,0.00,,CLR,0.00,VWS V15.00,2013-06-04 13:19:00,
2013-06-04 09:20:00,59.1,45.7,29.67,WSW,257,0.0,3.0,61,0.00,,CLR,0.00,VWS V15.00,2013-06-04 13:20:00,
2013-06-04 09:21:00,59.3,45.4,29.67,WSW,250,0.0,3.0,60,0.00,,CLR,0.00,VWS V15.00,2013-06-04 13:21:00,
2013-06-04 09:22:00,59.0,46.0,29.67,ESE,103,0.0,0.0,62,0.00,,CLR,0.00,VWS V14.01,2013-06-04 13:22:00,
2013-06-04 09:23:00,59.6,47.0,29.67,ESE,115,0.0,0.0,63,0.00,,CLR,0.00,VWS V15.00,2013-06-04 13:23:00,
2013-06-04 09:24:00,59.8,47.6,29.67,ESE,115,0.0,0.0,64,0.00,,CLR,0.00,VWS V15.00,2013-06-04 13:24:00,
2013-06-04 09:25:00,59.8,48.0,29.67,ESE,115,0.0,0.0,65,0.00,,CLR,0.00,VWS V15.00,2013-06-04 13:25:00,
2013-06-04 09:26:00,59.9,46.4,29.67,SE,138,0.0,3.0,61,0.00,,CLR,0.00,VWS V15.00,2013-06-04 13:26:00,
2013-06-04 09:27:00,59.7,46.7,29.67,ESE,115,0.0,0.0,62,0.00,,CLR,0.00,VWS V14.01,2013-06-04 13:27:00,
2013-06-04 09:28:00,59.9,45.1,29.67,East,85,0.0,0.0,58,0.00,,CLR,0.00,VWS V15.00,2013-06-04 13:28:00,
2013-06-04 09:29:00,59.9,45.1,29.67,ESE,115,1.0,1.0,58,0.00,,CLR,0.00,VWS V15.00,2013-06-04 13:29:00,
2013-06-04 09:30:00,60.0,44.7,29.67,ESE,117,0.0,1.0,57,0.00,,CLR,0.00,VWS V15.00,2013-06-04 13:30:00,
2013-06-04 09:31:00,60.0,45.2,29.67,East,88,0.0,4.0,58,0.00,,CLR,0.00,VWS V15.00,2013-06-04 13:31:00,
2013-06-04 09:32:00,59.9,45.1,29.67,ESE,105,0.0,1.0,58,0.00,,CLR,0.00,VWS V14.01,2013-06-04 13:32:00,
2013-06-04 09:33:00,60.1,46.2,29.67,East,88,0.0,0.0,60,0.00,,CLR,0.00,VWS V15.00,2013-06-04 13:33:00,
2013-06-04 09:34:00,60.1,46.2,29.67,East,88,0.0,0.0,60,0.00,,CLR,0.00,VWS V15.00,2013-06-04 13:34:00,
2013-06-04 09:35:00,60.1,45.7,29.67,ESE,107,5.0,7.0,59,0.00,,CLR,0.00,VWS V15.00,2013-06-04 13:35:00,
2013-06-04 09:36:00,60.1,45.7,29.67,West,261,1.0,5.0,59,0.00,,CLR,0.00,VWS V15.00,2013-06-04 13:36:00,
2013-06-04 09:37:00,60.1,46.2,29.67,East,88,0.0,0.0,60,0.00,,CLR,0.00,VWS V14.01,2013-06-04 13:37:00,
2013-06-04 09:38:00,60.1,45.3,29.67,SSE,155,0.0,5.0,58,0.00,,CLR,0.00,VWS V15.00,2013-06-04 13:38:00,
2013-06-04 09:39:00,60.1,44.8,29.67,SE,130,2.0,5.0,57,0.00,,CLR,0.00,VWS V15.00,2013-06-04 13:39:00,
2013-06-04 09:40:00,60.1,44.8,29.67,ESE,103,5.0,5.0,57,0.00,,CLR,0.00,VWS V15.00,2013-06-04 13:40:00,
2013-06-04 09:41:00,60.1,45.7,29.67,SE,142,0.0,6.0,59,0.00,,CLR,0.00,VWS V15.00,2013-06-04 13:41:00,
2013-06-04 09:42:00,60.1,44.8,29.67,SSE,155,0.0,0.0,57,0.00,,CLR,0.00,VWS V14.01,2013-06-04 13:42:00,
2013-06-04 09:43:00,60.0,45.2,29.67,SE,126,0.0,0.0,58,0.00,,CLR,0.00,VWS V15.00,2013-06-04 13:43:00,
2013-06-04 09:44:00,60.0,45.7,29.67,East,91,0.0,8.0,59,0.00,,CLR,0.00,VWS V15.00,2013-06-04 13:44:00,
2013-06-04 09:45:00,60.1,45.7,29.67,East,92,0.0,0.0,59,0.00,,CLR,0.00,VWS V15.00,2013-06-04 13:45:00,
2013-06-04 09:46:00,60.1,45.3,29.67,East,92,0.0,0.0,58,0.00,,CLR,0.00,VWS V15.00,2013-06-04 13:46:00,
2013-06-04 09:47:00,60.0,45.7,29.67,East,98,3.0,8.0,59,0.00,,CLR,0.00,VWS V14.01,2013-06-04 13:47:00,
2013-06-04 09:48:00,60.1,46.2,29.67,West,281,1.0,1.0,60,0.00,,CLR,0.00,VWS V15.00,2013-06-04 13:48:00,
2013-06-04 09:49:00,60.2,46.7,29.67,West,263,0.0,1.0,61,0.00,,CLR,0.00,VWS V15.00,2013-06-04 13:49:00,
2013-06-04 09:50:00,60.2,46.3,29.67,SSE,148,1.0,3.0,60,0.00,,CLR,0.00,VWS V15.00,2013-06-04 13:50:00,
2013-06-04 09:51:00,60.2,45.4,29.67,SE,144,0.0,2.0,58,0.00,,CLR,0.00,VWS V15.00,2013-06-04 13:51:00,
2013-06-04 09:52:00,60.1,46.6,29.67,West,263,0.0,1.0,61,0.00,,CLR,0.00,VWS V14.01,2013-06-04 13:52:00,
2013-06-04 09:53:00,60.3,46.8,29.67,SE,144,0.0,0.0,61,0.00,,CLR,0.00,VWS V15.00,2013-06-04 13:53:00,
2013-06-04 09:54:00,60.3,45.9,29.67,SE,132,0.0,2.0,59,0.00,,CLR,0.00,VWS V15.00,2013-06-04 13:54:00,
2013-06-04 09:55:00,60.3,46.4,29.67,SE,132,0.0,2.0,60,0.00,,CLR,0.00,VWS V15.00,2013-06-04 13:55:00,
2013-06-04 09:56:00,60.3,47.2,29.67,SE,132,1.0,1.0,62,0.00,,CLR,0.00,VWS V15.00,2013-06-04 13:56:00,
2013-06-04 09:57:00,60.3,46.8,29.67,SE,132,2.0,2.0,61,0.00,,CLR,0.00,VWS V14.01,2013-06-04 13:57:00,
2013-06-04 09:58:00,60.4,45.6,29.67,SSE,152,0.0,3.0,58,0.00,,CLR,0.00,VWS V15.00,2013-06-04 13:58:00,
2013-06-04 09:59:00,60.4,45.6,29.67,SE,140,4.0,4.0,58,0.00,,CLR,0.00,VWS V15.00,2013-06-04 13:59:00,
2013-06-04 10:00:00,60.4,45.6,29.67,ESE,113,2.0,4.0,58,0.00,,CLR,0.00,VWS V15.00,2013-06-04 14:00:00,
2013-06-04 10:01:00,60.5,45.2,29.67,ESE,113,0.0,2.0,57,0.00,,CLR,0.00,VWS V15.00,2013-06-04 14:01:00,
2013-06-04 10:02:00,60.4,45.1,29.67,SSE,152,0.0,0.0,57,0.00,,CLR,0.00,VWS V14.01,2013-06-04 14:02:00,
2013-06-04 10:03:00,60.6,46.2,29.67,ESE,120,0.0,0.0,59,0.00,,CLR,0.00,VWS V15.00,2013-06-04 14:03:00,
2013-06-04 10:04:00,60.7,46.8,29.67,SE,133,0.0,0.0,60,0.00,,CLR,0.00,VWS V15.00,2013-06-04 14:04:00,
2013-06-04 10:05:00,60.7,46.3,29.67,SSW,196,0.0,3.0,59,0.00,,CLR,0.00,VWS V15.00,2013-06-04 14:05:00,
2013-06-04 10:06:00,60.8,46.8,29.67,SW,230,0.0,1.0,60,0.00,,CLR,0.00,VWS V15.00,2013-06-04 14:06:00,
2013-06-04 10:07:00,60.6,46.7,29.67,SE,133,0.0,0.0,60,0.00,,CLR,0.00,VWS V14.01,2013-06-04 14:07:00,
2013-06-04 10:08:00,61.1,46.7,29.67,SW,230,0.0,0.0,59,0.00,,CLR,0.00,VWS V15.00,2013-06-04 14:08:00,
2013-06-04 10:09:00,61.2,46.3,29.67,SW,230,0.0,0.0,58,0.00,,CLR,0.00,VWS V15.00,2013-06-04 14:09:00,
2013-06-04 10:10:00,61.3,46.0,29.67,SSE,168,0.0,2.0,57,0.00,,CLR,0.00,VWS V15.00,2013-06-04 14:10:00,
2013-06-04 10:11:00,61.4,46.0,29.67,SSE,156,0.0,2.0,57,0.00,,CLR,0.00,VWS V15.00,2013-06-04 14:11:00,
2013-06-04 10:12:00,61.2,46.3,29.67,SW,230,0.0,0.0,58,0.00,,CLR,0.00,VWS V14.01,2013-06-04 14:12:00,
2013-06-04 10:13:00,61.5,47.1,29.67,SSE,156,0.0,0.0,59,0.00,,CLR,0.00,VWS V15.00,2013-06-04 14:13:00,
2013-06-04 10:14:00,61.6,46.7,29.68,East,91,2.0,6.0,58,0.00,,CLR,0.00,VWS V15.00,2013-06-04 14:14:00,
2013-06-04 10:15:00,61.6,46.2,29.68,SE,145,0.0,2.0,57,0.00,,CLR,0.00,VWS V15.00,2013-06-04 14:15:00,
2013-06-04 10:16:00,61.7,47.2,29.68,ESE,106,0.0,2.0,59,0.00,,CLR,0.00,VWS V15.00,2013-06-04 14:16:00,
2013-06-04 10:17:00,61.6,46.7,29.67,SE,143,0.0,0.0,58,0.00,,CLR,0.00,VWS V14.01,2013-06-04 14:17:00,
2013-06-04 10:18:00,61.7,47.2,29.67,ESE,106,0.0,1.0,59,0.00,,CLR,0.00,VWS V15.00,2013-06-04 14:18:00,
2013-06-04 10:19:00,61.7,46.8,29.67,ESE,114,0.0,4.0,58,0.00,,CLR,0.00,VWS V15.00,2013-06-04 14:19:00,
2013-06-04 10:20:00,61.7,46.3,29.67,ESE,113,5.0,5.0,57,0.00,,CLR,0.00,VWS V15.00,2013-06-04 14:20:00,
2013-06-04 10:21:00,61.7,46.3,29.68,ESE,117,1.0,5.0,57,0.00,,CLR,0.00,VWS V15.00,2013-06-04 14:21:00,
2013-06-04 10:22:00,61.7,46.8,29.67,ESE,114,2.0,4.0,58,0.00,,CLR,0.00,VWS V14.01,2013-06-04 14:22:00,
2013-06-04 10:23:00,61.6,45.8,29.67,SE,125,0.0,1.0,56,0.00,,CLR,0.00,VWS V15.00,2013-06-04 14:23:00,
2013-06-04 10:24:00,61.6,46.2,29.67,SE,125,0.0,0.0,57,0.00,,CLR,0.00,VWS V15.00,2013-06-04 14:24:00,
2013-06-04 10:25:00,61.6,47.2,29.67,SE,125,0.0,0.0,59,0.00,,CLR,0.00,VWS V15.00,2013-06-04 14:25:00,
2013-06-04 10:26:00,61.6,47.6,29.67,SE,126,0.0,2.0,60,0.00,,CLR,0.00,VWS V15.00,2013-06-04 14:26:00,
2013-06-04 10:27:00,61.6,45.8,29.67,SE,125,0.0,0.0,56,0.00,,CLR,0.00,VWS V14.01,2013-06-04 14:27:00,
2013-06-04 10:28:00,61.7,47.2,29.67,South,180,0.0,1.0,59,0.00,,CLR,0.00,VWS V15.00,2013-06-04 14:28:00,
2013-06-04 10:29:00,61.7,46.3,29.67,SW,225,0.0,2.0,57,0.00,,CLR,0.00,VWS V15.00,2013-06-04 14:29:00,
2013-06-04 10:30:00,61.7,45.9,29.68,SSE,153,0.0,3.0,56,0.00,,CLR,0.00,VWS V15.00,2013-06-04 14:30:00,
2013-06-04 10:31:00,61.7,46.3,29.68,ESE,105,3.0,4.0,57,0.00,,CLR,0.00,VWS V15.00,2013-06-04 14:31:00,
2013-06-04 10:32:00,61.6,47.2,29.67,SW,225,2.0,2.0,59,0.00,,CLR,0.00,VWS V14.01,2013-06-04 14:32:00,
2013-06-04 10:33:00,61.8,46.0,29.68,SE,136,3.0,3.0,56,0.00,,CLR,0.00,VWS V15.00,2013-06-04 14:33:00,
2013-06-04 10:34:00,61.8,46.4,29.68,SE,141,0.0,3.0,57,0.00,,CLR,0.00,VWS V15.00,2013-06-04 14:34:00,
2013-06-04 10:35:00,61.9,47.0,29.68,SE,141,0.0,0.0,58,0.00,,CLR,0.00,VWS V15.00,2013-06-04 14:35:00,
2013-06-04 10:36:00,61.9,46.0,29.68,ESE,120,1.0,6.0,56,0.00,,CLR,0.00,VWS V15.00,2013-06-04 14:36:00,
2013-06-04 10:37:00,61.8,46.4,29.68,SE,141,0.0,3.0,57,0.00,,CLR,0.00,VWS V14.01,2013-06-04 14:37:00,
2013-06-04 10:38:00,62.0,46.6,29.68,ESE,105,1.0,1.0,57,0.00,,CLR,0.00,VWS V15.00,2013-06-04 14:38:00,
2013-06-04 10:39:00,62.0,46.6,29.68,SE,131,0.0,3.0,57,0.00,,CLR,0.00,VWS V15.00,2013-06-04 14:39:00,
2013-06-04 10:40:00,62.1,47.2,29.67,SE,131,0.0,0.0,58,0.00,,CLR,0.00,VWS V15.00,2013-06-04 14:40:00,
2013-06-04 10:41:00,62.1,47.2,29.67,South,171,3.0,4.0,58,0.00,,CLR,0.00,VWS V15.00,2013-06-04 14:41:00,
2013-06-04 10:42:00,62.0,46.6,29.67,East,96,1.0,3.0,57,0.00,,CLR,0.00,VWS V14.01,2013-06-04 14:42:00,
2013-06-04 10:43:00,62.2,46.8,29.67,South,184,1.0,3.0,57,0.00,,CLR,0.00,VWS V15.00,2013-06-04 14:43:00,
2013-06-04 10:44:00,62.2,46.3,29.67,SSW,198,0.0,1.0,56,0.00,,CLR,0.00,VWS V15.00,2013-06-04 14:44:00,
2013-06-04 10:45:00,62.2,47.3,29.67,East,101,2.0,2.0,58,0.00,,CLR,0.00,VWS V15.00,2013-06-04 14:45:00,
2013-06-04 10:46:00,62.2,47.7,29.67,East,101,0.0,2.0,59,0.00,,CLR,0.00,VWS V15.00,2013-06-04 14:46:00,
2013-06-04 10:47:00,62.2,46.3,29.67,SSW,198,0.0,1.0,56,0.00,,CLR,0.00,VWS V14.01,2013-06-04 14:47:00,
2013-06-04 10:48:00,62.2,46.3,29.68,SE,128,0.0,6.0,56,0.00,,CLR,0.00,VWS V15.00,2013-06-04 14:48:00,
2013-06-04 10:49:00,62.3,47.3,29.68,SE,130,3.0,3.0,58,0.00,,CLR,0.00,VWS V15.00,2013-06-04 14:49:00,
2013-06-04 10:50:00,62.3,45.9,29.68,ESE,107,0.0,3.0,55,0.00,,CLR,0.00,VWS V15.00,2013-06-04 14:50:00,
2013-06-04 10:51:00,62.3,47.3,29.68,ESE,108,0.0,1.0,58,0.00,,CLR,0.00,VWS V15.00,2013-06-04 14:51:00,
2013-06-04 10:52:00,62.3,47.3,29.68,SE,132,1.0,1.0,58,0.00,,CLR,0.00,VWS V14.01,2013-06-04 14:52:00,
2013-06-04 10:53:00,62.3,47.3,29.68,ESE,108,0.0,0.0,58,0.00,,CLR,0.00,VWS V15.00,2013-06-04 14:53:00,
2013-06-04 10:54:00,62.3,47.8,29.68,ESE,108,0.0,0.0,59,0.00,,CLR,0.00,VWS V15.00,2013-06-04 14:54:00,
2013-06-04 10:55:00,62.3,48.2,29.68,ESE,108,0.0,0.0,60,0.00,,CLR,0.00,VWS V15.00,2013-06-04 14:55:00,
2013-06-04 10:56:00,62.4,47.9,29.68,ESE,111,2.0,2.0,59,0.00,,CLR,0.00,VWS V15.00,2013-06-04 14:56:00,
2013-06-04 10:57:00,62.3,47.8,29.68,ESE,108,0.0,0.0,59,0.00,,CLR,0.00,VWS V14.01,2013-06-04 14:57:00,
2013-06-04 10:58:00,62.5,49.3,29.68,ENE,78,0.0,1.0,62,0.00,,CLR,0.00,VWS V15.00,2013-06-04 14:58:00,
2013-06-04 10:59:00,62.5,49.3,29.67,ENE,78,0.0,0.0,62,0.00,,CLR,0.00,VWS V15.00,2013-06-04 14:59:00,
2013-06-04 11:00:00,62.5,49.3,29.67,ENE,78,0.0,0.0,62,0.00,,CLR,0.00,VWS V15.00,2013-06-04 15:00:00,
2013-06-04 11:01:00,62.6,47.6,29.68,WSW,252,1.0,3.0,58,0.00,,CLR,0.00,VWS V15.00,2013-06-04 15:01:00,
2013-06-04 11:02:00,62.5,49.3,29.67,ENE,78,0.0,0.0,62,0.00,,CLR,0.00,VWS V14.01,2013-06-04 15:02:00,
2013-06-04 11:03:00,62.8,47.8,29.68,SW,231,2.0,2.0,58,0.00,,CLR,0.00,VWS V15.00,2013-06-04 15:03:00,
2013-06-04 11:04:00,62.9,46.0,29.67,SE,127,0.0,4.0,54,0.00,,CLR,0.00,VWS V15.00,2013-06-04 15:04:00,
2013-06-04 11:05:00,63.1,46.7,29.67,South,191,0.0,1.0,55,0.00,,CLR,0.00,VWS V15.00,2013-06-04 15:05:00,
2013-06-04 11:06:00,63.1,46.2,29.67,South,171,0.0,1.0,54,0.00,,CLR,0.00,VWS V15.00,2013-06-04 15:06:00,
2013-06-04 11:07:00,62.9,46.0,29.67,SE,127,0.0,4.0,54,0.00,,CLR,0.00,VWS V14.01,2013-06-04 15:07:00,
2013-06-04 11:08:00,63.3,46.4,29.67,ESE,105,0.0,7.0,54,0.00,,CLR,0.00,VWS V15.00,2013-06-04 15:08:00,
2013-06-04 11:09:00,63.4,48.4,29.67,ESE,103,0.0,3.0,58,0.00,,CLR,0.00,VWS V15.00,2013-06-04 15:09:00,
2013-06-04 11:10:00,63.5,49.4,29.68,ESE,103,1.0,1.0,60,0.00,,CLR,0.00,VWS V15.00,2013-06-04 15:10:00,
2013-06-04 11:11:00,63.5,49.4,29.68,East,94,0.0,5.0,60,0.00,,CLR,0.00,VWS V15.00,2013-06-04 15:11:00,
2013-06-04 11:12:00,63.4,47.0,29.67,ESE,103,0.0,3.0,55,0.00,,CLR,0.00,VWS V14.01,2013-06-04 15:12:00,
2013-06-04 11:13:00,63.5,46.6,29.68,SE,146,0.0,3.0,54,0.00,,CLR,0.00,VWS V15.00,2013-06-04 15:13:00,
2013-06-04 11:14:00,63.5,47.1,29.68,West,259,1.0,2.0,55,0.00,,CLR,0.00,VWS V15.00,2013-06-04 15:14:00,
2013-06-04 11:15:00,63.6,47.6,29.68,WSW,249,0.0,1.0,56,0.00,,CLR,0.00,VWS V15.00,2013-06-04 15:15:00,
2013-06-04 11:16:00,63.6,47.6,29.68,WSW,249,0.0,0.0,56,0.00,,CLR,0.00,VWS V15.00,2013-06-04 15:16:00,
2013-06-04 11:17:00,63.5,47.1,29.68,SSE,148,0.0,1.0,55,0.00,,CLR,0.00,VWS V14.01,2013-06-04 15:17:00,
2013-06-04 11:18:00,63.7,48.2,29.68,WSW,249,0.0,1.0,57,0.00,,CLR,0.00,VWS V15.00,2013-06-04 15:18:00,
2013-06-04 11:19:00,63.8,49.2,29.68,WSW,249,0.0,0.0,59,0.00,,CLR,0.00,VWS V15.00,2013-06-04 15:19:00,
2013-06-04 11:20:00,63.8,49.2,29.68,WSW,249,0.0,0.0,59,0.00,,CLR,0.00,VWS V15.00,2013-06-04 15:20:00,
2013-06-04 11:21:00,63.8,49.2,29.68,WSW,249,0.0,0.0,59,0.00,,CLR,0.00,VWS V15.00,2013-06-04 15:21:00,
2013-06-04 11:22:00,63.8,49.2,29.68,WSW,249,0.0,0.0,59,0.00,,CLR,0.00,VWS V14.01,2013-06-04 15:22:00,
2013-06-04 11:23:00,63.9,47.4,29.68,ESE,112,0.0,4.0,55,0.00,,CLR,0.00,VWS V15.00,2013-06-04 15:23:00,
2013-06-04 11:24:00,64.0,49.4,29.68,WSW,244,0.0,1.0,59,0.00,,CLR,0.00,VWS V15.00,2013-06-04 15:24:00,
2013-06-04 11:25:00,64.1,48.1,29.68,SW,229,1.0,1.0,56,0.00,,CLR,0.00,VWS V15.00,2013-06-04 15:25:00,
2013-06-04 11:26:00,64.2,47.2,29.68,SE,140,0.0,7.0,54,0.00,,CLR,0.00,VWS V15.00,2013-06-04 15:26:00,
2013-06-04 11:27:00,64.0,49.4,29.68,WSW,242,1.0,1.0,59,0.00,,CLR,0.00,VWS V14.01,2013-06-04 15:27:00,
2013-06-04 11:28:00,64.4,46.9,29.68,SW,221,0.0,1.0,53,0.00,,CLR,0.00,VWS V15.00,2013-06-04 15:28:00,
2013-06-04 11:29:00,64.5,47.5,29.68,SW,236,0.0,1.0,54,0.00,,CLR,0.00,VWS V15.00,2013-06-04 15:29:00,
2013-06-04 11:30:00,64.6,47.1,29.68,SSE,153,1.0,6.0,53,0.00,,CLR,0.00,VWS V15.00,2013-06-04 15:30:00,
2013-06-04 11:31:00,64.7,47.2,29.68,SSE,150,0.0,1.0,53,0.00,,CLR,0.00,VWS V15.00,2013-06-04 15:31:00,
2013-06-04 11:32:00,64.5,47.5,29.68,SW,224,0.0,1.0,54,0.00,,CLR,0.00,VWS V14.01,2013-06-04 15:32:00,
2013-06-04 11:33:00,64.8,46.8,29.68,ENE,70,4.0,4.0,52,0.00,,CLR,0.00,VWS V15.00,2013-06-04 15:33:00,
2013-06-04 11:34:00,64.7,47.7,29.68,NE,53,0.0,4.0,54,0.00,,CLR,0.00,VWS V15.00,2013-06-04 15:34:00,
2013-06-04 11:35:00,64.7,47.7,29.68,NE,53,0.0,0.0,54,0.00,,CLR,0.00,VWS V15.00,2013-06-04 15:35:00,
2013-06-04 11:36:00,64.7,47.7,29.68,NE,55,0.0,0.0,54,0.00,,CLR,0.00,VWS V15.00,2013-06-04 15:36:00,
2013-06-04 11:37:00,64.7,47.7,29.68,NE,53,0.0,4.0,54,0.00,,CLR,0.00,VWS V14.01,2013-06-04 15:37:00,
2013-06-04 11:38:00,64.8,49.2,29.68,ESE,109,4.0,5.0,57,0.00,,CLR,0.00,VWS V15.00,2013-06-04 15:38:00,
2013-06-04 11:39:00,64.8,47.3,29.68,ESE,123,0.0,5.0,53,0.00,,CLR,0.00,VWS V15.00,2013-06-04 15:39:00,
2013-06-04 11:40:00,64.8,48.3,29.68,ESE,123,2.0,3.0,55,0.00,,CLR,0.00,VWS V15.00,2013-06-04 15:40:00,
2013-06-04 11:41:00,64.8,46.8,29.68,ESE,117,0.0,2.0,52,0.00,,CLR,0.00,VWS V15.00,2013-06-04 15:41:00,
2013-06-04 11:42:00,64.7,46.7,29.68,ESE,106,0.0,5.0,52,0.00,,CLR,0.00,VWS V14.01,2013-06-04 15:42:00,
2013-06-04 11:46:00,64.8,47.8,29.67,SE,128,4.0,7.0,54,0.00,,CLR,0.00,VWS V15.00,2013-06-04 15:46:00,
2013-06-04 11:47:00,64.8,46.8,29.67,SE,129,0.0,0.0,52,0.00,,CLR,0.00,VWS V14.01,2013-06-04 15:47:00,
2013-06-04 11:48:00,64.7,46.7,29.68,ESE,115,0.0,4.0,52,0.00,,CLR,0.00,VWS V15.00,2013-06-04 15:48:00,
2013-06-04 11:49:00,64.7,46.2,29.68,SE,143,0.0,1.0,51,0.00,,CLR,0.00,VWS V15.00,2013-06-04 15:49:00,
2013-06-04 11:50:00,64.7,48.2,29.68,SE,143,0.0,0.0,55,0.00,,CLR,0.00,VWS V15.00,2013-06-04 15:50:00,
2013-06-04 11:51:00,64.7,48.7,29.68,SE,143,0.0,1.0,56,0.00,,CLR,0.00,VWS V15.00,2013-06-04 15:51:00,
2013-06-04 11:52:00,64.7,46.2,29.68,SE,144,0.0,1.0,51,0.00,,CLR,0.00,VWS V14.01,2013-06-04 15:52:00,
2013-06-04 11:53:00,64.7,49.1,29.68,SE,143,0.0,1.0,57,0.00,,CLR,0.00,VWS V15.00,2013-06-04 15:53:00,
2013-06-04 11:54:00,64.7,50.5,29.68,SE,143,0.0,0.0,60,0.00,,CLR,0.00,VWS V15.00,2013-06-04 15:54:00,
2013-06-04 11:55:00,64.7,49.1,29.68,SE,124,0.0,2.0,57,0.00,,CLR,0.00,VWS V15.00,2013-06-04 15:55:00,
2013-06-04 11:56:00,64.7,48.2,29.68,SW,227,0.0,1.0,55,0.00,,CLR,0.00,VWS V15.00,2013-06-04 15:56:00,
2013-06-04 11:57:00,64.7,50.5,29.68,SE,143,0.0,0.0,60,0.00,,CLR,0.00,VWS V14.01,2013-06-04 15:57:00,
2013-06-04 11:58:00,64.8,49.7,29.68,SE,134,0.0,1.0,58,0.00,,CLR,0.00,VWS V15.00,2013-06-04 15:58:00,
2013-06-04 11:59:00,64.8,49.2,29.68,SE,141,1.0,7.0,57,0.00,,CLR,0.00,VWS V15.00,2013-06-04 15:59:00,
2013-06-04 12:00:00,64.9,46.9,29.68,SSE,161,0.0,3.0,52,0.00,,CLR,0.00,VWS V15.00,2013-06-04 16:00:00,
2013-06-04 12:01:00,64.9,48.4,29.68,SSE,148,0.0,2.0,55,0.00,,CLR,0.00,VWS V15.00,2013-06-04 16:01:00,
2013-06-04 12:02:00,64.8,49.2,29.68,SE,140,6.0,7.0,57,0.00,,CLR,0.00,VWS V14.01,2013-06-04 16:02:00,
2013-06-04 12:03:00,65.1,48.5,29.68,East,92,1.0,2.0,55,0.00,,CLR,0.00,VWS V15.00,2013-06-04 16:03:00,
2013-06-04 12:04:00,65.1,46.5,29.68,SE,138,0.0,3.0,51,0.00,,CLR,0.00,VWS V15.00,2013-06-04 16:04:00,
2013-06-04 12:05:00,65.2,46.6,29.68,SE,138,0.0,1.0,51,0.00,,CLR,0.00,VWS V15.00,2013-06-04 16:05:00,
2013-06-04 12:06:00,65.2,46.6,29.68,SE,138,0.0,0.0,51,0.00,,CLR,0.00,VWS V15.00,2013-06-04 16:06:00,
2013-06-04 12:07:00,65.1,46.5,29.68,SE,138,1.0,3.0,51,0.00,,CLR,0.00,VWS V14.01,2013-06-04 16:07:00,
2013-06-04 12:08:00,65.2,48.6,29.68,SE,138,0.0,0.0,55,0.00,,CLR,0.00,VWS V15.00,2013-06-04 16:08:00,
2013-06-04 12:09:00,65.2,48.6,29.68,SE,138,0.0,0.0,55,0.00,,CLR,0.00,VWS V15.00,2013-06-04 16:09:00,
2013-06-04 12:10:00,65.3,47.2,29.68,SSE,157,0.0,2.0,52,0.00,,CLR,0.00,VWS V15.00,2013-06-04 16:10:00,
2013-06-04 12:11:00,65.4,48.3,29.69,East,94,3.0,3.0,54,0.00,,CLR,0.00,VWS V15.00,2013-06-04 16:11:00,
2013-06-04 12:12:00,65.2,48.6,29.68,SE,138,0.0,0.0,55,0.00,,CLR,0.00,VWS V14.01,2013-06-04 16:12:00,
2013-06-04 12:13:00,65.6,49.0,29.68,ESE,103,2.0,2.0,55,0.00,,CLR,0.00,VWS V15.00,2013-06-04 16:13:00,
2013-06-04 12:14:00,65.7,47.6,29.68,East,97,2.0,3.0,52,0.00,,CLR,0.00,VWS V15.00,2013-06-04 16:14:00,
2013-06-04 12:15:00,65.8,49.2,29.68,East,96,0.0,2.0,55,0.00,,CLR,0.00,VWS V15.00,2013-06-04 16:15:00,
2013-06-04 12:16:00,65.9,47.8,29.68,West,263,2.0,9.0,52,0.00,,CLR,0.00,VWS V15.00,2013-06-04 16:16:00,
2013-06-04 12:17:00,65.7,49.1,29.68,ESE,105,0.0,3.0,55,0.00,,CLR,0.00,VWS V14.01,2013-06-04 16:17:00,
2013-06-04 12:18:00,66.2,48.1,29.68,SSE,160,0.0,2.0,52,0.00,,CLR,0.00,VWS V15.00,2013-06-04 16:18:00,
2013-06-04 12:19:00,66.3,46.6,29.68,ESE,115,0.0,3.0,49,0.00,,CLR,0.00,VWS V15.00,2013-06-04 16:19:00,
2013-06-04 12:20:00,66.4,47.2,29.68,WSW,242,0.0,1.0,50,0.00,,CLR,0.00,VWS V15.00,2013-06-04 16:20:00,
2013-06-04 12:21:00,66.6,47.9,29.68,WSW,242,0.0,0.0,51,0.00,,CLR,0.00,VWS V15.00,2013-06-04 16:21:00,
2013-06-04 12:22:00,66.2,47.6,29.68,ESE,115,0.0,3.0,51,0.00,,CLR,0.00,VWS V14.01,2013-06-04 16:22:00,
2013-06-04 12:23:00,66.9,49.2,29.69,WSW,254,0.0,3.0,53,0.00,,CLR,0.00,VWS V15.00,2013-06-04 16:23:00,
2013-06-04 12:24:00,67.1,50.4,29.69,SE,140,0.0,7.0,55,0.00,,CLR,0.00,VWS V15.00,2013-06-04 16:24:00,
2013-06-04 12:25:00,67.4,47.6,29.69,SE,140,0.0,1.0,49,0.00,,CLR,0.00,VWS V15.00,2013-06-04 16:25:00,
2013-06-04 12:26:00,67.6,47.8,29.69,East,101,2.0,4.0,49,0.00,,CLR,0.00,VWS V15.00,2013-06-04 16:26:00,
2013-06-04 12:27:00,67.0,50.3,29.69,SE,140,0.0,7.0,55,0.00,,CLR,0.00,VWS V14.01,2013-06-04 16:27:00,
2013-06-04 12:28:00,67.9,49.1,29.69,WSW,246,1.0,3.0,51,0.00,,CLR,0.00,VWS V15.00,2013-06-04 16:28:00,
2013-06-04 12:29:00,68.1,47.7,29.69,SSE,165,0.0,2.0,48,0.00,,CLR,0.00,VWS V15.00,2013-06-04 16:29:00,
2013-06-04 12:30:00,68.3,47.9,29.69,SSE,156,0.0,5.0,48,0.00,,CLR,0.00,VWS V15.00,2013-06-04 16:30:00,
2013-06-04 12:31:00,68.4,48.0,29.68,SSE,156,0.0,0.0,48,0.00,,CLR,0.00,VWS V15.00,2013-06-04 16:31:00,
2013-06-04 12:32:00,68.1,47.7,29.68,SSE,165,0.0,2.0,48,0.00,,CLR,0.00,VWS V14.01,2013-06-04 16:32:00,
2013-06-04 12:33:00,68.7,49.9,29.68,ESE,117,0.0,1.0,51,0.00,,CLR,0.00,VWS V15.00,2013-06-04 16:33:00,
2013-06-04 12:34:00,68.8,48.9,29.68,ESE,109,2.0,3.0,49,0.00,,CLR,0.00,VWS V15.00,2013-06-04 16:34:00,
2013-06-04 12:35:00,68.8,50.0,29.68,ESE,111,1.0,2.0,51,0.00,,CLR,0.00,VWS V15.00,2013-06-04 16:35:00,
2013-06-04 12:36:00,68.9,50.0,29.68,ESE,110,0.0,2.0,51,0.00,,CLR,0.00,VWS V15.00,2013-06-04 16:36:00,
2013-06-04 12:37:00,68.8,48.9,29.68,ESE,109,0.0,1.0,49,0.00,,CLR,0.00,VWS V14.01,2013-06-04 16:37:00,
2013-06-04 12:38:00,69.0,50.1,29.68,ESE,111,0.0,0.0,51,0.00,,CLR,0.00,VWS V15.00,2013-06-04 16:38:00,
2013-06-04 12:39:00,69.1,50.8,29.68,SE,140,4.0,4.0,52,0.00,,CLR,0.00,VWS V15.00,2013-06-04 16:39:00,
2013-06-04 12:40:00,69.1,48.6,29.68,East,86,0.0,4.0,48,0.00,,CLR,0.00,VWS V15.00,2013-06-04 16:40:00,
2013-06-04 12:41:00,69.1,50.8,29.68,East,86,0.0,1.0,52,0.00,,CLR,0.00,VWS V15.00,2013-06-04 16:41:00,
2013-06-04 12:42:00,69.1,50.2,29.68,ESE,111,0.0,0.0,51,0.00,,CLR,0.00,VWS V14.01,2013-06-04 16:42:00,
2013-06-04 12:43:00,69.1,50.2,29.68,East,86,1.0,2.0,51,0.00,,CLR,0.00,VWS V15.00,2013-06-04 16:43:00,
2013-06-04 12:44:00,69.2,49.8,29.68,East,86,1.0,1.0,50,0.00,,CLR,0.00,VWS V15.00,2013-06-04 16:44:00,
2013-06-04 12:45:00,69.2,50.3,29.68,East,91,0.0,2.0,51,0.00,,CLR,0.00,VWS V15.00,2013-06-04 16:45:00,
2013-06-04 12:46:00,69.4,50.5,29.68,SE,135,4.0,4.0,51,0.00,,CLR,0.00,VWS V15.00,2013-06-04 16:46:00,
2013-06-04 12:47:00,69.2,50.3,29.68,East,86,0.0,1.0,51,0.00,,CLR,0.00,VWS V14.01,2013-06-04 16:47:00,
2013-06-04 12:48:00,69.7,49.2,29.68,SW,219,0.0,0.0,48,0.00,,CLR,0.00,VWS V15.00,2013-06-04 16:48:00,
2013-06-04 12:49:00,69.8,48.1,29.68,East,101,0.0,4.0,46,0.00,,CLR,0.00,VWS V15.00,2013-06-04 16:49:00,
2013-06-04 12:50:00,69.9,49.3,29.68,SE,126,3.0,6.0,48,0.00,,CLR,0.00,VWS V15.00,2013-06-04 16:50:00,
2013-06-04 12:51:00,70.0,48.3,29.68,WSW,251,0.0,3.0,46,0.00,,CLR,0.00,VWS V15.00,2013-06-04 16:51:00,
2013-06-04 12:52:00,69.8,49.2,29.68,East,101,0.0,4.0,48,0.00,,CLR,0.00,VWS V14.01,2013-06-04 16:52:00,
2013-06-04 12:53:00,70.3,48.0,29.68,SSE,163,0.0,1.0,45,0.00,,CLR,0.00,VWS V15.00,2013-06-04 16:53:00,
2013-06-04 12:54:00,70.4,50.3,29.68,SSE,163,0.0,0.0,49,0.00,,CLR,0.00,VWS V15.00,2013-06-04 16:54:00,
2013-06-04 12:55:00,70.5,50.4,29.68,SSE,163,0.0,1.0,49,0.00,,CLR,0.00,VWS V15.00,2013-06-04 16:55:00,
2013-06-04 12:56:00,70.6,50.0,29.68,SSE,163,0.0,0.0,48,0.00,,CLR,0.00,VWS V15.00,2013-06-04 16:56:00,
2013-06-04 12:57:00,70.4,49.8,29.68,SSE,163,0.0,0.0,48,0.00,,CLR,0.00,VWS V14.01,2013-06-04 16:57:00,
2013-06-04 12:58:00,70.7,51.7,29.68,ESE,113,0.0,1.0,51,0.00,,CLR,0.00,VWS V15.00,2013-06-04 16:58:00,
2013-06-04 12:59:00,70.7,49.5,29.68,ESE,113,2.0,3.0,47,0.00,,CLR,0.00,VWS V15.00,2013-06-04 16:59:00,
2013-06-04 13:00:00,70.6,51.6,29.68,ENE,70,0.0,3.0,51,0.00,,CLR,0.00,VWS V15.00,2013-06-04 17:00:00,
2013-06-04 13:01:00,70.6,51.6,29.68,ENE,78,0.0,4.0,51,0.00,,CLR,0.00,VWS V15.00,2013-06-04 17:01:00,
2013-06-04 13:02:00,70.7,49.5,29.68,ESE,113,0.0,0.0,47,0.00,,FEW055,0.00,VWS V14.01,2013-06-04 17:02:00,
2013-06-04 13:03:00,70.6,50.0,29.68,East,90,0.0,3.0,48,0.00,,CLR,0.00,VWS V15.00,2013-06-04 17:03:00,
2013-06-04 13:04:00,70.7,51.7,29.68,East,84,0.0,1.0,51,0.00,,CLR,0.00,VWS V15.00,2013-06-04 17:04:00,
2013-06-04 13:05:00,70.8,50.7,29.68,ESE,122,6.0,6.0,49,0.00,,CLR,0.00,VWS V15.00,2013-06-04 17:05:00,
2013-06-04 13:06:00,70.8,47.8,29.68,ESE,104,0.0,6.0,44,0.00,,CLR,0.00,VWS V15.00,2013-06-04 17:06:00,
2013-06-04 13:07:00,70.7,51.7,29.68,East,84,0.0,1.0,51,0.00,,FEW055,0.00,VWS V14.01,2013-06-04 17:07:00,
2013-06-04 13:08:00,70.8,49.6,29.68,WNW,286,1.0,4.0,47,0.00,,CLR,0.00,VWS V15.00,2013-06-04 17:08:00,
2013-06-04 13:09:00,70.8,49.6,29.68,WNW,284,0.0,1.0,47,0.00,,CLR,0.00,VWS V15.00,2013-06-04 17:09:00,
2013-06-04 13:10:00,71.0,50.3,29.68,WNW,285,1.0,1.0,48,0.00,,CLR,0.00,VWS V15.00,2013-06-04 17:10:00,
2013-06-04 13:11:00,71.1,53.1,29.68,East,90,0.0,1.0,53,0.00,,CLR,0.00,VWS V15.00,2013-06-04 17:11:00,
2013-06-04 13:12:00,70.8,49.6,29.68,WNW,284,0.0,1.0,47,0.00,,FEW055,0.00,VWS V14.01,2013-06-04 17:12:00,
2013-06-04 13:13:00,71.0,52.0,29.68,East,90,0.0,3.0,51,0.00,,CLR,0.00,VWS V15.00,2013-06-04 17:13:00,
2013-06-04 13:14:00,71.0,52.0,29.68,East,90,0.0,0.0,51,0.00,,CLR,0.00,VWS V15.00,2013-06-04 17:14:00,
2013-06-04 13:15:00,71.1,53.1,29.68,East,90,0.0,1.0,53,0.00,,CLR,0.00,VWS V15.00,2013-06-04 17:15:00,
2013-06-04 13:16:00,71.1,51.5,29.68,ESE,114,2.0,2.0,50,0.00,,CLR,0.00,VWS V15.00,2013-06-04 17:16:00,
2013-06-04 13:17:00,71.1,52.1,29.68,East,90,0.0,0.0,51,0.00,,FEW055,0.00,VWS V14.01,2013-06-04 17:17:00,
2013-06-04 13:18:00,71.3,50.0,29.68,SSE,155,0.0,2.0,47,0.00,,CLR,0.00,VWS V15.00,2013-06-04 17:18:00,
2013-06-04 13:19:00,71.3,51.7,29.69,SSE,152,0.0,1.0,50,0.00,,CLR,0.00,VWS V15.00,2013-06-04 17:19:00,
2013-06-04 13:20:00,71.5,51.9,29.68,SE,126,3.0,3.0,50,0.00,,CLR,0.00,VWS V15.00,2013-06-04 17:20:00,
2013-06-04 13:21:00,71.6,52.5,29.68,SW,225,2.0,3.0,51,0.00,,CLR,0.00,VWS V15.00,2013-06-04 17:21:00,
2013-06-04 13:22:00,71.3,50.0,29.68,SSE,152,0.0,1.0,47,0.00,,FEW055,0.00,VWS V14.01,2013-06-04 17:22:00,
2013-06-04 13:23:00,72.0,50.7,29.68,East,86,0.0,2.0,47,0.00,,CLR,0.00,VWS V15.00,2013-06-04 17:23:00,
2013-06-04 13:24:00,72.2,50.3,29.69,SE,124,2.0,2.0,46,0.00,,CLR,0.00,VWS V15.00,2013-06-04 17:24:00,
2013-06-04 13:25:00,72.3,48.6,29.68,SSE,160,0.0,2.0,43,0.00,,CLR,0.00,VWS V15.00,2013-06-04 17:25:00,
2013-06-04 13:26:00,72.5,49.4,29.69,WSW,250,0.0,3.0,44,0.00,,CLR,0.00,VWS V15.00,2013-06-04 17:26:00,
2013-06-04 13:27:00,72.1,51.3,29.68,East,88,0.0,1.0,48,0.00,,FEW055,0.00,VWS V14.01,2013-06-04 17:27:00,
2013-06-04 13:28:00,72.6,50.1,29.69,SSW,200,0.0,0.0,45,0.00,,CLR,0.00,VWS V15.00,2013-06-04 17:28:00,
2013-06-04 13:29:00,72.6,51.8,29.69,SSW,205,0.0,7.0,48,0.00,,CLR,0.00,VWS V15.00,2013-06-04 17:29:00,
2013-06-04 13:30:00,72.6,49.5,29.69,ESE,119,0.0,0.0,44,0.00,,CLR,0.00,VWS V15.00,2013-06-04 17:30:00,
2013-06-04 13:31:00,72.6,50.1,29.69,ESE,119,0.0,1.0,45,0.00,,CLR,0.00,VWS V15.00,2013-06-04 17:31:00,
2013-06-04 13:32:00,72.7,51.9,29.69,SE,142,7.0,7.0,48,0.00,,FEW055,0.00,VWS V14.01,2013-06-04 17:32:00,
2013-06-04 13:33:00,72.5,48.8,29.69,SE,130,1.0,4.0,43,0.00,,CLR,0.00,VWS V15.00,2013-06-04 17:33:00,
2013-06-04 13:34:00,72.4,50.5,29.69,ESE,118,0.0,3.0,46,0.00,,CLR,0.00,VWS V15.00,2013-06-04 17:34:00,
2013-06-04 13:35:00,72.3,49.8,29.69,ESE,118,0.0,0.0,45,0.00,,CLR,0.00,VWS V15.00,2013-06-04 17:35:00,
2013-06-04 13:36:00,72.2,49.7,29.68,ESE,118,0.0,1.0,45,0.00,,CLR,0.00,VWS V15.00,2013-06-04 17:36:00,
2013-06-04 13:37:00,72.4,50.5,29.69,ESE,118,2.0,3.0,46,0.00,,FEW055,0.00,VWS V14.01,2013-06-04 17:37:00,
2013-06-04 13:38:00,72.2,52.5,29.69,SE,126,2.0,2.0,50,0.00,,CLR,0.00,VWS V15.00,2013-06-04 17:38:00,
2013-06-04 13:39:00,72.2,50.3,29.68,SSE,153,1.0,2.0,46,0.00,,CLR,0.00,VWS V15.00,2013-06-04 17:39:00,
2013-06-04 13:40:00,72.2,50.9,29.69,SE,137,0.0,4.0,47,0.00,,CLR,0.00,VWS V15.00,2013-06-04 17:40:00,
2013-06-04 13:41:00,72.3,51.0,29.68,SE,136,0.0,1.0,47,0.00,,CLR,0.00,VWS V15.00,2013-06-04 17:41:00,
2013-06-04 13:42:00,72.2,50.3,29.68,WSW,248,0.0,2.0,46,0.00,,FEW055,0.00,VWS V14.01,2013-06-04 17:42:00,
2013-06-04 13:43:00,72.4,51.6,29.68,SW,229,0.0,3.0,48,0.00,,CLR,0.00,VWS V15.00,2013-06-04 17:43:00,
2013-06-04 13:44:00,72.4,50.5,29.69,SW,227,0.0,1.0,46,0.00,,CLR,0.00,VWS V15.00,2013-06-04 17:44:00,
2013-06-04 13:45:00,72.4,51.1,29.69,SSW,207,0.0,1.0,47,0.00,,CLR,0.00,VWS V15.00,2013-06-04 17:45:00,
2013-06-04 13:46:00,72.3,50.4,29.69,SE,130,0.0,1.0,46,0.00,,CLR,0.00,VWS V15.00,2013-06-04 17:46:00,
2013-06-04 13:47:00,72.4,50.5,29.68,SW,229,0.0,1.0,46,0.00,,FEW055,0.00,VWS V14.01,2013-06-04 17:47:00,
2013-06-04 13:48:00,72.3,53.7,29.69,East,98,1.0,1.0,52,0.00,,CLR,0.00,VWS V15.00,2013-06-04 17:48:00,
2013-06-04 13:49:00,72.3,50.4,29.69,SE,134,0.0,3.0,46,0.00,,CLR,0.00,VWS V15.00,2013-06-04 17:49:00,
2013-06-04 13:50:00,72.4,49.9,29.69,East,96,1.0,3.0,45,0.00,,CLR,0.00,VWS V15.00,2013-06-04 17:50:00,
2013-06-04 13:51:00,72.5,52.3,29.69,SE,136,1.0,2.0,49,0.00,,CLR,0.00,VWS V15.00,2013-06-04 17:51:00,
2013-06-04 13:52:00,72.3,53.7,29.69,SE,134,0.0,3.0,52,0.00,,FEW055,0.00,VWS V14.01,2013-06-04 17:52:00,
2013-06-04 13:53:00,72.6,50.1,29.69,SE,129,1.0,5.0,45,0.00,,CLR,0.00,VWS V15.00,2013-06-04 17:53:00,
2013-06-04 13:54:00,72.7,50.8,29.69,SE,129,0.0,1.0,46,0.00,,CLR,0.00,VWS V15.00,2013-06-04 17:54:00,
2013-06-04 13:55:00,72.8,52.0,29.69,SE,129,0.0,1.0,48,0.00,,CLR,0.00,VWS V15.00,2013-06-04 17:55:00,
2013-06-04 13:56:00,73.0,52.7,29.69,SW,214,1.0,2.0,49,0.00,,CLR,0.00,VWS V15.00,2013-06-04 17:56:00,
2013-06-04 13:57:00,72.7,50.2,29.69,SE,129,0.0,1.0,45,0.00,,FEW055,0.00,VWS V14.01,2013-06-04 17:57:00,
2013-06-04 13:58:00,73.2,51.2,29.69,SE,126,1.0,2.0,46,0.00,,CLR,0.00,VWS V15.00,2013-06-04 17:58:00,
2013-06-04 13:59:00,73.4,52.5,29.69,East,86,0.0,4.0,48,0.00,,CLR,0.00,VWS V15.00,2013-06-04 17:59:00,
2013-06-04 14:00:00,73.5,54.3,29.69,East,88,3.0,3.0,51,0.00,,CLR,0.00,VWS V15.00,2013-06-04 18:00:00,
2013-06-04 14:01:00,73.6,52.2,29.69,ENE,78,2.0,4.0,47,0.00,,CLR,0.00,VWS V15.00,2013-06-04 18:01:00,
2013-06-04 14:02:00,73.3,52.5,29.69,East,86,0.0,4.0,48,0.00,,BKN055,0.00,VWS V14.01,2013-06-04 18:02:00,
2013-06-04 14:03:00,73.5,50.9,29.69,East,79,0.0,1.0,45,0.00,,CLR,0.00,VWS V15.00,2013-06-04 18:03:00,
2013-06-04 14:04:00,73.6,52.2,29.69,East,80,2.0,2.0,47,0.00,,CLR,0.00,VWS V15.00,2013-06-04 18:04:00,
2013-06-04 14:05:00,73.5,50.9,29.69,East,84,0.0,3.0,45,0.00,,CLR,0.00,VWS V15.00,2013-06-04 18:05:00,
2013-06-04 14:06:00,73.5,50.9,29.69,East,84,1.0,2.0,45,0.00,,CLR,0.00,VWS V15.00,2013-06-04 18:06:00,
2013-06-04 14:07:00,73.5,52.1,29.69,East,80,0.0,0.0,47,0.00,,BKN055,0.00,VWS V14.01,2013-06-04 18:07:00,
2013-06-04 14:08:00,73.2,51.8,29.69,East,84,0.0,3.0,47,0.00,,CLR,0.00,VWS V15.00,2013-06-04 18:08:00,
2013-06-04 14:09:00,73.0,51.6,29.69,East,84,0.0,1.0,47,0.00,,CLR,0.00,VWS V15.00,2013-06-04 18:09:00,
2013-06-04 14:10:00,72.9,51.5,29.69,East,84,0.0,0.0,47,0.00,,CLR,0.00,VWS V15.00,2013-06-04 18:10:00,
2013-06-04 14:11:00,72.7,50.2,29.69,East,84,0.0,2.0,45,0.00,,CLR,0.00,VWS V15.00,2013-06-04 18:11:00,
2013-06-04 14:12:00,73.1,51.7,29.69,East,84,0.0,1.0,47,0.00,,BKN055,0.00,VWS V14.01,2013-06-04 18:12:00,
2013-06-04 14:13:00,72.4,51.6,29.69,East,84,0.0,0.0,48,0.00,,CLR,0.00,VWS V15.00,2013-06-04 18:13:00,
2013-06-04 14:14:00,72.2,51.4,29.69,East,84,0.0,0.0,48,0.00,,CLR,0.00,VWS V15.00,2013-06-04 18:14:00,
2013-06-04 14:15:00,72.1,50.2,29.69,SW,216,0.0,1.0,46,0.00,,CLR,0.00,VWS V15.00,2013-06-04 18:15:00,
2013-06-04 14:16:00,72.0,50.1,29.69,SW,217,0.0,0.0,46,0.00,,CLR,0.00,VWS V15.00,2013-06-04 18:16:00,
2013-06-04 14:17:00,72.3,51.5,29.69,East,84,0.0,0.0,48,0.00,,BKN055,0.00,VWS V14.01,2013-06-04 18:17:00,
2013-06-04 14:18:00,71.9,52.3,29.69,East,101,0.0,3.0,50,0.00,,CLR,0.00,VWS V15.00,2013-06-04 18:18:00,
2013-06-04 14:19:00,71.8,51.1,29.69,SSE,149,0.0,3.0,48,0.00,,CLR,0.00,VWS V15.00,2013-06-04 18:19:00,
2013-06-04 14:20:00,71.7,50.4,29.69,SSE,149,0.0,1.0,47,0.00,,CLR,0.00,VWS V15.00,2013-06-04 18:20:00,
2013-06-04 14:21:00,71.8,51.6,29.69,East,89,0.0,3.0,49,0.00,,CLR,0.00,VWS V15.00,2013-06-04 18:21:00,
2013-06-04 14:22:00,71.9,51.2,29.69,SSE,157,0.0,2.0,48,0.00,,BKN055,0.00,VWS V14.01,2013-06-04 18:22:00,
2013-06-04 14:23:00,71.9,51.7,29.69,East,89,0.0,0.0,49,0.00,,CLR,0.00,VWS V15.00,2013-06-04 18:23:00,
2013-06-04 14:24:00,72.1,53.0,29.69,East,88,1.0,1.0,51,0.00,,CLR,0.00,VWS V15.00,2013-06-04 18:24:00,
2013-06-04 14:25:00,72.1,50.8,29.69,West,269,0.0,3.0,47,0.00,,CLR,0.00,VWS V15.00,2013-06-04 18:25:00,
2013-06-04 14:26:00,72.3,50.4,29.69,West,268,0.0,0.0,46,0.00,,CLR,0.00,VWS V15.00,2013-06-04 18:26:00,
2013-06-04 14:27:00,72.0,51.8,29.69,East,88,0.0,0.0,49,0.00,,BKN055,0.00,VWS V14.01,2013-06-04 18:27:00,
2013-06-04 14:28:00,72.4,51.6,29.69,East,86,0.0,2.0,48,0.00,,CLR,0.00,VWS V15.00,2013-06-04 18:28:00,
2013-06-04 14:29:00,72.4,52.2,29.69,East,86,0.0,0.0,49,0.00,,CLR,0.00,VWS V15.00,2013-06-04 18:29:00,
2013-06-04 14:30:00,72.5,52.8,29.69,East,86,0.0,1.0,50,0.00,,CLR,0.00,VWS V15.00,2013-06-04 18:30:00,
2013-06-04 14:31:00,72.5,51.7,29.69,East,86,0.0,0.0,48,0.00,,CLR,0.00,VWS V15.00,2013-06-04 18:31:00,
2013-06-04 14:32:00,72.4,51.6,29.69,East,86,0.0,0.0,48,0.00,,BKN055,0.00,VWS V14.01,2013-06-04 18:32:00,
2013-06-04 14:33:00,72.6,52.4,29.69,SE,138,0.0,2.0,49,0.00,,CLR,0.00,VWS V15.00,2013-06-04 18:33:00,
2013-06-04 14:34:00,72.7,50.2,29.69,South,178,0.0,1.0,45,0.00,,CLR,0.00,VWS V15.00,2013-06-04 18:34:00,
2013-06-04 14:35:00,72.8,50.2,29.69,SSE,155,0.0,3.0,45,0.00,,CLR,0.00,VWS V15.00,2013-06-04 18:35:00,
2013-06-04 14:36:00,72.9,50.9,29.69,ESE,122,5.0,5.0,46,0.00,,CLR,0.00,VWS V15.00,2013-06-04 18:36:00,
2013-06-04 14:37:00,72.7,50.2,29.69,South,181,1.0,1.0,45,0.00,,BKN055,0.00,VWS V14.01,2013-06-04 18:37:00,
2013-06-04 14:38:00,73.0,49.2,29.69,ESE,111,2.0,7.0,43,0.00,,CLR,0.00,VWS V15.00,2013-06-04 18:38:00,
2013-06-04 14:39:00,73.0,50.4,29.69,North,360,0.0,6.0,45,0.00,,CLR,0.00,VWS V15.00,2013-06-04 18:39:00,
2013-06-04 14:40:00,73.0,49.2,29.69,West,263,3.0,4.0,43,0.00,,CLR,0.00,VWS V15.00,2013-06-04 18:40:00,
2013-06-04 14:41:00,73.0,49.2,29.69,ESE,115,0.0,5.0,43,0.00,,CLR,0.00,VWS V15.00,2013-06-04 18:41:00,
2013-06-04 14:42:00,73.0,50.4,29.69,SW,218,0.0,6.0,45,0.00,,BKN055,0.00,VWS V14.01,2013-06-04 18:42:00,
2013-06-04 14:43:00,73.1,50.5,29.69,ESE,111,3.0,3.0,45,0.00,,CLR,0.00,VWS V15.00,2013-06-04 18:43:00,
2013-06-04 14:44:00,73.1,51.7,29.69,SSW,193,0.0,3.0,47,0.00,,CLR,0.00,VWS V15.00,2013-06-04 18:44:00,
2013-06-04 14:45:00,73.3,53.0,29.69,SSW,193,0.0,0.0,49,0.00,,CLR,0.00,VWS V15.00,2013-06-04 18:45:00,
2013-06-04 14:46:00,73.4,51.4,29.69,SSE,154,3.0,4.0,46,0.00,,CLR,0.00,VWS V15.00,2013-06-04 18:46:00,
2013-06-04 14:47:00,73.1,51.7,29.69,South,191,0.0,3.0,47,0.00,,BKN055,0.00,VWS V14.01,2013-06-04 18:47:00,
2013-06-04 14:48:00,73.6,52.7,29.69,SE,133,0.0,2.0,48,0.00,,CLR,0.00,VWS V15.00,2013-06-04 18:48:00,
2013-06-04 14:49:00,73.7,51.7,29.69,WSW,237,2.0,2.0,46,0.00,,CLR,0.00,VWS V15.00,2013-06-04 18:49:00,
2013-06-04 14:50:00,73.8,51.2,29.69,SSE,147,5.0,5.0,45,0.00,,CLR,0.00,VWS V15.00,2013-06-04 18:50:00,
2013-06-04 14:51:00,73.8,49.9,29.69,SE,124,1.0,5.0,43,0.00,,CLR,0.00,VWS V15.00,2013-06-04 18:51:00,
2013-06-04 14:52:00,73.7,51.7,29.69,SE,133,0.0,0.0,46,0.00,,BKN055,0.00,VWS V14.01,2013-06-04 18:52:00,
2013-06-04 14:53:00,73.9,49.4,29.69,ESE,123,0.0,0.0,42,0.00,,CLR,0.00,VWS V15.00,2013-06-04 18:53:00,
2013-06-04 14:54:00,74.0,50.1,29.69,ESE,123,0.0,1.0,43,0.00,,CLR,0.00,VWS V15.00,2013-06-04 18:54:00,
2013-06-04 14:55:00,74.0,49.5,29.69,SSE,163,0.0,5.0,42,0.00,,CLR,0.00,VWS V15.00,2013-06-04 18:55:00,
2013-06-04 14:56:00,74.1,50.8,29.69,WSW,243,0.0,2.0,44,0.00,,CLR,0.00,VWS V15.00,2013-06-04 18:56:00,
2013-06-04 14:57:00,74.0,50.1,29.69,ESE,123,0.0,1.0,43,0.00,,BKN055,0.00,VWS V14.01,2013-06-04 18:57:00,
2013-06-04 14:58:00,74.0,49.5,29.69,WSW,249,1.0,4.0,42,0.00,,CLR,0.00,VWS V15.00,2013-06-04 18:58:00,
2013-06-04 14:59:00,74.0,49.5,29.69,SSE,166,0.0,3.0,42,0.00,,CLR,0.00,VWS V15.00,2013-06-04 18:59:00,
2013-06-04 15:00:00,74.0,48.8,29.69,South,176,0.0,1.0,41,0.00,,CLR,0.00,VWS V15.00,2013-06-04 19:00:00,
2013-06-04 15:01:00,74.0,51.3,29.69,South,176,0.0,0.0,45,0.00,,CLR,0.00,VWS V15.00,2013-06-04 19:01:00,
2013-06-04 15:02:00,74.0,49.5,29.69,SSE,153,1.0,3.0,42,0.00,,BKN055,0.00,VWS V14.01,2013-06-04 19:02:00,
2013-06-04 15:03:00,74.0,51.9,29.69,SE,145,0.0,0.0,46,0.00,,CLR,0.00,VWS V15.00,2013-06-04 19:03:00,
2013-06-04 15:04:00,74.1,51.4,29.69,South,174,0.0,1.0,45,0.00,,CLR,0.00,VWS V15.00,2013-06-04 19:04:00,
2013-06-04 15:05:00,74.1,50.2,29.69,East,87,2.0,2.0,43,0.00,,CLR,0.00,VWS V15.00,2013-06-04 19:05:00,
2013-06-04 15:06:00,74.2,52.7,29.69,East,88,0.0,2.0,47,0.00,,CLR,0.00,VWS V15.00,2013-06-04 19:06:00,
2013-06-04 15:07:00,74.0,51.9,29.69,SSE,156,1.0,1.0,46,0.00,,BKN055,0.00,VWS V14.01,2013-06-04 19:07:00,
2013-06-04 15:08:00,74.4,52.9,29.69,ESE,118,0.0,2.0,47,0.00,,CLR,0.00,VWS V15.00,2013-06-04 19:08:00,
2013-06-04 15:09:00,74.5,53.0,29.69,ESE,118,0.0,0.0,47,0.00,,CLR,0.00,VWS V15.00,2013-06-04 19:09:00,
2013-06-04 15:10:00,74.6,53.6,29.69,ESE,118,0.0,0.0,48,0.00,,CLR,0.00,VWS V15.00,2013-06-04 19:10:00,
2013-06-04 15:11:00,74.6,50.7,29.69,East,101,0.0,1.0,43,0.00,,CLR,0.00,VWS V15.00,2013-06-04 19:11:00,
2013-06-04 15:12:00,74.4,51.1,29.69,ESE,118,0.0,0.0,44,0.00,,BKN055,0.00,VWS V14.01,2013-06-04 19:12:00,
2013-06-04 15:13:00,74.4,49.8,29.69,SSE,151,0.0,3.0,42,0.00,,CLR,0.00,VWS V15.00,2013-06-04 19:13:00,
2013-06-04 15:14:00,74.2,49.7,29.69,SSE,150,0.0,1.0,42,0.00,,CLR,0.00,VWS V15.00,2013-06-04 19:14:00,
2013-06-04 15:15:00,74.1,50.8,29.69,SE,144,3.0,4.0,44,0.00,,CLR,0.00,VWS V15.00,2013-06-04 19:15:00,
2013-06-04 15:16:00,74.0,50.7,29.69,SE,144,0.0,3.0,44,0.00,,CLR,0.00,VWS V15.00,2013-06-04 19:16:00,
2013-06-04 15:17:00,74.3,49.8,29.69,SSE,150,0.0,1.0,42,0.00,,BKN055,0.00,VWS V14.01,2013-06-04 19:17:00,
2013-06-04 15:18:00,73.8,49.9,29.69,SSE,151,0.0,1.0,43,0.00,,CLR,0.00,VWS V15.00,2013-06-04 19:18:00,
2013-06-04 15:19:00,73.8,49.9,29.69,SSE,161,0.0,3.0,43,0.00,,CLR,0.00,VWS V15.00,2013-06-04 19:19:00,
2013-06-04 15:20:00,73.8,49.3,29.69,SSE,161,0.0,0.0,42,0.00,,CLR,0.00,VWS V15.00,2013-06-04 19:20:00,
2013-06-04 15:21:00,73.9,49.4,29.69,SSE,161,0.0,0.0,42,0.00,,CLR,0.00,VWS V15.00,2013-06-04 19:21:00,
2013-06-04 15:22:00,73.8,49.9,29.69,SE,132,0.0,3.0,43,0.00,,BKN055,0.00,VWS V14.01,2013-06-04 19:22:00,
2013-06-04 15:23:00,73.9,48.7,29.69,West,274,0.0,2.0,41,0.00,,CLR,0.00,VWS V15.00,2013-06-04 19:23:00,
2013-06-04 15:24:00,73.9,48.7,29.69,West,273,0.0,1.0,41,0.00,,CLR,0.00,VWS V15.00,2013-06-04 19:24:00,
2013-06-04 15:25:00,74.0,50.7,29.69,West,275,0.0,0.0,44,0.00,,CLR,0.00,VWS V15.00,2013-06-04 19:25:00,
2013-06-04 15:26:00,74.1,52.0,29.69,East,96,1.0,1.0,46,0.00,,CLR,0.00,VWS V15.00,2013-06-04 19:26:00,
2013-06-04 15:27:00,73.9,48.7,29.69,West,273,0.0,1.0,41,0.00,,BKN055,0.00,VWS V14.01,2013-06-04 19:27:00,
2013-06-04 15:28:00,74.0,52.5,29.68,East,96,0.0,1.0,47,0.00,,CLR,0.00,VWS V15.00,2013-06-04 19:28:00,
2013-06-04 15:29:00,73.9,51.8,29.69,South,173,1.0,2.0,46,0.00,,CLR,0.00,VWS V15.00,2013-06-04 19:29:00,
2013-06-04 15:30:00,74.0,51.9,29.69,SE,129,1.0,1.0,46,0.00,,CLR,0.00,VWS V15.00,2013-06-04 19:30:00,
2013-06-04 15:31:00,74.0,51.9,29.69,ESE,103,0.0,1.0,46,0.00,,CLR,0.00,VWS V15.00,2013-06-04 19:31:00,
2013-06-04 15:32:00,74.0,52.5,29.69,ESE,117,1.0,1.0,47,0.00,,BKN055,0.00,VWS V14.01,2013-06-04 19:32:00,
2013-06-04 15:33:00,74.0,52.5,29.69,ESE,103,0.0,0.0,47,0.00,,CLR,0.00,VWS V15.00,2013-06-04 19:33:00,
2013-06-04 15:34:00,73.9,51.8,29.69,ESE,103,0.0,1.0,46,0.00,,CLR,0.00,VWS V15.00,2013-06-04 19:34:00,
2013-06-04 15:35:00,74.0,51.9,29.69,ESE,103,0.0,0.0,46,0.00,,CLR,0.00,VWS V15.00,2013-06-04 19:35:00,
2013-06-04 15:36:00,74.1,54.3,29.69,ESE,104,1.0,1.0,50,0.00,,CLR,0.00,VWS V15.00,2013-06-04 19:36:00,
2013-06-04 15:37:00,74.0,52.5,29.69,ESE,103,0.0,1.0,47,0.00,,BKN055,0.00,VWS V14.01,2013-06-04 19:37:00,
2013-06-04 15:38:00,74.3,53.9,29.69,ENE,66,0.0,1.0,49,0.00,,CLR,0.00,VWS V15.00,2013-06-04 19:38:00,
2013-06-04 15:39:00,74.4,52.3,29.69,East,87,1.0,2.0,46,0.00,,CLR,0.00,VWS V15.00,2013-06-04 19:39:00,
2013-06-04 15:40:00,74.5,54.1,29.69,East,86,0.0,3.0,49,0.00,,CLR,0.00,VWS V15.00,2013-06-04 19:40:00,
2013-06-04 15:41:00,74.5,53.5,29.69,East,87,0.0,2.0,48,0.00,,CLR,0.00,VWS V15.00,2013-06-04 19:41:00,
2013-06-04 15:42:00,74.4,54.0,29.69,ENE,69,2.0,2.0,49,0.00,,BKN055,0.00,VWS V14.01,2013-06-04 19:42:00,
2013-06-04 15:43:00,74.6,51.9,29.69,SE,134,1.0,1.0,45,0.00,,CLR,0.00,VWS V15.00,2013-06-04 19:43:00,
2013-06-04 15:44:00,74.7,51.4,29.69,SE,134,0.0,1.0,44,0.00,,CLR,0.00,VWS V15.00,2013-06-04 19:44:00,
2013-06-04 15:45:00,74.8,52.7,29.69,ESE,110,0.0,1.0,46,0.00,,CLR,0.00,VWS V15.00,2013-06-04 19:45:00,
2013-06-04 15:46:00,74.7,50.7,29.69,SSE,157,0.0,3.0,43,0.00,,CLR,0.00,VWS V15.00,2013-06-04 19:46:00,
2013-06-04 15:47:00,74.7,51.4,29.69,SE,134,0.0,1.0,44,0.00,,BKN055,0.00,VWS V14.01,2013-06-04 19:47:00,
2013-06-04 15:48:00,74.8,49.5,29.69,SE,138,0.0,1.0,41,0.00,,CLR,0.00,VWS V15.00,2013-06-04 19:48:00,
2013-06-04 15:49:00,74.8,50.8,29.69,East,101,1.0,1.0,43,0.00,,CLR,0.00,VWS V15.00,2013-06-04 19:49:00,
2013-06-04 15:50:00,74.9,52.8,29.69,East,100,0.0,3.0,46,0.00,,CLR,0.00,VWS V15.00,2013-06-04 19:50:00,
2013-06-04 15:51:00,74.9,53.3,29.69,SSW,209,0.0,1.0,47,0.00,,CLR,0.00,VWS V15.00,2013-06-04 19:51:00,
2013-06-04 15:52:00,74.8,50.8,29.69,SE,138,1.0,1.0,43,0.00,,BKN055,0.00,VWS V14.01,2013-06-04 19:52:00,
2013-06-04 15:53:00,74.9,51.5,29.69,West,280,0.0,1.0,44,0.00,,CLR,0.00,VWS V15.00,2013-06-04 19:53:00,
2013-06-04 15:54:00,75.1,51.1,29.69,West,280,0.0,0.0,43,0.00,,CLR,0.00,VWS V15.00,2013-06-04 19:54:00,
2013-06-04 15:55:00,75.2,51.2,29.69,WNW,283,0.0,1.0,43,0.00,,CLR,0.00,VWS V15.00,2013-06-04 19:55:00,
2013-06-04 15:56:00,75.2,52.4,29.69,WNW,283,0.0,0.0,45,0.00,,CLR,0.00,VWS V15.00,2013-06-04 19:56:00,
2013-06-04 15:57:00,75.0,51.0,29.69,West,280,0.0,0.0,43,0.00,,BKN055,0.00,VWS V14.01,2013-06-04 19:57:00,
2013-06-04 15:58:00,75.4,53.2,29.69,East,83,0.0,2.0,46,0.00,,CLR,0.00,VWS V15.00,2013-06-04 19:58:00,
2013-06-04 15:59:00,75.4,53.8,29.69,East,83,0.0,1.0,47,0.00,,CLR,0.00,VWS V15.00,2013-06-04 19:59:00,
2013-06-04 16:00:00,75.4,53.2,29.69,ESE,123,3.0,4.0,46,0.00,,CLR,0.00,VWS V15.00,2013-06-04 20:00:00,
2013-06-04 16:01:00,75.3,50.7,29.69,ESE,123,0.0,2.0,42,0.00,,CLR,0.00,VWS V15.00,2013-06-04 20:01:00,
2013-06-04 16:02:00,75.4,53.8,29.69,East,84,0.0,1.0,47,0.00,,SCT060,0.00,VWS V14.01,2013-06-04 20:02:00,
2013-06-04 16:03:00,75.3,50.0,29.69,SSW,193,0.0,1.0,41,0.00,,CLR,0.00,VWS V15.00,2013-06-04 20:03:00,
2013-06-04 16:04:00,75.3,51.9,29.69,SSW,193,0.0,0.0,44,0.00,,CLR,0.00,VWS V15.00,2013-06-04 20:04:00,
2013-06-04 16:05:00,75.3,52.5,29.69,SSW,193,0.0,1.0,45,0.00,,CLR,0.00,VWS V15.00,2013-06-04 20:05:00,
2013-06-04 16:06:00,75.3,51.9,29.69,South,169,0.0,1.0,44,0.00,,CLR,0.00,VWS V15.00,2013-06-04 20:06:00,
2013-06-04 16:07:00,75.3,51.9,29.69,SSW,193,0.0,0.0,44,0.00,,SCT060,0.00,VWS V14.01,2013-06-04 20:07:00,
2013-06-04 16:08:00,75.2,51.2,29.69,East,95,0.0,1.0,43,0.00,,CLR,0.00,VWS V15.00,2013-06-04 20:08:00,
2013-06-04 16:09:00,75.1,52.3,29.69,East,95,0.0,1.0,45,0.00,,CLR,0.00,VWS V15.00,2013-06-04 20:09:00,
2013-06-04 16:10:00,75.1,50.5,29.69,East,95,1.0,1.0,42,0.00,,CLR,0.00,VWS V15.00,2013-06-04 20:10:00,
2013-06-04 16:11:00,75.0,49.7,29.69,SE,136,0.0,2.0,41,0.00,,CLR,0.00,VWS V15.00,2013-06-04 20:11:00,
2013-06-04 16:12:00,75.1,51.1,29.69,East,95,0.0,0.0,43,0.00,,SCT060,0.00,VWS V14.01,2013-06-04 20:12:00,
2013-06-04 16:13:00,74.7,50.1,29.69,WSW,240,0.0,5.0,42,0.00,,CLR,0.00,VWS V15.00,2013-06-04 20:13:00,
2013-06-04 16:14:00,74.6,49.4,29.69,SSW,199,0.0,0.0,41,0.00,,CLR,0.00,VWS V15.00,2013-06-04 20:14:00,
2013-06-04 16:15:00,74.6,48.7,29.69,SE,128,0.0,4.0,40,0.00,,CLR,0.00,VWS V15.00,2013-06-04 20:15:00,
2013-06-04 16:16:00,74.5,50.6,29.69,ESE,117,1.0,1.0,43,0.00,,CLR,0.00,VWS V15.00,2013-06-04 20:16:00,
2013-06-04 16:17:00,74.7,50.1,29.69,SSW,199,0.0,0.0,42,0.00,,SCT060,0.00,VWS V14.01,2013-06-04 20:17:00,
2013-06-04 16:18:00,74.5,53.0,29.69,East,86,0.0,3.0,47,0.00,,CLR,0.00,VWS V15.00,2013-06-04 20:18:00,
2013-06-04 16:19:00,74.4,52.9,29.69,East,86,0.0,1.0,47,0.00,,CLR,0.00,VWS V15.00,2013-06-04 20:19:00,
2013-06-04 16:20:00,74.4,51.1,29.69,SE,132,2.0,2.0,44,0.00,,CLR,0.00,VWS V15.00,2013-06-04 20:20:00,
2013-06-04 16:21:00,74.2,49.7,29.69,SE,132,0.0,2.0,42,0.00,,CLR,0.00,VWS V15.00,2013-06-04 20:21:00,
2013-06-04 16:22:00,74.4,51.1,29.69,East,86,0.0,0.0,44,0.00,,SCT060,0.00,VWS V14.01,2013-06-04 20:22:00,
2013-06-04 16:23:00,74.1,51.4,29.68,ESE,105,0.0,2.0,45,0.00,,CLR,0.00,VWS V15.00,2013-06-04 20:23:00,
2013-06-04 16:24:00,74.1,50.2,29.68,SSE,167,0.0,6.0,43,0.00,,CLR,0.00,VWS V15.00,2013-06-04 20:24:00,
2013-06-04 16:25:00,74.0,49.5,29.69,SE,141,0.0,2.0,42,0.00,,CLR,0.00,VWS V15.00,2013-06-04 20:25:00,
2013-06-04 16:26:00,74.0,49.5,29.69,SSE,158,0.0,1.0,42,0.00,,CLR,0.00,VWS V15.00,2013-06-04 20:26:00,
2013-06-04 16:27:00,74.1,50.2,29.68,SSW,209,0.0,6.0,43,0.00,,SCT060,0.00,VWS V14.01,2013-06-04 20:27:00,
2013-06-04 16:28:00,73.9,50.0,29.69,SE,139,0.0,0.0,43,0.00,,CLR,0.00,VWS V15.00,2013-06-04 20:28:00,
2013-06-04 16:29:00,73.8,49.3,29.68,SE,128,0.0,4.0,42,0.00,,CLR,0.00,VWS V15.00,2013-06-04 20:29:00,
2013-06-04 16:30:00,73.7,49.2,29.68,SE,128,0.0,0.0,42,0.00,,CLR,0.00,VWS V15.00,2013-06-04 20:30:00,
2013-06-04 16:31:00,73.6,49.1,29.68,ESE,121,0.0,1.0,42,0.00,,CLR,0.00,VWS V15.00,2013-06-04 20:31:00,
2013-06-04 16:32:00,73.8,49.3,29.68,SE,128,0.0,4.0,42,0.00,,SCT060,0.00,VWS V14.01,2013-06-04 20:32:00,
2013-06-04 16:33:00,73.4,47.6,29.69,East,87,1.0,6.0,40,0.00,,CLR,0.00,VWS V15.00,2013-06-04 20:33:00,
2013-06-04 16:34:00,73.2,48.1,29.68,SE,129,1.0,1.0,41,0.00,,CLR,0.00,VWS V15.00,2013-06-04 20:34:00,
2013-06-04 16:35:00,73.0,47.9,29.68,SE,131,0.0,2.0,41,0.00,,CLR,0.00,VWS V15.00,2013-06-04 20:35:00,
2013-06-04 16:36:00,72.9,50.3,29.68,SE,131,0.0,1.0,45,0.00,,CLR,0.00,VWS V15.00,2013-06-04 20:36:00,
2013-06-04 16:37:00,73.2,48.1,29.68,East,87,0.0,1.0,41,0.00,,SCT060,0.00,VWS V14.01,2013-06-04 20:37:00,
2013-06-04 16:38:00,72.7,50.2,29.69,ESE,122,0.0,3.0,45,0.00,,CLR,0.00,VWS V15.00,2013-06-04 20:38:00,
2013-06-04 16:39:00,72.6,50.1,29.69,SSE,160,0.0,0.0,45,0.00,,CLR,0.00,VWS V15.00,2013-06-04 20:39:00,
2013-06-04 16:40:00,72.6,50.7,29.69,SSE,160,0.0,0.0,46,0.00,,CLR,0.00,VWS V15.00,2013-06-04 20:40:00,
2013-06-04 16:41:00,72.5,52.3,29.69,SW,229,0.0,1.0,49,0.00,,CLR,0.00,VWS V15.00,2013-06-04 20:41:00,
2013-06-04 16:42:00,72.7,50.2,29.69,SSE,160,0.0,0.0,45,0.00,,SCT060,0.00,VWS V14.01,2013-06-04 20:42:00,
2013-06-04 16:43:00,72.3,48.6,29.68,South,169,0.0,1.0,43,0.00,,CLR,0.00,VWS V15.00,2013-06-04 20:43:00,
2013-06-04 16:44:00,72.2,47.9,29.68,South,169,0.0,0.0,42,0.00,,CLR,0.00,VWS V15.00,2013-06-04 20:44:00,
2013-06-04 16:45:00,72.2,49.7,29.69,South,169,0.0,0.0,45,0.00,,CLR,0.00,VWS V15.00,2013-06-04 20:45:00,
2013-06-04 16:46:00,72.2,50.9,29.69,South,169,0.0,0.0,47,0.00,,CLR,0.00,VWS V15.00,2013-06-04 20:46:00,
2013-06-04 16:47:00,72.3,48.6,29.68,South,169,0.0,0.0,43,0.00,,SCT060,0.00,VWS V14.01,2013-06-04 20:47:00,
2013-06-04 16:48:00,72.1,51.9,29.69,SSE,161,0.0,2.0,49,0.00,,CLR,0.00,VWS V15.00,2013-06-04 20:48:00,
2013-06-04 16:49:00,72.0,48.9,29.69,SSE,151,1.0,1.0,44,0.00,,CLR,0.00,VWS V15.00,2013-06-04 20:49:00,
2013-06-04 16:50:00,71.9,50.6,29.69,SSE,151,0.0,1.0,47,0.00,,CLR,0.00,VWS V15.00,2013-06-04 20:50:00,
2013-06-04 16:51:00,71.9,49.4,29.69,ESE,117,2.0,5.0,45,0.00,,CLR,0.00,VWS V15.00,2013-06-04 20:51:00,
2013-06-04 16:52:00,72.0,48.9,29.69,SSE,161,0.0,1.0,44,0.00,,SCT060,0.00,VWS V14.01,2013-06-04 20:52:00,
2013-06-04 16:53:00,71.7,49.8,29.69,SE,133,0.0,1.0,46,0.00,,CLR,0.00,VWS V15.00,2013-06-04 20:53:00,
2013-06-04 16:54:00,71.7,51.0,29.69,SE,133,0.0,0.0,48,0.00,,CLR,0.00,VWS V15.00,2013-06-04 20:54:00,
2013-06-04 16:55:00,71.7,52.1,29.69,SE,134,0.0,0.0,50,0.00,,CLR,0.00,VWS V15.00,2013-06-04 20:55:00,
2013-06-04 16:56:00,71.6,50.3,29.69,SE,136,0.0,1.0,47,0.00,,CLR,0.00,VWS V15.00,2013-06-04 20:56:00,
2013-06-04 16:57:00,71.7,51.0,29.69,SE,133,0.0,0.0,48,0.00,,SCT060,0.00,VWS V14.01,2013-06-04 20:57:00,
2013-06-04 16:58:00,71.5,50.2,29.69,WSW,246,1.0,3.0,47,0.00,,CLR,0.00,VWS V15.00,2013-06-04 20:58:00,
2013-06-04 16:59:00,71.4,50.1,29.69,SSW,207,0.0,1.0,47,0.00,,CLR,0.00,VWS V15.00,2013-06-04 20:59:00,
2013-06-04 17:00:00,71.4,49.6,29.69,SSW,194,0.0,1.0,46,0.00,,CLR,0.00,VWS V15.00,2013-06-04 21:00:00,
2013-06-04 17:01:00,71.3,48.9,29.69,SE,144,0.0,2.0,45,0.00,,CLR,0.00,VWS V15.00,2013-06-04 21:01:00,
2013-06-04 17:02:00,71.5,50.2,29.69,SSW,207,0.0,1.0,47,0.00,,FEW055,0.00,VWS V14.01,2013-06-04 21:02:00,
2013-06-04 17:03:00,71.3,52.3,29.69,ESE,117,0.0,0.0,51,0.00,,CLR,0.00,VWS V15.00,2013-06-04 21:03:00,
2013-06-04 17:04:00,71.3,50.0,29.69,ESE,121,0.0,2.0,47,0.00,,CLR,0.00,VWS V15.00,2013-06-04 21:04:00,
2013-06-04 17:05:00,71.3,51.2,29.69,East,80,0.0,3.0,49,0.00,,CLR,0.00,VWS V15.00,2013-06-04 21:05:00,
2013-06-04 17:06:00,71.2,50.0,29.69,SSE,159,0.0,4.0,47,0.00,,CLR,0.00,VWS V15.00,2013-06-04 21:06:00,
2013-06-04 17:07:00,71.3,50.0,29.69,ESE,121,0.0,2.0,47,0.00,,FEW055,0.00,VWS V14.01,2013-06-04 21:07:00,
2013-06-04 17:08:00,71.1,48.7,29.69,SSE,166,0.0,1.0,45,0.00,,CLR,0.00,VWS V15.00,2013-06-04 21:08:00,
2013-06-04 17:09:00,71.0,49.2,29.69,SSE,166,0.0,0.0,46,0.00,,CLR,0.00,VWS V15.00,2013-06-04 21:09:00,
2013-06-04 17:10:00,71.0,50.3,29.69,SSE,157,0.0,3.0,48,0.00,,CLR,0.00,VWS V15.00,2013-06-04 21:10:00,
2013-06-04 17:11:00,71.0,48.6,29.69,SSE,156,0.0,1.0,45,0.00,,CLR,0.00,VWS V15.00,2013-06-04 21:11:00,
2013-06-04 17:12:00,71.0,49.2,29.69,SSE,166,0.0,0.0,46,0.00,,FEW055,0.00,VWS V14.01,2013-06-04 21:12:00,
2013-06-04 17:13:00,70.9,49.7,29.69,SSE,156,0.0,0.0,47,0.00,,CLR,0.00,VWS V15.00,2013-06-04 21:13:00,
2013-06-04 17:14:00,70.9,49.7,29.69,ESE,105,0.0,5.0,47,0.00,,CLR,0.00,VWS V15.00,2013-06-04 21:14:00,
2013-06-04 17:15:00,70.8,47.8,29.69,ESE,109,0.0,2.0,44,0.00,,CLR,0.00,VWS V15.00,2013-06-04 21:15:00,
2013-06-04 17:16:00,70.8,49.6,29.69,ESE,109,0.0,0.0,47,0.00,,CLR,0.00,VWS V15.00,2013-06-04 21:16:00,
2013-06-04 17:17:00,70.9,49.7,29.69,ESE,105,5.0,5.0,47,0.00,,FEW055,0.00,VWS V14.01,2013-06-04 21:17:00,
2013-06-04 17:18:00,70.7,48.9,29.69,ESE,117,0.0,0.0,46,0.00,,CLR,0.00,VWS V15.00,2013-06-04 21:18:00,
2013-06-04 17:19:00,70.7,54.2,29.69,ESE,117,0.0,0.0,56,0.00,,CLR,0.00,VWS V15.00,2013-06-04 21:19:00,
2013-06-04 17:20:00,70.7,54.2,29.69,ESE,117,0.0,0.0,56,0.00,,CLR,0.00,VWS V15.00,2013-06-04 21:20:00,
2013-06-04 17:21:00,70.6,50.0,29.69,ESE,117,0.0,1.0,48,0.00,,CLR,0.00,VWS V15.00,2013-06-04 21:21:00,
2013-06-04 17:22:00,70.7,51.7,29.69,ESE,117,0.0,0.0,51,0.00,,FEW055,0.00,VWS V14.01,2013-06-04 21:22:00,
2013-06-04 17:23:00,70.5,54.5,29.69,ESE,117,0.0,0.0,57,0.00,,CLR,0.00,VWS V15.00,2013-06-04 21:23:00,
2013-06-04 17:24:00,70.4,49.8,29.69,ESE,117,0.0,0.0,48,0.00,,CLR,0.00,VWS V15.00,2013-06-04 21:24:00,
2013-06-04 17:25:00,70.4,48.7,29.69,East,98,0.0,5.0,46,0.00,,CLR,0.00,VWS V15.00,2013-06-04 21:25:00,
2013-06-04 17:26:00,70.3,48.0,29.69,SE,132,0.0,5.0,45,0.00,,CLR,0.00,VWS V15.00,2013-06-04 21:26:00,
2013-06-04 17:27:00,70.4,50.9,29.69,ESE,117,0.0,0.0,50,0.00,,FEW055,0.00,VWS V14.01,2013-06-04 21:27:00,
2013-06-04 17:28:00,70.3,48.0,29.69,East,86,1.0,1.0,45,0.00,,CLR,0.00,VWS V15.00,2013-06-04 21:28:00,
2013-06-04 17:29:00,70.3,48.6,29.69,East,84,0.0,1.0,46,0.00,,CLR,0.00,VWS V15.00,2013-06-04 21:29:00,
2013-06-04 17:30:00,70.3,48.6,29.69,ESE,122,0.0,2.0,46,0.00,,CLR,0.00,VWS V15.00,2013-06-04 21:30:00,
2013-06-04 17:31:00,70.3,49.1,29.69,ESE,122,0.0,0.0,47,0.00,,CLR,0.00,VWS V15.00,2013-06-04 21:31:00,
2013-06-04 17:32:00,70.3,48.6,29.69,East,84,0.0,1.0,46,0.00,,FEW055,0.00,VWS V14.01,2013-06-04 21:32:00,
2013-06-04 17:33:00,70.3,51.3,29.69,WSW,248,0.0,1.0,51,0.00,,CLR,0.00,VWS V15.00,2013-06-04 21:33:00,
2013-06-04 17:34:00,70.3,50.3,29.69,WSW,248,0.0,0.0,49,0.00,,CLR,0.00,VWS V15.00,2013-06-04 21:34:00,
2013-06-04 17:35:00,70.2,52.3,29.69,WSW,248,0.0,0.0,53,0.00,,CLR,0.00,VWS V15.00,2013-06-04 21:35:00,
2013-06-04 17:36:00,70.1,52.2,29.69,SW,236,0.0,1.0,53,0.00,,CLR,0.00,VWS V15.00,2013-06-04 21:36:00,
2013-06-04 17:37:00,70.3,50.3,29.69,WSW,248,0.0,0.0,49,0.00,,FEW055,0.00,VWS V14.01,2013-06-04 21:37:00,
2013-06-04 17:38:00,70.0,49.4,29.69,SSE,165,1.0,1.0,48,0.00,,CLR,0.00,VWS V15.00,2013-06-04 21:38:00,
2013-06-04 17:39:00,70.0,49.4,29.69,SSE,165,0.0,1.0,48,0.00,,CLR,0.00,VWS V15.00,2013-06-04 21:39:00,
2013-06-04 17:40:00,70.0,50.5,29.69,SSE,165,0.0,0.0,50,0.00,,CLR,0.00,VWS V15.00,2013-06-04 21:40:00,
2013-06-04 17:41:00,69.9,52.0,29.69,SSE,165,0.0,0.0,53,0.00,,CLR,0.00,VWS V15.00,2013-06-04 21:41:00,
2013-06-04 17:42:00,70.0,49.4,29.69,SSE,165,0.0,1.0,48,0.00,,FEW055,0.00,VWS V14.01,2013-06-04 21:42:00,
2013-06-04 17:43:00,69.9,51.5,29.69,SSE,165,0.0,0.0,52,0.00,,CLR,0.00,VWS V15.00,2013-06-04 21:43:00,
2013-06-04 17:44:00,69.9,51.5,29.69,SSE,165,0.0,0.0,52,0.00,,CLR,0.00,VWS V15.00,2013-06-04 21:44:00,
2013-06-04 17:45:00,69.9,51.0,29.69,SSE,165,0.0,0.0,51,0.00,,CLR,0.00,VWS V15.00,2013-06-04 21:45:00,
2013-06-04 17:46:00,69.8,51.4,29.69,SSE,165,0.0,0.0,52,0.00,,CLR,0.00,VWS V15.00,2013-06-04 21:46:00,
2013-06-04 17:47:00,69.9,51.5,29.69,SSE,165,0.0,0.0,52,0.00,,FEW055,0.00,VWS V14.01,2013-06-04 21:47:00,
2013-06-04 17:48:00,69.8,52.4,29.69,SSE,165,0.0,0.0,54,0.00,,CLR,0.00,VWS V15.00,2013-06-04 21:48:00,
2013-06-04 17:49:00,69.7,52.8,29.69,SSE,165,0.0,0.0,55,0.00,,CLR,0.00,VWS V15.00,2013-06-04 21:49:00,
2013-06-04 17:50:00,69.6,50.7,29.69,SSE,148,0.0,6.0,51,0.00,,CLR,0.00,VWS V15.00,2013-06-04 21:50:00,
2013-06-04 17:51:00,69.6,52.7,29.69,SSE,152,0.0,0.0,55,0.00,,CLR,0.00,VWS V15.00,2013-06-04 21:51:00,
2013-06-04 17:52:00,69.7,52.3,29.69,SSE,165,0.0,0.0,54,0.00,,FEW055,0.00,VWS V14.01,2013-06-04 21:52:00,
2013-06-04 17:53:00,69.4,52.5,29.69,SSE,152,0.0,0.0,55,0.00,,CLR,0.00,VWS V15.00,2013-06-04 21:53:00,
2013-06-04 17:54:00,69.2,51.9,29.69,SSE,152,0.0,0.0,54,0.00,,CLR,0.00,VWS V15.00,2013-06-04 21:54:00,
2013-06-04 17:55:00,69.2,49.8,29.69,SSE,152,0.0,1.0,50,0.00,,CLR,0.00,VWS V15.00,2013-06-04 21:55:00,
2013-06-04 17:56:00,69.0,48.5,29.69,SSE,162,0.0,1.0,48,0.00,,CLR,0.00,VWS V15.00,2013-06-04 21:56:00,
2013-06-04 17:57:00,69.3,52.5,29.69,SSE,152,0.0,0.0,55,0.00,,FEW055,0.00,VWS V14.01,2013-06-04 21:57:00,
2013-06-04 17:58:00,69.0,49.1,29.69,South,184,1.0,6.0,49,0.00,,CLR,0.00,VWS V15.00,2013-06-04 21:58:00,
2013-06-04 17:59:00,69.0,48.0,29.69,ESE,103,0.0,7.0,47,0.00,,CLR,0.00,VWS V15.00,2013-06-04 21:59:00,
2013-06-04 18:00:00,69.0,48.5,29.69,ESE,103,0.0,0.0,48,0.00,,CLR,0.00,VWS V15.00,2013-06-04 22:00:00,
2013-06-04 18:01:00,69.0,49.6,29.69,ESE,103,0.0,0.0,50,0.00,,CLR,0.00,VWS V15.00,2013-06-04 22:01:00,
2013-06-04 18:02:00,68.9,48.4,29.69,East,96,4.0,7.0,48,0.00,,CLR,0.00,VWS V14.01,2013-06-04 22:02:00,
2013-06-04 18:03:00,69.1,50.8,29.69,ESE,103,0.0,0.0,52,0.00,,CLR,0.00,VWS V15.00,2013-06-04 22:03:00,
2013-06-04 18:04:00,69.2,51.4,29.69,NW,306,0.0,2.0,53,0.00,,CLR,0.00,VWS V15.00,2013-06-04 22:04:00,
2013-06-04 18:05:00,69.2,49.2,29.69,SE,140,0.0,1.0,49,0.00,,CLR,0.00,VWS V15.00,2013-06-04 22:05:00,
2013-06-04 18:06:00,69.2,48.7,29.69,SSE,154,0.0,3.0,48,0.00,,CLR,0.00,VWS V15.00,2013-06-04 22:06:00,
2013-06-04 18:07:00,69.2,51.4,29.69,ESE,103,0.0,0.0,53,0.00,,CLR,0.00,VWS V14.01,2013-06-04 22:07:00,
2013-06-04 18:08:00,69.3,47.7,29.69,SSE,155,0.0,1.0,46,0.00,,CLR,0.00,VWS V15.00,2013-06-04 22:08:00,
2013-06-04 18:09:00,69.3,49.9,29.69,SE,134,0.0,4.0,50,0.00,,CLR,0.00,VWS V15.00,2013-06-04 22:09:00,
2013-06-04 18:10:00,69.3,48.2,29.69,SE,143,0.0,1.0,47,0.00,,CLR,0.00,VWS V15.00,2013-06-04 22:10:00,
2013-06-04 18:11:00,69.3,53.4,29.69,WSW,244,1.0,1.0,57,0.00,,CLR,0.00,VWS V15.00,2013-06-04 22:11:00,
2013-06-04 18:12:00,69.3,49.9,29.69,SE,144,1.0,1.0,50,0.00,,CLR,0.00,VWS V14.01,2013-06-04 22:12:00,
2013-06-04 18:13:00,69.1,50.2,29.69,WSW,246,0.0,0.0,51,0.00,,CLR,0.00,VWS V15.00,2013-06-04 22:13:00,
2013-06-04 18:14:00,69.0,50.7,29.69,WSW,246,0.0,1.0,52,0.00,,CLR,0.00,VWS V15.00,2013-06-04 22:14:00,
2013-06-04 18:15:00,68.9,51.6,29.70,WSW,246,0.0,0.0,54,0.00,,CLR,0.00,VWS V15.00,2013-06-04 22:15:00,
2013-06-04 18:16:00,68.8,53.0,29.70,WSW,246,0.0,0.0,57,0.00,,CLR,0.00,VWS V15.00,2013-06-04 22:16:00,
2013-06-04 18:17:00,69.1,50.8,29.69,WSW,246,0.0,1.0,52,0.00,,CLR,0.00,VWS V14.01,2013-06-04 22:17:00,
2013-06-04 18:18:00,68.5,51.7,29.70,ESE,110,2.0,5.0,55,0.00,,CLR,0.00,VWS V15.00,2013-06-04 22:18:00,
2013-06-04 18:19:00,68.4,49.6,29.70,ESE,111,0.0,2.0,51,0.00,,CLR,0.00,VWS V15.00,2013-06-04 22:19:00,
2013-06-04 18:20:00,68.3,50.5,29.70,South,182,0.0,1.0,53,0.00,,CLR,0.00,VWS V15.00,2013-06-04 22:20:00,
2013-06-04 18:21:00,68.3,48.4,29.70,South,182,0.0,0.0,49,0.00,,CLR,0.00,VWS V15.00,2013-06-04 22:21:00,
2013-06-04 18:22:00,68.4,49.6,29.70,ESE,110,0.0,2.0,51,0.00,,CLR,0.00,VWS V14.01,2013-06-04 22:22:00,
2013-06-04 18:23:00,68.2,51.9,29.71,South,182,1.0,1.0,56,0.00,,CLR,0.00,VWS V15.00,2013-06-04 22:23:00,
2013-06-04 18:24:00,68.2,50.9,29.71,South,182,0.0,1.0,54,0.00,,CLR,0.00,VWS V15.00,2013-06-04 22:24:00,
2013-06-04 18:25:00,68.2,51.4,29.71,South,182,0.0,0.0,55,0.00,,CLR,0.00,VWS V15.00,2013-06-04 22:25:00,
2013-06-04 18:26:00,68.2,51.4,29.70,South,182,0.0,0.0,55,0.00,,CLR,0.00,VWS V15.00,2013-06-04 22:26:00,
2013-06-04 18:27:00,68.2,51.9,29.70,South,182,0.0,1.0,56,0.00,,CLR,0.00,VWS V14.01,2013-06-04 22:27:00,
2013-06-04 18:28:00,68.1,51.3,29.70,South,182,0.0,0.0,55,0.00,,CLR,0.00,VWS V15.00,2013-06-04 22:28:00,
2013-06-04 18:29:00,68.0,49.7,29.70,South,182,0.0,0.0,52,0.00,,CLR,0.00,VWS V15.00,2013-06-04 22:29:00,
2013-06-04 18:30:00,68.0,50.8,29.70,South,182,0.0,0.0,54,0.00,,CLR,0.00,VWS V15.00,2013-06-04 22:30:00,
2013-06-04 18:31:00,68.0,52.2,29.70,South,182,0.0,0.0,57,0.00,,CLR,0.00,VWS V15.00,2013-06-04 22:31:00,
2013-06-04 18:32:00,68.0,51.2,29.70,South,182,0.0,0.0,55,0.00,,CLR,0.00,VWS V14.01,2013-06-04 22:32:00,
2013-06-04 18:33:00,67.9,53.1,29.70,South,182,0.0,0.0,59,0.00,,CLR,0.00,VWS V15.00,2013-06-04 22:33:00,
2013-06-04 18:34:00,67.7,52.4,29.71,South,182,0.0,0.0,58,0.00,,CLR,0.00,VWS V15.00,2013-06-04 22:34:00,
2013-06-04 18:35:00,67.6,51.8,29.71,South,182,0.0,0.0,57,0.00,,CLR,0.00,VWS V15.00,2013-06-04 22:35:00,
2013-06-04 18:36:00,67.5,51.8,29.71,South,182,0.0,0.0,57,0.00,,CLR,0.00,VWS V15.00,2013-06-04 22:36:00,
2013-06-04 18:37:00,67.8,53.0,29.70,South,182,0.0,0.0,59,0.00,,CLR,0.00,VWS V14.01,2013-06-04 22:37:00,
2013-06-04 18:38:00,67.3,51.6,29.71,South,182,0.0,0.0,57,0.00,,CLR,0.00,VWS V15.00,2013-06-04 22:38:00,
2013-06-04 18:39:00,67.2,52.4,29.71,South,182,0.0,0.0,59,0.00,,CLR,0.00,VWS V15.00,2013-06-04 22:39:00,
2013-06-04 18:40:00,67.1,53.2,29.71,South,182,0.0,1.0,61,0.00,,CLR,0.00,VWS V15.00,2013-06-04 22:40:00,
2013-06-04 18:41:00,67.0,51.3,29.71,South,182,0.0,1.0,57,0.00,,CLR,0.00,VWS V15.00,2013-06-04 22:41:00,
2013-06-04 18:42:00,67.3,52.5,29.71,South,182,0.0,0.0,59,0.00,,CLR,0.00,VWS V14.01,2013-06-04 22:42:00,
2013-06-04 18:43:00,66.9,52.6,29.71,South,182,0.0,0.0,60,0.00,,CLR,0.00,VWS V15.00,2013-06-04 22:43:00,
2013-06-04 18:44:00,66.8,52.5,29.71,South,182,0.0,0.0,60,0.00,,CLR,0.00,VWS V15.00,2013-06-04 22:44:00,
2013-06-04 18:45:00,66.8,52.9,29.71,South,182,0.0,0.0,61,0.00,,CLR,0.00,VWS V15.00,2013-06-04 22:45:00,
2013-06-04 18:46:00,66.7,52.4,29.71,South,182,0.0,0.0,60,0.00,,CLR,0.00,VWS V15.00,2013-06-04 22:46:00,
2013-06-04 18:47:00,66.9,52.6,29.71,South,182,0.0,0.0,60,0.00,,CLR,0.00,VWS V14.01,2013-06-04 22:47:00,
2013-06-04 18:48:00,66.6,52.3,29.71,South,182,0.0,0.0,60,0.00,,CLR,0.00,VWS V15.00,2013-06-04 22:48:00,
2013-06-04 18:49:00,66.5,52.2,29.71,South,182,0.0,0.0,60,0.00,,CLR,0.00,VWS V15.00,2013-06-04 22:49:00,
2013-06-04 18:50:00,66.5,53.1,29.72,South,183,0.0,0.0,62,0.00,,CLR,0.00,VWS V15.00,2013-06-04 22:50:00,
2013-06-04 18:51:00,66.3,53.3,29.72,South,183,0.0,0.0,63,0.00,,CLR,0.00,VWS V15.00,2013-06-04 22:51:00,
2013-06-04 18:52:00,66.5,52.2,29.71,South,182,0.0,0.0,60,0.00,,CLR,0.00,VWS V14.01,2013-06-04 22:52:00,
2013-06-04 18:53:00,66.2,53.7,29.72,South,183,0.0,0.0,64,0.00,,CLR,0.00,VWS V15.00,2013-06-04 22:53:00,
2013-06-04 18:54:00,66.1,52.7,29.72,South,183,0.0,0.0,62,0.00,,CLR,0.00,VWS V15.00,2013-06-04 22:54:00,
2013-06-04 18:55:00,66.0,51.7,29.72,South,183,0.0,0.0,60,0.00,,CLR,0.00,VWS V15.00,2013-06-04 22:55:00,
2013-06-04 18:56:00,65.9,51.6,29.72,South,183,0.0,0.0,60,0.00,,CLR,0.00,VWS V15.00,2013-06-04 22:56:00,
2013-06-04 18:57:00,66.1,53.6,29.72,South,183,0.0,0.0,64,0.00,,CLR,0.00,VWS V14.01,2013-06-04 22:57:00,
2013-06-04 18:58:00,65.8,52.9,29.72,South,183,0.0,0.0,63,0.00,,CLR,0.00,VWS V15.00,2013-06-04 22:58:00,
2013-06-04 18:59:00,65.7,51.0,29.72,South,183,0.0,0.0,59,0.00,,CLR,0.00,VWS V15.00,2013-06-04 22:59:00,
2013-06-04 19:00:00,65.6,50.9,29.72,South,183,0.0,0.0,59,0.00,,CLR,0.00,VWS V15.00,2013-06-04 23:00:00,
2013-06-04 19:01:00,65.5,52.6,29.72,South,183,0.0,0.0,63,0.00,,CLR,0.00,VWS V15.00,2013-06-04 23:01:00,
2013-06-04 19:02:00,65.7,52.8,29.72,South,183,0.0,0.0,63,0.00,,CLR,0.00,VWS V14.01,2013-06-04 23:02:00,
2013-06-04 19:03:00,65.4,52.9,29.72,South,183,0.0,0.0,64,0.00,,CLR,0.00,VWS V15.00,2013-06-04 23:03:00,
2013-06-04 19:04:00,65.4,52.1,29.72,South,183,0.0,0.0,62,0.00,,CLR,0.00,VWS V15.00,2013-06-04 23:04:00,
2013-06-04 19:05:00,65.3,52.4,29.72,South,183,0.0,0.0,63,0.00,,CLR,0.00,VWS V15.00,2013-06-04 23:05:00,
2013-06-04 19:06:00,65.3,52.8,29.72,South,183,0.0,0.0,64,0.00,,CLR,0.00,VWS V15.00,2013-06-04 23:06:00,
2013-06-04 19:07:00,65.4,52.9,29.72,South,183,0.0,0.0,64,0.00,,CLR,0.00,VWS V14.01,2013-06-04 23:07:00,
2013-06-04 19:08:00,65.1,52.6,29.72,South,183,0.0,0.0,64,0.00,,CLR,0.00,VWS V15.00,2013-06-04 23:08:00,
2013-06-04 19:09:00,65.1,51.8,29.72,South,183,0.0,0.0,62,0.00,,CLR,0.00,VWS V15.00,2013-06-04 23:09:00,
2013-06-04 19:10:00,65.0,52.1,29.72,South,183,0.0,0.0,63,0.00,,CLR,0.00,VWS V15.00,2013-06-04 23:10:00,
2013-06-04 19:11:00,65.0,53.0,29.72,South,183,0.0,0.0,65,0.00,,CLR,0.00,VWS V15.00,2013-06-04 23:11:00,
2013-06-04 19:12:00,65.1,51.8,29.72,South,183,0.0,0.0,62,0.00,,CLR,0.00,VWS V14.01,2013-06-04 23:12:00,
2013-06-04 19:13:00,64.9,53.3,29.72,South,183,0.0,0.0,66,0.00,,CLR,0.00,VWS V15.00,2013-06-04 23:13:00,
2013-06-04 19:14:00,64.8,53.2,29.73,South,183,0.0,0.0,66,0.00,,CLR,0.00,VWS V15.00,2013-06-04 23:14:00,
2013-06-04 19:15:00,64.8,52.8,29.73,South,183,0.0,0.0,65,0.00,,CLR,0.00,VWS V15.00,2013-06-04 23:15:00,
2013-06-04 19:16:00,64.7,53.1,29.72,South,183,0.0,0.0,66,0.00,,CLR,0.00,VWS V15.00,2013-06-04 23:16:00,
2013-06-04 19:17:00,64.8,53.2,29.73,South,183,0.0,0.0,66,0.00,,CLR,0.00,VWS V14.01,2013-06-04 23:17:00,
2013-06-04 19:18:00,64.6,53.4,29.73,South,183,0.0,0.0,67,0.00,,CLR,0.00,VWS V15.00,2013-06-04 23:18:00,
2013-06-04 19:19:00,64.6,53.0,29.73,South,183,0.0,0.0,66,0.00,,CLR,0.00,VWS V15.00,2013-06-04 23:19:00,
2013-06-04 19:20:00,64.5,52.9,29.73,South,183,0.0,0.0,66,0.00,,CLR,0.00,VWS V15.00,2013-06-04 23:20:00,
2013-06-04 19:21:00,64.5,52.5,29.73,South,183,0.0,1.0,65,0.00,,CLR,0.00,VWS V15.00,2013-06-04 23:21:00,
2013-06-04 19:22:00,64.6,53.0,29.73,South,183,0.0,0.0,66,0.00,,CLR,0.00,VWS V14.01,2013-06-04 23:22:00,
2013-06-04 19:23:00,64.4,52.4,29.73,South,183,0.0,0.0,65,0.00,,CLR,0.00,VWS V15.00,2013-06-04 23:23:00,
2013-06-04 19:24:00,64.4,53.6,29.73,South,183,0.0,0.0,68,0.00,,CLR,0.00,VWS V15.00,2013-06-04 23:24:00,
2013-06-04 19:25:00,64.3,53.9,29.73,South,183,0.0,0.0,69,0.00,,CLR,0.00,VWS V15.00,2013-06-04 23:25:00,
2013-06-04 19:26:00,64.3,53.1,29.73,South,183,0.0,0.0,67,0.00,,CLR,0.00,VWS V15.00,2013-06-04 23:26:00,
2013-06-04 19:27:00,64.4,53.6,29.73,South,183,0.0,0.0,68,0.00,,CLR,0.00,VWS V14.01,2013-06-04 23:27:00,
2013-06-04 19:28:00,64.2,52.2,29.73,South,183,0.0,0.0,65,0.00,,CLR,0.00,VWS V15.00,2013-06-04 23:28:00,
2013-06-04 19:29:00,64.1,53.7,29.73,South,183,0.0,0.0,69,0.00,,CLR,0.00,VWS V15.00,2013-06-04 23:29:00,
2013-06-04 19:30:00,64.1,53.3,29.73,South,183,0.0,0.0,68,0.00,,CLR,0.00,VWS V15.00,2013-06-04 23:30:00,
2013-06-04 19:31:00,64.0,53.2,29.73,South,183,0.0,0.0,68,0.00,,CLR,0.00,VWS V15.00,2013-06-04 23:31:00,
2013-06-04 19:32:00,64.2,52.2,29.73,South,183,0.0,0.0,65,0.00,,CLR,0.00,VWS V14.01,2013-06-04 23:32:00,
2013-06-04 19:33:00,63.9,52.7,29.73,South,183,0.0,0.0,67,0.00,,CLR,0.00,VWS V15.00,2013-06-04 23:33:00,
2013-06-04 19:34:00,63.9,52.3,29.73,South,183,0.0,0.0,66,0.00,,CLR,0.00,VWS V15.00,2013-06-04 23:34:00,
2013-06-04 19:35:00,63.8,50.1,29.73,South,183,0.0,0.0,61,0.00,,CLR,0.00,VWS V15.00,2013-06-04 23:35:00,
2013-06-04 19:36:00,63.8,52.2,29.73,South,183,0.0,0.0,66,0.00,,CLR,0.00,VWS V15.00,2013-06-04 23:36:00,
2013-06-04 19:37:00,63.9,52.7,29.73,South,183,0.0,0.0,67,0.00,,CLR,0.00,VWS V14.01,2013-06-04 23:37:00,
2013-06-04 19:38:00,63.8,53.0,29.73,South,183,0.0,0.0,68,0.00,,CLR,0.00,VWS V15.00,2013-06-04 23:38:00,
2013-06-04 19:39:00,63.7,52.5,29.73,South,183,0.0,0.0,67,0.00,,CLR,0.00,VWS V15.00,2013-06-04 23:39:00,
2013-06-04 19:40:00,63.7,52.1,29.73,South,183,0.0,0.0,66,0.00,,CLR,0.00,VWS V15.00,2013-06-04 23:40:00,
2013-06-04 19:41:00,63.7,52.1,29.73,South,183,0.0,0.0,66,0.00,,CLR,0.00,VWS V15.00,2013-06-04 23:41:00,
2013-06-04 19:42:00,63.8,53.0,29.73,South,183,0.0,0.0,68,0.00,,CLR,0.00,VWS V14.01,2013-06-04 23:42:00,
2013-06-04 19:43:00,63.7,51.7,29.73,South,183,0.0,0.0,65,0.00,,CLR,0.00,VWS V15.00,2013-06-04 23:43:00,
2013-06-04 19:44:00,63.6,51.2,29.73,South,183,0.0,0.0,64,0.00,,CLR,0.00,VWS V15.00,2013-06-04 23:44:00,
2013-06-04 19:45:00,63.6,51.2,29.73,South,183,0.0,0.0,64,0.00,,CLR,0.00,VWS V15.00,2013-06-04 23:45:00,
2013-06-04 19:46:00,63.6,50.4,29.73,South,183,0.0,0.0,62,0.00,,CLR,0.00,VWS V15.00,2013-06-04 23:46:00,
2013-06-04 19:47:00,63.6,51.6,29.73,South,183,0.0,0.0,65,0.00,,CLR,0.00,VWS V14.01,2013-06-04 23:47:00,
2013-06-04 19:48:00,63.5,50.7,29.74,South,183,0.0,0.0,63,0.00,,CLR,0.00,VWS V15.00,2013-06-04 23:48:00,
2013-06-04 19:49:00,63.4,50.6,29.74,South,183,0.0,0.0,63,0.00,,CLR,0.00,VWS V15.00,2013-06-04 23:49:00,
2013-06-04 19:50:00,63.4,50.6,29.74,South,183,0.0,0.0,63,0.00,,CLR,0.00,VWS V15.00,2013-06-04 23:50:00,
2013-06-04 19:51:00,63.4,50.2,29.74,South,183,0.0,0.0,62,0.00,,CLR,0.00,VWS V15.00,2013-06-04 23:51:00,
2013-06-04 19:52:00,63.4,50.6,29.74,South,183,0.0,0.0,63,0.00,,CLR,0.00,VWS V14.01,2013-06-04 23:52:00,
2013-06-04 19:53:00,63.3,50.1,29.74,South,183,0.0,0.0,62,0.00,,CLR,0.00,VWS V15.00,2013-06-04 23:53:00,
2013-06-04 19:54:00,63.2,50.0,29.74,South,183,0.0,0.0,62,0.00,,CLR,0.00,VWS V15.00,2013-06-04 23:54:00,
2013-06-04 19:55:00,63.2,50.0,29.74,South,183,0.0,0.0,62,0.00,,CLR,0.00,VWS V15.00,2013-06-04 23:55:00,
2013-06-04 19:56:00,63.1,50.3,29.74,South,183,0.0,0.0,63,0.00,,CLR,0.00,VWS V15.00,2013-06-04 23:56:00,
2013-06-04 19:57:00,63.2,50.0,29.74,South,183,0.0,0.0,62,0.00,,CLR,0.00,VWS V14.01,2013-06-04 23:57:00,
2013-06-04 19:58:00,63.0,50.2,29.74,South,183,0.0,0.0,63,0.00,,CLR,0.00,VWS V15.00,2013-06-04 23:58:00,
2013-06-04 19:59:00,63.0,50.2,29.74,South,183,0.0,0.0,63,0.00,,CLR,0.00,VWS V15.00,2013-06-04 23:59:00,
2013-06-04 20:00:00,62.9,50.1,29.74,South,183,0.0,0.0,63,0.00,,CLR,0.00,VWS V15.00,2013-06-05 00:00:00,
2013-06-04 20:01:00,62.9,50.1,29.74,South,183,0.0,0.0,63,0.00,,CLR,0.00,VWS V15.00,2013-06-05 00:01:00,
2013-06-04 20:02:00,63.0,50.2,29.74,South,183,0.0,0.0,63,0.00,,CLR,0.00,VWS V14.01,2013-06-05 00:02:00,
2013-06-04 20:03:00,62.7,49.5,29.75,South,183,0.0,0.0,62,0.00,,CLR,0.00,VWS V15.00,2013-06-05 00:03:00,
2013-06-04 20:04:00,62.7,49.5,29.75,South,183,0.0,0.0,62,0.00,,CLR,0.00,VWS V15.00,2013-06-05 00:04:00,
2013-06-04 20:05:00,62.6,49.4,29.74,South,183,0.0,0.0,62,0.00,,CLR,0.00,VWS V15.00,2013-06-05 00:05:00,
2013-06-04 20:06:00,62.6,49.4,29.75,South,183,0.0,0.0,62,0.00,,CLR,0.00,VWS V15.00,2013-06-05 00:06:00,
2013-06-04 20:07:00,62.7,49.5,29.75,South,183,0.0,0.0,62,0.00,,CLR,0.00,VWS V14.01,2013-06-05 00:07:00,
2013-06-04 20:08:00,62.5,49.3,29.75,South,183,0.0,0.0,62,0.00,,CLR,0.00,VWS V15.00,2013-06-05 00:08:00,
2013-06-04 20:09:00,62.4,49.2,29.75,South,183,0.0,0.0,62,0.00,,CLR,0.00,VWS V15.00,2013-06-05 00:09:00,
2013-06-04 20:10:00,62.3,49.6,29.75,South,183,0.0,0.0,63,0.00,,CLR,0.00,VWS V15.00,2013-06-05 00:10:00,
2013-06-04 20:11:00,62.3,49.6,29.75,South,183,0.0,0.0,63,0.00,,CLR,0.00,VWS V15.00,2013-06-05 00:11:00,
2013-06-04 20:12:00,62.4,49.2,29.75,South,183,0.0,0.0,62,0.00,,CLR,0.00,VWS V14.01,2013-06-05 00:12:00,
2013-06-04 20:13:00,62.2,49.5,29.75,South,183,0.0,0.0,63,0.00,,CLR,0.00,VWS V15.00,2013-06-05 00:13:00,
2013-06-04 20:14:00,62.1,49.8,29.75,South,183,0.0,0.0,64,0.00,,CLR,0.00,VWS V15.00,2013-06-05 00:14:00,
2013-06-04 20:15:00,62.0,49.3,29.75,South,183,0.0,0.0,63,0.00,,CLR,0.00,VWS V15.00,2013-06-05 00:15:00,
2013-06-04 20:16:00,62.0,49.3,29.75,South,183,0.0,0.0,63,0.00,,CLR,0.00,VWS V15.00,2013-06-05 00:16:00,
2013-06-04 20:17:00,62.2,49.5,29.75,South,183,0.0,0.0,63,0.00,,CLR,0.00,VWS V14.01,2013-06-05 00:17:00,
2013-06-04 20:18:00,61.9,49.2,29.75,South,183,0.0,0.0,63,0.00,,CLR,0.00,VWS V15.00,2013-06-05 00:18:00,
2013-06-04 20:19:00,61.8,49.1,29.75,South,183,0.0,0.0,63,0.00,,CLR,0.00,VWS V15.00,2013-06-05 00:19:00,
2013-06-04 20:20:00,61.8,49.1,29.75,South,183,0.0,0.0,63,0.00,,CLR,0.00,VWS V15.00,2013-06-05 00:20:00,
2013-06-04 20:21:00,61.8,49.1,29.75,South,183,0.0,0.0,63,0.00,,CLR,0.00,VWS V15.00,2013-06-05 00:21:00,
2013-06-04 20:22:00,61.9,49.2,29.75,South,183,0.0,0.0,63,0.00,,CLR,0.00,VWS V14.01,2013-06-05 00:22:00,
2013-06-04 20:23:00,61.6,48.9,29.75,South,183,0.0,0.0,63,0.00,,CLR,0.00,VWS V15.00,2013-06-05 00:23:00,
2013-06-04 20:24:00,61.6,48.9,29.75,South,183,0.0,0.0,63,0.00,,CLR,0.00,VWS V15.00,2013-06-05 00:24:00,
2013-06-04 20:25:00,61.6,49.3,29.75,South,183,0.0,0.0,64,0.00,,CLR,0.00,VWS V15.00,2013-06-05 00:25:00,
2013-06-04 20:26:00,61.5,49.2,29.75,South,183,0.0,0.0,64,0.00,,CLR,0.00,VWS V15.00,2013-06-05 00:26:00,
2013-06-04 20:27:00,61.6,48.9,29.75,South,183,0.0,0.0,63,0.00,,CLR,0.00,VWS V14.01,2013-06-05 00:27:00,
2013-06-04 20:28:00,61.3,49.5,29.75,South,183,0.0,0.0,65,0.00,,CLR,0.00,VWS V15.00,2013-06-05 00:28:00,
2013-06-04 20:29:00,61.2,49.3,29.75,South,183,0.0,0.0,65,0.00,,CLR,0.00,VWS V15.00,2013-06-05 00:29:00,
2013-06-04 20:30:00,61.1,49.3,29.75,South,183,0.0,0.0,65,0.00,,CLR,0.00,VWS V15.00,2013-06-05 00:30:00,
2013-06-04 20:31:00,61.1,49.3,29.75,South,183,0.0,0.0,65,0.00,,CLR,0.00,VWS V15.00,2013-06-05 00:31:00,
2013-06-04 20:32:00,61.3,49.5,29.75,South,183,0.0,0.0,65,0.00,,CLR,0.00,VWS V14.01,2013-06-05 00:32:00,
2013-06-04 20:33:00,60.9,48.7,29.75,South,183,0.0,0.0,64,0.00,,CLR,0.00,VWS V15.00,2013-06-05 00:33:00,
2013-06-04 20:34:00,60.9,49.1,29.75,South,183,0.0,0.0,65,0.00,,CLR,0.00,VWS V15.00,2013-06-05 00:34:00,
2013-06-04 20:35:00,60.8,49.4,29.75,South,183,0.0,0.0,66,0.00,,CLR,0.00,VWS V15.00,2013-06-05 00:35:00,
2013-06-04 20:36:00,60.8,49.8,29.75,South,183,0.0,0.0,67,0.00,,CLR,0.00,VWS V15.00,2013-06-05 00:36:00,
2013-06-04 20:37:00,60.9,49.1,29.75,South,183,0.0,0.0,65,0.00,,CLR,0.00,VWS V14.01,2013-06-05 00:37:00,
2013-06-04 20:38:00,60.7,51.6,29.76,South,183,0.0,0.0,72,0.00,,CLR,0.00,VWS V15.00,2013-06-05 00:38:00,
2013-06-04 20:39:00,60.7,52.0,29.75,South,183,0.0,0.0,73,0.00,,CLR,0.00,VWS V15.00,2013-06-05 00:39:00,
2013-06-04 20:40:00,60.6,52.3,29.76,South,183,0.0,0.0,74,0.00,,CLR,0.00,VWS V15.00,2013-06-05 00:40:00,
2013-06-04 20:41:00,60.5,52.2,29.76,South,183,0.0,0.0,74,0.00,,CLR,0.00,VWS V15.00,2013-06-05 00:41:00,
2013-06-04 20:42:00,60.7,51.6,29.75,South,183,0.0,0.0,72,0.00,,CLR,0.00,VWS V14.01,2013-06-05 00:42:00,
2013-06-04 20:43:00,60.3,52.0,29.76,South,183,0.0,0.0,74,0.00,,CLR,0.00,VWS V15.00,2013-06-05 00:43:00,
2013-06-04 20:44:00,60.3,52.3,29.76,South,183,0.0,0.0,75,0.00,,CLR,0.00,VWS V15.00,2013-06-05 00:44:00,
2013-06-04 20:45:00,60.2,52.3,29.76,South,183,0.0,0.0,75,0.00,,CLR,0.00,VWS V15.00,2013-06-05 00:45:00,
2013-06-04 20:46:00,60.1,51.8,29.77,South,183,0.0,0.0,74,0.00,,CLR,0.00,VWS V15.00,2013-06-05 00:46:00,
2013-06-04 20:47:00,60.3,52.0,29.76,South,183,0.0,0.0,74,0.00,,CLR,0.00,VWS V14.01,2013-06-05 00:47:00,
2013-06-04 20:48:00,59.9,50.9,29.76,South,183,0.0,0.0,72,0.00,,CLR,0.00,VWS V15.00,2013-06-05 00:48:00,
2013-06-04 20:49:00,59.9,51.6,29.77,South,183,0.0,0.0,74,0.00,,CLR,0.00,VWS V15.00,2013-06-05 00:49:00,
2013-06-04 20:50:00,59.8,51.9,29.77,South,183,0.0,0.0,75,0.00,,CLR,0.00,VWS V15.00,2013-06-05 00:50:00,
2013-06-04 20:51:00,59.7,51.8,29.77,South,183,0.0,0.0,75,0.00,,CLR,0.00,VWS V15.00,2013-06-05 00:51:00,
2013-06-04 20:52:00,59.9,50.9,29.77,South,183,0.0,0.0,72,0.00,,CLR,0.00,VWS V14.01,2013-06-05 00:52:00,
2013-06-04 20:53:00,59.5,51.9,29.77,South,183,0.0,0.0,76,0.00,,CLR,0.00,VWS V15.00,2013-06-05 00:53:00,
2013-06-04 20:54:00,59.4,51.8,29.77,South,183,0.0,0.0,76,0.00,,CLR,0.00,VWS V15.00,2013-06-05 00:54:00,
2013-06-04 20:55:00,59.3,51.4,29.77,South,183,0.0,0.0,75,0.00,,CLR,0.00,VWS V15.00,2013-06-05 00:55:00,
2013-06-04 20:56:00,59.2,51.7,29.77,South,183,0.0,0.0,76,0.00,,CLR,0.00,VWS V15.00,2013-06-05 00:56:00,
2013-06-04 20:57:00,59.4,51.8,29.77,South,183,0.0,0.0,76,0.00,,CLR,0.00,VWS V14.01,2013-06-05 00:57:00,
2013-06-04 20:58:00,59.0,51.5,29.77,South,183,0.0,0.0,76,0.00,,CLR,0.00,VWS V15.00,2013-06-05 00:58:00,
2013-06-04 20:59:00,59.0,51.1,29.77,South,183,0.0,0.0,75,0.00,,CLR,0.00,VWS V15.00,2013-06-05 00:59:00,
2013-06-04 21:00:00,59.0,50.7,29.77,South,183,0.0,0.0,74,0.00,,CLR,0.00,VWS V15.00,2013-06-05 01:00:00,
2013-06-04 21:01:00,59.0,51.5,29.77,South,183,0.0,0.0,76,0.00,,CLR,0.00,VWS V15.00,2013-06-05 01:01:00,
2013-06-04 21:02:00,59.0,51.1,29.77,South,183,0.0,0.0,75,0.00,,CLR,0.00,VWS V14.01,2013-06-05 01:02:00,
2013-06-04 21:03:00,59.0,52.2,29.77,South,183,0.0,0.0,78,0.00,,CLR,0.00,VWS V15.00,2013-06-05 01:03:00,
2013-06-04 21:04:00,59.0,52.2,29.77,South,183,0.0,0.0,78,0.00,,CLR,0.00,VWS V15.00,2013-06-05 01:04:00,
2013-06-04 21:05:00,58.9,51.7,29.77,South,183,0.0,0.0,77,0.00,,CLR,0.00,VWS V15.00,2013-06-05 01:05:00,
2013-06-04 21:06:00,58.8,51.6,29.77,South,183,0.0,0.0,77,0.00,,CLR,0.00,VWS V15.00,2013-06-05 01:06:00,
2013-06-04 21:07:00,59.0,52.2,29.77,South,183,0.0,0.0,78,0.00,,CLR,0.00,VWS V14.01,2013-06-05 01:07:00,
2013-06-04 21:08:00,58.6,51.4,29.77,South,183,0.0,0.0,77,0.00,,CLR,0.00,VWS V15.00,2013-06-05 01:08:00,
2013-06-04 21:09:00,58.6,51.4,29.77,South,183,0.0,0.0,77,0.00,,CLR,0.00,VWS V15.00,2013-06-05 01:09:00,
2013-06-04 21:10:00,58.5,51.3,29.78,South,183,0.0,0.0,77,0.00,,CLR,0.00,VWS V15.00,2013-06-05 01:10:00,
2013-06-04 21:11:00,58.5,51.0,29.77,South,183,0.0,0.0,76,0.00,,CLR,0.00,VWS V15.00,2013-06-05 01:11:00,
2013-06-04 21:12:00,58.6,51.4,29.77,South,183,0.0,0.0,77,0.00,,CLR,0.00,VWS V14.01,2013-06-05 01:12:00,
2013-06-04 21:13:00,58.4,51.2,29.78,South,183,0.0,0.0,77,0.00,,CLR,0.00,VWS V15.00,2013-06-05 01:13:00,
2013-06-04 21:14:00,58.4,50.9,29.78,South,183,0.0,0.0,76,0.00,,CLR,0.00,VWS V15.00,2013-06-05 01:14:00,
2013-06-04 21:15:00,58.4,51.2,29.78,South,183,0.0,0.0,77,0.00,,CLR,0.00,VWS V15.00,2013-06-05 01:15:00,
2013-06-04 21:16:00,58.3,51.5,29.78,South,183,0.0,0.0,78,0.00,,CLR,0.00,VWS V15.00,2013-06-05 01:16:00,
2013-06-04 21:17:00,58.4,51.2,29.78,South,183,0.0,0.0,77,0.00,,CLR,0.00,VWS V14.01,2013-06-05 01:17:00,
2013-06-04 21:18:00,58.2,51.4,29.78,South,183,0.0,0.0,78,0.00,,CLR,0.00,VWS V15.00,2013-06-05 01:18:00,
2013-06-04 21:19:00,58.1,51.3,29.78,South,183,0.0,0.0,78,0.00,,CLR,0.00,VWS V15.00,2013-06-05 01:19:00,
2013-06-04 21:20:00,58.0,51.2,29.78,South,183,0.0,0.0,78,0.00,,CLR,0.00,VWS V15.00,2013-06-05 01:20:00,
2013-06-04 21:21:00,58.0,51.2,29.78,South,183,0.0,0.0,78,0.00,,CLR,0.00,VWS V15.00,2013-06-05 01:21:00,
2013-06-04 21:22:00,58.1,51.3,29.78,South,183,0.0,0.0,78,0.00,,CLR,0.00,VWS V14.01,2013-06-05 01:22:00,
2013-06-04 21:23:00,57.8,51.0,29.78,South,183,0.0,0.0,78,0.00,,CLR,0.00,VWS V15.00,2013-06-05 01:23:00,
2013-06-04 21:24:00,57.8,50.3,29.78,South,183,0.0,0.0,76,0.00,,CLR,0.00,VWS V15.00,2013-06-05 01:24:00,
2013-06-04 21:25:00,57.7,50.2,29.78,South,183,0.0,0.0,76,0.00,,CLR,0.00,VWS V15.00,2013-06-05 01:25:00,
2013-06-04 21:26:00,57.6,50.1,29.78,South,183,0.0,0.0,76,0.00,,CLR,0.00,VWS V15.00,2013-06-05 01:26:00,
2013-06-04 21:27:00,57.8,50.7,29.78,South,183,0.0,0.0,77,0.00,,CLR,0.00,VWS V14.01,2013-06-05 01:27:00,
2013-06-04 21:28:00,57.4,49.9,29.78,South,183,0.0,0.0,76,0.00,,CLR,0.00,VWS V15.00,2013-06-05 01:28:00,
2013-06-04 21:29:00,57.3,49.8,29.79,South,183,0.0,0.0,76,0.00,,CLR,0.00,VWS V15.00,2013-06-05 01:29:00,
2013-06-04 21:30:00,57.2,49.4,29.79,South,183,0.0,0.0,75,0.00,,CLR,0.00,VWS V15.00,2013-06-05 01:30:00,
2013-06-04 21:31:00,57.2,49.4,29.79,South,183,0.0,0.0,75,0.00,,CLR,0.00,VWS V15.00,2013-06-05 01:31:00,
2013-06-04 21:32:00,57.3,49.8,29.79,South,183,0.0,0.0,76,0.00,,CLR,0.00,VWS V14.01,2013-06-05 01:32:00,
2013-06-04 21:33:00,57.1,49.6,29.79,South,183,0.0,0.0,76,0.00,,CLR,0.00,VWS V15.00,2013-06-05 01:33:00,
2013-06-04 21:34:00,57.0,49.5,29.79,South,183,0.0,0.0,76,0.00,,CLR,0.00,VWS V15.00,2013-06-05 01:34:00,
2013-06-04 21:35:00,57.0,49.5,29.79,South,183,0.0,0.0,76,0.00,,CLR,0.00,VWS V15.00,2013-06-05 01:35:00,
2013-06-04 21:36:00,56.9,49.4,29.79,South,183,0.0,0.0,76,0.00,,CLR,0.00,VWS V15.00,2013-06-05 01:36:00,
2013-06-04 21:37:00,57.0,49.5,29.79,South,183,0.0,0.0,76,0.00,,CLR,0.00,VWS V14.01,2013-06-05 01:37:00,
2013-06-04 21:38:00,56.9,49.4,29.79,South,183,0.0,0.0,76,0.00,,CLR,0.00,VWS V15.00,2013-06-05 01:38:00,
2013-06-04 21:39:00,56.9,49.4,29.79,South,183,0.0,0.0,76,0.00,,CLR,0.00,VWS V15.00,2013-06-05 01:39:00,
2013-06-04 21:40:00,56.8,49.3,29.80,South,183,0.0,0.0,76,0.00,,CLR,0.00,VWS V15.00,2013-06-05 01:40:00,
2013-06-04 21:41:00,56.8,49.7,29.80,South,183,0.0,0.0,77,0.00,,CLR,0.00,VWS V15.00,2013-06-05 01:41:00,
2013-06-04 21:42:00,56.9,49.4,29.79,South,183,0.0,0.0,76,0.00,,CLR,0.00,VWS V14.01,2013-06-05 01:42:00,
2013-06-04 21:43:00,56.8,49.7,29.80,South,183,0.0,0.0,77,0.00,,CLR,0.00,VWS V15.00,2013-06-05 01:43:00,
2013-06-04 21:44:00,56.8,49.7,29.80,South,183,0.0,0.0,77,0.00,,CLR,0.00,VWS V15.00,2013-06-05 01:44:00,
2013-06-04 21:45:00,56.7,49.6,29.80,South,183,0.0,0.0,77,0.00,,CLR,0.00,VWS V15.00,2013-06-05 01:45:00,
2013-06-04 21:46:00,56.7,49.6,29.80,South,183,0.0,0.0,77,0.00,,CLR,0.00,VWS V15.00,2013-06-05 01:46:00,
2013-06-04 21:47:00,56.8,49.7,29.80,South,183,0.0,0.0,77,0.00,,CLR,0.00,VWS V14.01,2013-06-05 01:47:00,
2013-06-04 21:48:00,56.7,49.6,29.80,South,183,0.0,0.0,77,0.00,,CLR,0.00,VWS V15.00,2013-06-05 01:48:00,
2013-06-04 21:49:00,56.7,49.6,29.80,South,183,0.0,0.0,77,0.00,,CLR,0.00,VWS V15.00,2013-06-05 01:49:00,
2013-06-04 21:50:00,56.6,49.5,29.80,South,183,0.0,0.0,77,0.00,,CLR,0.00,VWS V15.00,2013-06-05 01:50:00,
2013-06-04 21:51:00,56.6,49.5,29.80,South,183,0.0,0.0,77,0.00,,CLR,0.00,VWS V15.00,2013-06-05 01:51:00,
2013-06-04 21:52:00,56.7,49.6,29.80,South,183,0.0,0.0,77,0.00,,CLR,0.00,VWS V14.01,2013-06-05 01:52:00,
2013-06-04 21:53:00,56.5,49.7,29.80,South,183,0.0,0.0,78,0.00,,CLR,0.00,VWS V15.00,2013-06-05 01:53:00,
2013-06-04 21:54:00,56.4,49.6,29.80,South,183,0.0,0.0,78,0.00,,CLR,0.00,VWS V15.00,2013-06-05 01:54:00,
2013-06-04 21:55:00,56.4,49.6,29.80,South,183,0.0,0.0,78,0.00,,CLR,0.00,VWS V15.00,2013-06-05 01:55:00,
2013-06-04 21:56:00,56.4,49.6,29.80,South,183,0.0,0.0,78,0.00,,CLR,0.00,VWS V15.00,2013-06-05 01:56:00,
2013-06-04 21:57:00,56.4,49.6,29.80,South,183,0.0,0.0,78,0.00,,CLR,0.00,VWS V14.01,2013-06-05 01:57:00,
2013-06-04 21:58:00,56.3,49.5,29.80,South,183,0.0,0.0,78,0.00,,CLR,0.00,VWS V15.00,2013-06-05 01:58:00,
2013-06-04 21:59:00,56.2,49.4,29.80,South,183,0.0,0.0,78,0.00,,CLR,0.00,VWS V15.00,2013-06-05 01:59:00,
2013-06-04 22:00:00,56.2,49.4,29.80,South,183,0.0,0.0,78,0.00,,CLR,0.00,VWS V15.00,2013-06-05 02:00:00,
2013-06-04 22:01:00,56.2,49.4,29.80,South,183,0.0,0.0,78,0.00,,CLR,0.00,VWS V15.00,2013-06-05 02:01:00,
2013-06-04 22:02:00,56.2,49.4,29.80,South,183,0.0,0.0,78,0.00,,CLR,0.00,VWS V14.01,2013-06-05 02:02:00,
2013-06-04 22:03:00,56.1,49.0,29.80,South,183,0.0,0.0,77,0.00,,CLR,0.00,VWS V15.00,2013-06-05 02:03:00,
2013-06-04 22:04:00,56.1,49.0,29.80,South,183,0.0,0.0,77,0.00,,CLR,0.00,VWS V15.00,2013-06-05 02:04:00,
2013-06-04 22:05:00,56.0,48.9,29.81,South,183,0.0,0.0,77,0.00,,CLR,0.00,VWS V15.00,2013-06-05 02:05:00,
2013-06-04 22:06:00,56.0,49.2,29.81,South,183,0.0,0.0,78,0.00,,CLR,0.00,VWS V15.00,2013-06-05 02:06:00,
2013-06-04 22:07:00,56.1,49.0,29.80,South,183,0.0,0.0,77,0.00,,CLR,0.00,VWS V14.01,2013-06-05 02:07:00,
2013-06-04 22:08:00,56.0,49.2,29.81,South,183,0.0,0.0,78,0.00,,CLR,0.00,VWS V15.00,2013-06-05 02:08:00,
2013-06-04 22:09:00,56.0,49.2,29.81,South,183,0.0,0.0,78,0.00,,CLR,0.00,VWS V15.00,2013-06-05 02:09:00,
2013-06-04 22:10:00,56.0,50.3,29.80,South,183,0.0,0.0,81,0.00,,CLR,0.00,VWS V15.00,2013-06-05 02:10:00,
2013-06-04 22:12:00,56.0,49.2,29.81,South,183,0.0,0.0,78,0.00,,CLR,0.00,VWS V14.01,2013-06-05 02:12:00,
2013-06-04 22:13:00,55.9,50.5,29.80,South,183,0.0,0.0,82,0.00,,CLR,0.00,VWS V15.00,2013-06-05 02:13:00,
2013-06-04 22:14:00,55.9,50.8,29.80,South,183,0.0,0.0,83,0.00,,CLR,0.00,VWS V15.00,2013-06-05 02:14:00,
2013-06-04 22:15:00,55.8,50.7,29.81,South,183,0.0,0.0,83,0.00,,CLR,0.00,VWS V15.00,2013-06-05 02:15:00,
2013-06-04 22:16:00,55.7,50.6,29.80,South,183,0.0,0.0,83,0.00,,CLR,0.00,VWS V15.00,2013-06-05 02:16:00,
2013-06-04 22:17:00,55.9,50.8,29.80,South,183,0.0,0.0,83,0.00,,CLR,0.00,VWS V14.01,2013-06-05 02:17:00,
2013-06-04 22:18:00,55.5,50.4,29.81,South,183,0.0,0.0,83,0.00,,CLR,0.00,VWS V15.00,2013-06-05 02:18:00,
2013-06-04 22:19:00,55.4,50.3,29.81,South,183,0.0,0.0,83,0.00,,CLR,0.00,VWS V15.00,2013-06-05 02:19:00,
2013-06-04 22:20:00,55.3,50.6,29.81,South,183,0.0,0.0,84,0.00,,CLR,0.00,VWS V15.00,2013-06-05 02:20:00,
2013-06-04 22:21:00,55.1,50.4,29.81,South,183,0.0,0.0,84,0.00,,CLR,0.00,VWS V15.00,2013-06-05 02:21:00,
2013-06-04 22:22:00,55.5,50.4,29.81,South,183,0.0,0.0,83,0.00,,CLR,0.00,VWS V14.01,2013-06-05 02:22:00,
2013-06-04 22:23:00,54.9,50.5,29.81,South,183,0.0,0.0,85,0.00,,CLR,0.00,VWS V15.00,2013-06-05 02:23:00,
2013-06-04 22:24:00,54.7,50.3,29.81,South,183,0.0,0.0,85,0.00,,CLR,0.00,VWS V15.00,2013-06-05 02:24:00,
2013-06-04 22:25:00,54.6,50.2,29.81,South,183,0.0,0.0,85,0.00,,CLR,0.00,VWS V15.00,2013-06-05 02:25:00,
2013-06-04 22:26:00,54.4,50.0,29.81,South,183,0.0,0.0,85,0.00,,CLR,0.00,VWS V15.00,2013-06-05 02:26:00,
2013-06-04 22:27:00,54.8,50.4,29.81,South,183,0.0,0.0,85,0.00,,CLR,0.00,VWS V14.01,2013-06-05 02:27:00,
2013-06-04 22:28:00,54.2,50.1,29.81,South,183,0.0,0.0,86,0.00,,CLR,0.00,VWS V15.00,2013-06-05 02:28:00,
2013-06-04 22:29:00,54.1,50.0,29.81,South,183,0.0,0.0,86,0.00,,CLR,0.00,VWS V15.00,2013-06-05 02:29:00,
2013-06-04 22:30:00,54.0,49.9,29.81,South,183,0.0,0.0,86,0.00,,CLR,0.00,VWS V15.00,2013-06-05 02:30:00,
2013-06-04 22:31:00,53.9,49.8,29.81,South,183,0.0,0.0,86,0.00,,CLR,0.00,VWS V15.00,2013-06-05 02:31:00,
2013-06-04 22:32:00,54.1,50.0,29.81,South,183,0.0,0.0,86,0.00,,CLR,0.00,VWS V14.01,2013-06-05 02:32:00,
2013-06-04 22:33:00,53.8,49.7,29.81,South,183,0.0,0.0,86,0.00,,CLR,0.00,VWS V15.00,2013-06-05 02:33:00,
2013-06-04 22:34:00,53.8,49.4,29.81,South,183,0.0,0.0,85,0.00,,CLR,0.00,VWS V15.00,2013-06-05 02:34:00,
2013-06-04 22:35:00,53.8,49.4,29.81,South,183,0.0,0.0,85,0.00,,CLR,0.00,VWS V15.00,2013-06-05 02:35:00,
2013-06-04 22:36:00,53.7,49.6,29.81,South,183,0.0,0.0,86,0.00,,CLR,0.00,VWS V15.00,2013-06-05 02:36:00,
2013-06-04 22:37:00,53.8,49.7,29.81,South,183,0.0,0.0,86,0.00,,CLR,0.00,VWS V14.01,2013-06-05 02:37:00,
2013-06-04 22:38:00,53.7,49.3,29.81,South,183,0.0,0.0,85,0.00,,CLR,0.00,VWS V15.00,2013-06-05 02:38:00,
2013-06-04 22:39:00,53.7,49.3,29.81,South,183,0.0,0.0,85,0.00,,CLR,0.00,VWS V15.00,2013-06-05 02:39:00,
2013-06-04 22:40:00,53.7,49.6,29.81,South,183,0.0,0.0,86,0.00,,CLR,0.00,VWS V15.00,2013-06-05 02:40:00,
2013-06-04 22:41:00,53.6,49.5,29.81,South,183,0.0,0.0,86,0.00,,CLR,0.00,VWS V15.00,2013-06-05 02:41:00,
2013-06-04 22:42:00,53.7,49.3,29.81,South,183,0.0,0.0,85,0.00,,CLR,0.00,VWS V14.01,2013-06-05 02:42:00,
2013-06-04 22:43:00,53.6,49.5,29.81,South,183,0.0,0.0,86,0.00,,CLR,0.00,VWS V15.00,2013-06-05 02:43:00,
2013-06-04 22:44:00,53.6,49.5,29.81,South,183,0.0,0.0,86,0.00,,CLR,0.00,VWS V15.00,2013-06-05 02:44:00,
2013-06-04 22:45:00,53.6,49.5,29.81,South,183,0.0,0.0,86,0.00,,CLR,0.00,VWS V15.00,2013-06-05 02:45:00,
2013-06-04 22:46:00,53.5,49.7,29.81,South,183,0.0,0.0,87,0.00,,CLR,0.00,VWS V15.00,2013-06-05 02:46:00,
2013-06-04 22:47:00,53.6,49.5,29.81,South,183,0.0,0.0,86,0.00,,CLR,0.00,VWS V14.01,2013-06-05 02:47:00,
2013-06-04 22:48:00,53.5,49.7,29.81,South,183,0.0,0.0,87,0.00,,CLR,0.00,VWS V15.00,2013-06-05 02:48:00,
2013-06-04 22:49:00,53.5,49.7,29.81,South,183,0.0,0.0,87,0.00,,CLR,0.00,VWS V15.00,2013-06-05 02:49:00,
2013-06-04 22:50:00,53.4,49.6,29.81,South,183,0.0,0.0,87,0.00,,CLR,0.00,VWS V15.00,2013-06-05 02:50:00,
2013-06-04 22:51:00,53.3,49.5,29.81,South,183,0.0,0.0,87,0.00,,CLR,0.00,VWS V15.00,2013-06-05 02:51:00,
2013-06-04 22:52:00,53.5,49.7,29.81,South,183,0.0,0.0,87,0.00,,CLR,0.00,VWS V14.01,2013-06-05 02:52:00,
2013-06-04 22:53:00,53.2,49.4,29.82,South,183,0.0,0.0,87,0.00,,CLR,0.00,VWS V15.00,2013-06-05 02:53:00,
2013-06-04 22:54:00,53.2,49.4,29.81,South,183,0.0,0.0,87,0.00,,CLR,0.00,VWS V15.00,2013-06-05 02:54:00,
2013-06-04 22:55:00,53.2,49.4,29.81,South,183,0.0,0.0,87,0.00,,CLR,0.00,VWS V15.00,2013-06-05 02:55:00,
2013-06-04 22:56:00,53.2,49.4,29.82,South,183,0.0,0.0,87,0.00,,CLR,0.00,VWS V15.00,2013-06-05 02:56:00,
2013-06-04 22:57:00,53.2,49.4,29.82,South,183,0.0,0.0,87,0.00,,CLR,0.00,VWS V14.01,2013-06-05 02:57:00,
2013-06-04 22:58:00,53.1,49.3,29.82,South,183,0.0,0.0,87,0.00,,CLR,0.00,VWS V15.00,2013-06-05 02:58:00,
2013-06-04 22:59:00,53.1,49.3,29.82,South,183,0.0,0.0,87,0.00,,CLR,0.00,VWS V15.00,2013-06-05 02:59:00,
2013-06-04 23:00:00,53.1,49.3,29.82,South,183,0.0,0.0,87,0.00,,CLR,0.00,VWS V15.00,2013-06-05 03:00:00,
2013-06-04 23:01:00,53.1,49.3,29.82,South,183,0.0,0.0,87,0.00,,CLR,0.00,VWS V15.00,2013-06-05 03:01:00,
2013-06-04 23:02:00,53.1,49.3,29.82,South,183,0.0,0.0,87,0.00,,CLR,0.00,VWS V14.01,2013-06-05 03:02:00,
2013-06-04 23:03:00,53.1,49.3,29.82,South,183,0.0,0.0,87,0.00,,CLR,0.00,VWS V15.00,2013-06-05 03:03:00,
2013-06-04 23:04:00,53.0,49.2,29.82,South,183,0.0,0.0,87,0.00,,CLR,0.00,VWS V15.00,2013-06-05 03:04:00,
2013-06-04 23:05:00,53.0,49.5,29.83,South,183,0.0,0.0,88,0.00,,CLR,0.00,VWS V15.00,2013-06-05 03:05:00,
2013-06-04 23:06:00,53.0,49.5,29.83,South,183,0.0,0.0,88,0.00,,CLR,0.00,VWS V15.00,2013-06-05 03:06:00,
2013-06-04 23:07:00,53.0,49.2,29.82,South,183,0.0,0.0,87,0.00,,CLR,0.00,VWS V14.01,2013-06-05 03:07:00,
2013-06-04 23:08:00,53.0,49.5,29.83,South,183,0.0,0.0,88,0.00,,CLR,0.00,VWS V15.00,2013-06-05 03:08:00,
2013-06-04 23:09:00,53.0,49.5,29.83,South,183,0.0,0.0,88,0.00,,CLR,0.00,VWS V15.00,2013-06-05 03:09:00,
2013-06-04 23:10:00,53.0,49.5,29.83,South,183,0.0,0.0,88,0.00,,CLR,0.00,VWS V15.00,2013-06-05 03:10:00,
2013-06-04 23:11:00,53.0,49.5,29.83,South,183,0.0,0.0,88,0.00,,CLR,0.00,VWS V15.00,2013-06-05 03:11:00,
2013-06-04 23:12:00,53.0,49.5,29.83,South,183,0.0,0.0,88,0.00,,CLR,0.00,VWS V14.01,2013-06-05 03:12:00,
2013-06-04 23:13:00,52.9,49.5,29.83,South,183,0.0,0.0,88,0.00,,CLR,0.00,VWS V15.00,2013-06-05 03:13:00,
2013-06-04 23:14:00,52.9,49.5,29.83,South,183,0.0,0.0,88,0.00,,CLR,0.00,VWS V15.00,2013-06-05 03:14:00,
2013-06-04 23:15:00,52.9,49.5,29.83,South,183,0.0,0.0,88,0.00,,CLR,0.00,VWS V15.00,2013-06-05 03:15:00,
2013-06-04 23:16:00,52.9,49.5,29.83,South,183,0.0,0.0,88,0.00,,CLR,0.00,VWS V15.00,2013-06-05 03:16:00,
2013-06-04 23:17:00,52.9,49.5,29.83,South,183,0.0,0.0,88,0.00,,CLR,0.00,VWS V14.01,2013-06-05 03:17:00,
2013-06-04 23:18:00,52.9,49.5,29.83,South,183,0.0,0.0,88,0.00,,CLR,0.00,VWS V15.00,2013-06-05 03:18:00,
2013-06-04 23:19:00,52.9,49.5,29.83,South,183,0.0,0.0,88,0.00,,CLR,0.00,VWS V15.00,2013-06-05 03:19:00,
2013-06-04 23:20:00,52.8,49.3,29.83,South,183,0.0,0.0,88,0.00,,CLR,0.00,VWS V15.00,2013-06-05 03:20:00,
2013-06-04 23:21:00,52.8,49.3,29.83,South,183,0.0,0.0,88,0.00,,CLR,0.00,VWS V15.00,2013-06-05 03:21:00,
2013-06-04 23:22:00,52.9,49.5,29.83,South,183,0.0,0.0,88,0.00,,CLR,0.00,VWS V14.01,2013-06-05 03:22:00,
2013-06-04 23:23:00,52.8,49.3,29.83,South,183,0.0,0.0,88,0.00,,CLR,0.00,VWS V15.00,2013-06-05 03:23:00,
2013-06-04 23:24:00,52.8,49.3,29.83,South,183,0.0,0.0,88,0.00,,CLR,0.00,VWS V15.00,2013-06-05 03:24:00,
2013-06-04 23:25:00,52.8,49.0,29.84,South,183,0.0,0.0,87,0.00,,CLR,0.00,VWS V15.00,2013-06-05 03:25:00,
2013-06-04 23:26:00,52.7,49.2,29.83,South,183,0.0,0.0,88,0.00,,CLR,0.00,VWS V15.00,2013-06-05 03:26:00,
2013-06-04 23:27:00,52.8,49.3,29.83,South,183,0.0,0.0,88,0.00,,CLR,0.00,VWS V14.01,2013-06-05 03:27:00,
2013-06-04 23:28:00,52.7,49.0,29.83,South,183,0.0,0.0,87,0.00,,CLR,0.00,VWS V15.00,2013-06-05 03:28:00,
2013-06-04 23:29:00,52.7,49.0,29.84,South,183,0.0,0.0,87,0.00,,CLR,0.00,VWS V15.00,2013-06-05 03:29:00,
2013-06-04 23:30:00,52.7,49.2,29.84,South,183,0.0,0.0,88,0.00,,CLR,0.00,VWS V15.00,2013-06-05 03:30:00,
2013-06-04 23:31:00,52.7,49.2,29.84,South,183,0.0,0.0,88,0.00,,CLR,0.00,VWS V15.00,2013-06-05 03:31:00,
2013-06-04 23:32:00,52.7,49.0,29.84,South,183,0.0,0.0,87,0.00,,CLR,0.00,VWS V14.01,2013-06-05 03:32:00,
2013-06-04 23:33:00,52.7,49.2,29.84,South,183,0.0,0.0,88,0.00,,CLR,0.00,VWS V15.00,2013-06-05 03:33:00,
2013-06-04 23:34:00,52.7,49.2,29.84,South,183,0.0,0.0,88,0.00,,CLR,0.00,VWS V15.00,2013-06-05 03:34:00,
2013-06-04 23:35:00,52.7,49.2,29.84,South,183,0.0,0.0,88,0.00,,CLR,0.00,VWS V15.00,2013-06-05 03:35:00,
2013-06-04 23:36:00,52.7,49.2,29.84,South,183,0.0,0.0,88,0.00,,CLR,0.00,VWS V15.00,2013-06-05 03:36:00,
2013-06-04 23:37:00,52.7,49.2,29.84,South,183,0.0,0.0,88,0.00,,CLR,0.00,VWS V14.01,2013-06-05 03:37:00,
2013-06-04 23:38:00,52.6,49.2,29.84,South,183,0.0,0.0,88,0.00,,CLR,0.00,VWS V15.00,2013-06-05 03:38:00,
2013-06-04 23:39:00,52.6,49.2,29.84,South,183,0.0,0.0,88,0.00,,CLR,0.00,VWS V15.00,2013-06-05 03:39:00,
2013-06-04 23:40:00,52.6,49.2,29.84,South,183,0.0,0.0,88,0.00,,CLR,0.00,VWS V15.00,2013-06-05 03:40:00,
2013-06-04 23:41:00,52.5,49.1,29.84,South,183,0.0,0.0,88,0.00,,CLR,0.00,VWS V15.00,2013-06-05 03:41:00,
2013-06-04 23:42:00,52.6,49.2,29.84,South,183,0.0,0.0,88,0.00,,CLR,0.00,VWS V14.01,2013-06-05 03:42:00,
2013-06-04 23:43:00,52.5,49.1,29.84,South,183,0.0,0.0,88,0.00,,CLR,0.00,VWS V15.00,2013-06-05 03:43:00,
2013-06-04 23:44:00,52.4,49.0,29.84,South,183,0.0,0.0,88,0.00,,CLR,0.00,VWS V15.00,2013-06-05 03:44:00,
2013-06-04 23:45:00,52.4,49.0,29.84,South,183,0.0,0.0,88,0.00,,CLR,0.00,VWS V15.00,2013-06-05 03:45:00,
2013-06-04 23:46:00,52.4,49.0,29.84,South,183,0.0,0.0,88,0.00,,CLR,0.00,VWS V15.00,2013-06-05 03:46:00,
2013-06-04 23:47:00,52.4,49.0,29.84,South,183,0.0,0.0,88,0.00,,CLR,0.00,VWS V14.01,2013-06-05 03:47:00,
2013-06-04 23:48:00,52.4,49.3,29.84,South,183,0.0,0.0,89,0.00,,CLR,0.00,VWS V15.00,2013-06-05 03:48:00,
2013-06-04 23:49:00,52.4,49.0,29.84,South,183,0.0,0.0,88,0.00,,CLR,0.00,VWS V15.00,2013-06-05 03:49:00,
2013-06-04 23:50:00,52.4,49.3,29.84,South,183,0.0,0.0,89,0.00,,CLR,0.00,VWS V15.00,2013-06-05 03:50:00,
2013-06-04 23:51:00,52.4,49.3,29.84,South,183,0.0,0.0,89,0.00,,CLR,0.00,VWS V15.00,2013-06-05 03:51:00,
2013-06-04 23:52:00,52.4,49.0,29.84,South,183,0.0,0.0,88,0.00,,CLR,0.00,VWS V14.01,2013-06-05 03:52:00,
2013-06-04 23:53:00,52.4,49.3,29.84,South,183,0.0,0.0,89,0.00,,CLR,0.00,VWS V15.00,2013-06-05 03:53:00,
2013-06-04 23:54:00,52.4,49.6,29.84,South,183,0.0,0.0,90,0.00,,CLR,0.00,VWS V15.00,2013-06-05 03:54:00,
2013-06-04 23:55:00,52.4,49.6,29.84,South,183,0.0,0.0,90,0.00,,CLR,0.00,VWS V15.00,2013-06-05 03:55:00,
2013-06-04 23:56:00,52.4,49.6,29.84,South,183,0.0,0.0,90,0.00,,CLR,0.00,VWS V15.00,2013-06-05 03:56:00,
2013-06-04 23:57:00,52.4,49.6,29.84,South,183,0.0,0.0,90,0.00,,CLR,0.00,VWS V14.01,2013-06-05 03:57:00,
2013-06-04 23:58:00,52.3,49.5,29.84,South,183,0.0,0.0,90,0.00,,CLR,0.00,VWS V15.00,2013-06-05 03:58:00,
2013-06-04 23:59:00,52.2,49.4,29.84,South,183,0.0,0.0,90,0.00,,CLR,0.00,VWS V15.00,2013-06-05 03:59:00,